     2              OBSERVATION DATA    GPS                 RINEX VERSION / TYPE
teqc 1999Jul19 19991123 03:11:39UTC                         PGM / RUN BY / DATE
                                                            COMMENT
Original Marker Name: 1004                                  COMMENT
Campaign Name: HPGN 1991                                    COMMENT
4-Character Station Name: 1004                              COMMENT
6-Character Antenna Code: TRMSST                            COMMENT
Vertical Measurement Point: BPA                             COMMENT
Vertical Offset to Rinex Ref. Point: 0.0000                 COMMENT
Radial Measurement Point: RRP                               COMMENT
Radial Offset to Rinex Ref. Point: 0.0000                   COMMENT
Antenna Height from Field Measurement: 2.2200 m             COMMENT
                                                            COMMENT
Original XYZ: -2624212.8980 -4336824.8418 3858514.5587      COMMENT
New XYZ position is based on association with SCEC monument COMMENT
E1F6Z2X0+0011. Position of that monument is believed to be  COMMENT
valid to within 1 m horizontally; vertical accuracy         COMMENT
should be no worse than 3-times this value.                 COMMENT
                                                            COMMENT
Revised Rinex header created by UCSD GPS archive for        COMMENT
GSAC on 10-Mar-2000 (2000:070) 17:24:39 GMT                 COMMENT
For assistance contact dagnew@ucsd.edu or hjohnson@ucsd.edu COMMENT
                                                            COMMENT
HPGN CA 10 04                                               MARKER NAME
1004                                                        MARKER NUMBER
-Unknown- CALIF DEPT TRANSPORTATION                         OBSERVER / AGENCY
486 TRIMBLE 4000 SST NP 4.30 / SP 4.20                      REC # / TYPE / VERS
17 TR 4000SST L1/L2 GEO                                     ANT # / TYPE
 -2624129.5348 -4336726.0633  3858439.8817                  APPROX POSITION XYZ
        2.2200        0.0000        0.0000                  ANTENNA: DELTA H/E/N
     1     1     0                                          WAVELENGTH FACT L1/2
     5    C1    L1    L2    S1    S2                        # / TYPES OF OBSERV
     0                                                      INTERVAL
  1991     5    20    17    51   45.000000                  TIME OF FIRST OBS
  1991     5    20    20    37   30.000000                  TIME OF LAST OBS
                                                            END OF HEADER
 91  5 20 17 51 45.0000000  0  3G18G11G19
  20467568.563          -0.84918        -0.20332        29.500           2.313
  24272654.039          -0.36716        -0.35031        12.000           0.313
  20603160.227          -0.29417        -0.40032        20.750           1.781
 91  5 20 17 52  0.0000000  0  3G18G11G19
  20468630.555        5580.127 8      4348.59722        29.750           2.344
  24263233.125      -49497.055 6    -38569.11321        12.500           0.188
  20600422.445      -14386.739 7    -11210.60122        20.750           1.844
 91  5 20 17 52 15.0000000  0  3G18G11G19
  20469696.195       11182.700 8      8714.23222        29.000           2.344
  24253811.563      -99014.160 6    -77153.79321        12.000           0.250
  20597679.102      -28804.668 7    -22445.33822        20.250           1.844
 91  5 20 17 52 30.0000000  0  3G18G11G19
  20470768.977       16821.791 8     13108.32222        28.500           2.313
  24244388.813     -148536.580 6   -115742.61821        12.750           0.281
  20594932.156      -43239.250 7    -33693.05222        20.250           1.813
 91  5 20 17 52 45.0000000  0  3G18G11G19
  20471850.867       22502.771 8     17535.04622        28.750           2.313
  24234964.023     -198058.351 6   -154330.93721        13.250           0.281
  20592183.320      -57685.250 7    -44949.66122        20.250           1.781
 91  5 20 17 53  0.0000000  0  3G18G11G19
  20472944.891       28248.889 8     22012.53022        28.750           2.375
  24225544.992     -247555.886 6   -192900.37021        12.000           0.281
  20589435.352      -72119.425 7    -56197.05922        20.000           1.813
 91  5 20 17 53 15.0000000  0  3G18G11G19
  20474055.203       34086.283 8     26561.13622        28.750           2.344
  24216134.539     -297002.618 5   -231430.20421        11.000           0.344
  20586696.914      -86515.673 7    -67414.90322        20.250           1.719
 91  5 20 17 53 30.0000000  0  3G18G11G19
  20475187.578       40033.997 8     31195.70522        29.000           2.313
  24206737.797     -346379.059 5   -269905.27821        11.500           0.375
  20583967.945     -100855.001 7    -78588.39122        20.250           1.781
 91  5 20 17 53 45.0000000  0  3G18G11G19
  20476340.797       46097.950 8     35920.85322        28.500           2.281
  24197358.594     -395679.040 6   -308320.75121        12.000           0.438
  20581251.602     -115131.632 7    -89713.02522        20.000           1.750
 91  5 20 17 53 59.9990000  0  3G18G11G19
  20477521.964       52301.637 8     40754.88022        28.500           2.219
  24187996.987     -444874.977 6   -346655.14021        12.750           0.313
  20578550.886     -129320.646 7   -100769.38822        20.750           1.906
 91  5 20 17 54 14.9990000  0  3G18G11G19
  20478729.269       58649.665 8     45701.38122        28.250           2.281
  24178653.730     -493969.073 6   -384910.23421        12.500           0.344
  20575868.003     -143420.023 7   -111755.90322        20.000           1.875
 91  5 20 17 54 29.9990000  0  3G18G11G19
  20479965.058       65139.551 8     50758.42122        28.000           2.313
  24169329.144     -542959.723 6   -423084.67621        12.250           0.313
  20573201.159     -157431.150 7   -122673.65322        20.250           1.844
 91  5 20 17 54 44.9990000  0  3G18G11G19
  20481223.589       71755.312 8     55913.54322        28.500           2.406
  24160024.151     -591862.371 6   -461190.56121        12.000           0.250
  20570550.323     -171369.820 7   -133534.93922        20.250           1.844
 91  5 20 17 54 59.9990000  0  3G18G11G19
  20482503.769       78485.815 8     61158.07522        28.000           2.406
  24150735.167     -640687.991 6   -499236.44521        12.000           0.156
  20567908.909     -185247.452 7   -144348.66322        20.500           1.781
 91  5 20 17 55 14.9990000  0  3G18G11G19
  20483805.105       85319.570 8     66483.06622        28.750           2.375
  24141457.714     -689447.382 6   -537230.68221        12.000           0.219
  20565278.300     -199075.281 7   -155123.58222        20.500           1.844
 91  5 20 17 55 29.9990000  0  3G18G11G19
  20485120.487       92235.373 8     71871.99122        28.500           2.281
  24132184.581     -738161.173 5   -575189.42121        11.250           0.281
  20562651.886     -212874.515 7   -165876.21722        20.250           1.844
 91  5 20 17 55 44.9990000  0  3G18G11G19
  20486450.698       99222.838 8     77316.75122        28.500           2.313
  24122920.230     -786839.654 5   -613120.62321        11.750           0.406
  20560028.276     -226655.952 7   -176614.98822        20.500           1.844
 91  5 20 17 55 59.9990000  0  3G18G11G19
  20487792.081      106274.977 8     82811.91022        28.000           2.313
  24113664.487     -835489.328 6   -651029.37221        12.500           0.375
  20557407.862     -240426.463 7   -187345.24822        20.750           1.781
 91  5 20 17 56 14.9990000  0  3G18G11G19
  20489148.347      113393.246 8     88358.59322        28.750           2.313
  24104412.901     -884108.478 6   -688914.32321        12.250           0.375
  20554791.214     -254184.772 7   -198065.99422        20.500           1.719
 91  5 20 17 56 29.9990000  0  3G18G11G19
  20490514.222      120577.645 8     93956.81222        28.250           2.313
  24095166.581     -932696.556 6   -726775.05821        12.500           0.313
  20552172.448     -267930.763 7   -208777.14822        20.250           1.844
 91  5 20 17 56 44.9990000  0  3G18G11G19
  20491893.511      127830.086 8     99608.04322        28.250           2.375
  24085926.698     -981251.051 6   -764609.66821        12.500           0.281
  20549561.237     -281662.357 7   -219477.08322        20.250           1.813
 91  5 20 17 56 59.9990000  0  3G18G11G19
  20493287.292      135152.791 8    105314.03222        28.250           2.313
  24076694.386    -1029769.502 6   -802416.19921        12.000           0.219
  20546951.378     -295377.542 7   -230164.23522        21.000           1.844
 91  5 20 17 57 14.9990000  0  3G18G11G19
  20494694.605      142545.703 8    111074.72622        28.750           2.375
  24067467.175    -1078251.641 5   -840194.37921        11.750           0.281
  20544344.933     -309076.476 7   -240838.71322        20.750           1.906
 91  5 20 17 57 29.9990000  0  3G18G11G19
  20496115.784      150014.429 8    116894.49522        28.750           2.219
  24058249.097    -1126691.212 5   -877939.42921        11.750           0.313
  20541741.878     -322753.331 7   -251495.98522        21.000           1.781
 91  5 20 17 57 44.9990000  0  3G18G11G19
  20497551.370      157558.250 8    122772.78222        28.750           2.344
  24049038.019    -1175088.729 6   -915651.70821        12.000           0.313
  20539143.995     -336409.029 7   -262136.78122        20.750           1.875
 91  5 20 17 57 59.9990000  0  3G18G11G19
  20499001.136      165172.156 8    128705.67722        28.750           2.281
  24039837.198    -1223448.707 6   -953334.71121        12.250           0.438
  20536549.612     -350048.558 7   -272764.97822        20.500           1.938
 91  5 20 17 58 14.9990000  0  3G18G11G19
  20500462.972      172856.849 8    134693.73722        28.750           2.250
  24030641.315    -1271770.114 6   -990987.65321        12.250           0.438
  20533955.573     -363671.312 7   -283380.10022        21.000           1.844
 91  5 20 17 58 29.9990000  0  3G18G11G19
  20501939.815      180618.996 8    140742.14322        28.750           2.250
  24021453.730    -1320045.493 5  -1028604.74521        11.750           0.406
  20531365.417     -377270.411 7   -293976.79022        21.250           1.813
 91  5 20 17 58 44.9990000  0  3G18G11G19
  20503430.433      188451.875 8    146845.67122        29.000           2.250
  24012275.487    -1368281.315 6  -1066190.99721        12.250           0.375
  20528783.980     -390852.623 7   -304560.32222        20.500           1.813
 91  5 20 17 58 59.9990000  0  3G18G11G19
  20504934.214      196354.472 8    153003.52322        28.750           2.219
  24003103.253    -1416478.195 5  -1103746.90821        11.750           0.281
  20526202.870     -404419.210 7   -315131.68022        20.250           1.906
 91  5 20 17 59 14.9990000  0  3G18G11G19
  20506453.495      204335.221 8    159222.26722        29.000           2.344
  23993943.065    -1464627.208 6  -1141265.51121        12.500           0.344
  20523624.925     -417961.429 7   -325684.04322        20.500           1.875
 91  5 20 17 59 29.9990000  0  3G18G11G19
  20507985.339      212386.568 8    165496.02622        28.750           2.375
  23984786.401    -1512735.511 5  -1178752.41321        11.500           0.344
  20521051.808     -431487.095 7   -336223.51222        20.250           1.844
 91  5 20 17 59 44.9990000  0  3G18G11G19
  20509531.253      220511.231 8    171826.91222        28.500           2.313
  23975639.183    -1560799.940 6  -1216205.13521        12.250           0.344
  20518480.683     -444993.254 7   -346747.78122        20.500           1.875
 91  5 20 17 59 59.9990000  0  3G18G11G19
  20511091.581      228712.270 8    178217.30922        28.750           2.344
  23966504.355    -1608817.200 6  -1253621.09221        12.500           0.406
  20515913.292     -458477.013 7   -357254.59822        21.250           1.844
 91  5 20 18  0 14.9990000  0  3G18G11G19
  20512666.308      236987.278 8    184665.35222        28.500           2.375
  23957374.253    -1656789.113 6  -1291001.70221        12.750           0.406
  20513352.597     -471940.747 7   -367745.80822        20.250           1.781
 91  5 20 18  0 29.9990000  0  3G18G11G19
  20514258.620      245353.186 8    191184.22322        28.750           2.375
  23948257.105    -1704698.232 5  -1328333.40621        11.750           0.438
  20510798.433     -485367.494 7   -378208.20022        20.000           1.875
 91  5 20 18  0 44.9990000  0  3G18G11G19
  20515872.081      253830.077 8    197789.57122        28.750           2.281
  23939154.808    -1752524.253 5  -1365600.31921        11.250           0.500
  20508253.964     -498737.278 7   -388626.20422        20.250           1.844
 91  5 20 18  0 59.9990000  0  4G18G16G11G19
  20517506.284      262422.121 8    204484.65122        28.250           2.344
  24091977.065      -45917.968 5                         7.750
  23930071.730    -1800262.454 6  -1402798.79621        12.000           0.438
  20505724.120     -512045.978 6   -398996.61722        19.750           1.750
 91  5 20 18  1 14.9990000  0  4G18G16G11G19
  20519163.206      271126.182 8    211267.01622        28.500           2.375
  24083256.003      -91725.733 4                         7.250
  23921005.534    -1847915.540 6  -1439930.97821        12.500           0.344
  20503200.026     -525296.591 7   -409321.75522        20.250           1.781
 91  5 20 18  1 29.9990000  0  4G18G16G11G19
  20520837.206      279924.402 8    218122.75822        28.500           2.281
  24074557.940     -137440.778 5                         7.500
  23911951.698    -1895501.105 6  -1477010.52721        13.250           0.438
  20500687.933     -538507.225 6   -419615.74922        19.500           1.813
 91  5 20 18  1 44.9990000  0  4G18G16G11G19
  20522529.042      288815.752 8    225051.06422        28.500           2.344
  24065877.933     -183063.343 5                         7.750
  23902906.925    -1943019.397 6  -1514037.68621        12.750           0.344
  20498181.190     -551678.644 7   -429879.18222        20.500           1.719
 91  5 20 18  1 59.9990000  0  4G18G16G11G19
  20524236.456      297787.259 8    232041.83422        28.000           2.375
  24057207.933     -228606.573 5        -0.28831         7.750           0.156
  23893874.784    -1990483.085 6  -1551022.29521        13.000           0.344
  20495676.573     -564823.787 7   -440122.14122        21.500           1.750
 91  5 20 18  2 14.9990000  0  4G18G16G11G19
  20525958.714      306835.103 8    239092.07422        28.500           2.281
  24048557.089     -274073.725 5    -35429.23421         8.000           0.281
  23884853.034    -2037895.605 6  -1587967.03621        13.000           0.344
  20493181.136     -577946.660 7   -450347.74522        20.250           1.844
 91  5 20 18  2 29.9990000  0  4G18G16G11G19
  20527696.636      315970.935 8    246210.88322        28.250           1.938
  24039919.730     -319452.970 5    -70789.67521         8.250           0.094
  23875840.808    -2085245.059 6  -1624862.61321        12.500           0.313
  20490688.831     -591035.688 7   -460546.97421        20.750           1.469
 91  5 20 18  2 44.9990000  0  4G18G16G11G19
  20529450.245      325184.898 8    253390.56722        29.000           2.344
  24031301.597     -364753.966 5   -106089.14721         8.250           0.250
  23866841.730    -2132540.800 5  -1661716.34421        11.750           0.375
  20488203.987     -604100.631 7   -470727.44122        20.250           1.813
 91  5 20 18  2 59.9990000  0  4G18G16G11G19
  20531218.425      334478.118 8    260632.02322        28.500           2.313
  24022696.339     -409975.032 5   -141326.29721         9.000           0.188
  23857849.823    -2179781.311 5  -1698527.03821        11.750           0.469
  20485722.987     -617140.295 7   -480888.20622        21.000           1.813
 91  5 20 18  3 14.9990000  0  4G18G16G11G19
  20533005.370      343865.927 8    267947.18122        28.250           2.313
  24014110.284     -455100.807 5   -176489.25821         9.000           0.156
  23848876.737    -2226950.514 6  -1735282.17421        13.250           0.469
  20483248.644     -630139.237 7   -491017.24322        20.000           1.813
 91  5 20 18  3 29.9990000  0  4G18G16G11G19
  20534809.222      353349.099 8    275336.64522        28.250           2.375
  24005541.378     -500130.025 5   -211576.92321         9.250           0.281
  23839915.073    -2274047.204 6  -1771980.80821        13.500           0.531
  20480781.933     -643096.793 7   -501114.03322        20.250           1.813
 91  5 20 18  3 44.9990000  0  4G18G16G11G19
  20536633.128      362931.606 8    282803.51422        28.750           2.219
  23996991.440     -545058.351 5   -246586.01221         9.500           0.250
  23830966.964    -2321067.079 6  -1808619.56421        13.250           0.563
  20478327.073     -656008.905 7   -511175.40322        20.250           1.813
 91  5 20 18  3 59.9990000  0  4G18G16G11G19
  20538478.472      372623.132 8    290355.33122        28.500           2.313
  23988463.253     -589876.355 5   -281509.10221         9.250           0.188
  23822035.425    -2368000.282 6  -1845190.80121        13.250           0.406
  20475881.300     -668866.182 7   -521194.05122        20.000           1.750
 91  5 20 18  4 14.9990000  0  4G18G16G11G19
  20540342.675      382420.851 8    297989.90622        28.250           2.313
  23979953.550     -634586.221 5   -316347.94821         9.000           0.188
  23813120.440    -2414849.188 6  -1881696.38921        13.000           0.375
  20473444.347     -681671.345 7   -531172.09222        20.500           1.781
 91  5 20 18  4 29.9990000  0  4G18G16G11G19
  20542226.565      392323.387 8    305706.14822        28.000           2.344
  23971468.206     -679188.808 5   -351103.19621        10.000           0.281
  23804224.073    -2461614.314 6  -1918136.64521        12.750           0.375
  20471015.042     -694425.370 7   -541110.28722        20.750           1.750
 91  5 20 18  4 44.9990000  0  4G18G16G11G19
  20544132.042      402333.420 8    313506.15322        28.000           2.375
  23962999.987     -723681.110 5   -385772.54621         9.750           0.188
  23795337.175    -2508292.539 6  -1954509.20021        12.750           0.438
  20468599.214     -707125.649 7   -551006.59622        20.750           1.750
 91  5 20 18  4 59.9990000  0  4G18G16G11G19
  20546054.409      412440.180 7    321381.53122        27.750           2.406
  23954553.917     -768073.988 5   -420364.35821        10.250           0.281
  23786469.589    -2554894.593 6  -1990822.40721        13.000           0.469
  20466189.698     -719783.405 7   -560869.77322        20.500           1.719
 91  5 20 18  5 14.9990000  0  4G18G16G11G19
  20547998.323      422653.212 8    329339.72422        28.000           2.344
  23946125.980     -812357.401 5   -454870.91721        10.250           0.344
  23777615.714    -2601410.425 6  -2027068.43821        12.000           0.594
  20463791.323     -732388.861 7   -570692.20422        20.250           1.906
 91  5 20 18  5 29.9990000  0  4G18G16G11G19
  20549961.269      432973.306 7    337381.33722        27.500           2.281
  23937723.433     -856530.254 5   -489291.28421        10.250           0.313
  23768784.175    -2647838.810 6  -2063246.30821        13.500           0.500
  20461402.706     -744941.171 7   -580473.21722        21.000           1.875
 91  5 20 18  5 44.9990000  0  4G18G16G11G19
  20551945.964      443400.791 7    345506.62422        27.750           2.406
  23929336.370     -900591.766 5   -523624.91621        10.250           0.281
  23759965.362    -2694178.857 6  -2099355.35321        13.500           0.500
  20459024.370     -757440.039 7   -590212.58122        20.500           1.719
 91  5 20 18  5 59.9990000  0  4G18G16G11G19
  20553950.933      453935.136 7    353715.18522        27.750           2.375
  23920973.230     -944542.207 5   -557872.00721        10.000           0.344
  23751163.565    -2740430.567 6  -2135395.57121        12.750           0.500
  20456656.917     -769885.774 7   -599910.55222        20.750           1.781
 91  5 20 18  6 14.9990000  0  4G18G16G11G19
  20555975.487      464572.331 7    362003.88422        27.750           2.375
  23912629.612     -988385.364 5   -592035.47721         9.500           0.281
  23742376.339    -2786597.658 6  -2171369.85421        12.250           0.500
  20454297.933     -782282.475 7   -609570.30922        20.750           1.750
 91  5 20 18  6 29.9990000  0  4G18G16G11G19
  20558017.292      475306.708 7    370368.30722        27.500           2.406
  23904305.308    -1032126.938 5   -626119.80621        10.000           0.375
  23733606.636    -2832685.318 6  -2207282.22721        12.000           0.500
  20451944.534     -794635.561 7   -619196.08322        21.750           1.750
 91  5 20 18  6 44.9990000  0  4G18G16G11G19
  20560079.112      486138.018 8    378808.26922        28.000           2.438
  23896000.315    -1075766.886 5   -660124.94921         9.750           0.375
  23724852.315    -2878693.404 6  -2243132.60421        12.750           0.500
  20449604.526     -806945.659 7   -628788.36322        20.750           1.813
 91  5 20 18  6 59.9990000  0  4G18G16G11G19
  20562157.198      497059.971 7    387318.85922        27.750           2.281
  23887715.495    -1119310.773 5   -694055.21021         9.500           0.344
  23716109.901    -2924627.706 6  -2278925.48721        13.500           0.438
  20447267.198     -819218.895 7   -638351.91922        20.750           1.656
 91  5 20 18  7 14.9990000  0  4G18G16G11G19
  20564253.136      508070.877 7    395898.76622        27.750           2.406
  23879445.347    -1162760.013 5   -727911.74421         9.250           0.344
  23707383.964    -2970489.653 6  -2314662.00421        13.250           0.469
  20444939.503     -831456.965 7   -647888.07122        20.500           1.781
 91  5 20 18  7 29.9990000  0  4G18G16G11G19
  20566367.487      519186.033 7    404559.90522        27.250           2.469
  23871200.558    -1206099.184 5   -761682.49421         9.500           0.406
  23698673.034    -3016263.150 6  -2350329.57821        12.750           0.469
  20442619.065     -843644.224 7   -657384.63022        21.000           1.688
 91  5 20 18  7 44.9990000  0  4G18G16G11G19
  20568500.448      530392.111 7    413291.88622        27.500           2.375
  23862970.409    -1249341.321 5   -795377.64521         9.000           0.375
  23689976.362    -3061961.257 6  -2385938.41721        13.250           0.531
  20440308.167     -855794.165 7   -666852.11022        20.750           1.750
 91  5 20 18  7 59.9990000  0  4G18G16G11G19
  20570652.769      541698.871 7    422102.32022        27.750           2.344
  23854760.940    -1292476.570 5   -828989.48221         8.500           0.406
  23681297.589    -3107574.010 6  -2421480.73521        13.750           0.438
  20438006.105     -867897.169 7   -676283.02022        20.500           1.656
 91  5 20 18  8 14.9990000  0  4G18G16G11G19
  20572821.276      553097.541 7    430984.37822        27.750           2.344
  23846575.151    -1335513.185 5   -862524.47621         8.750           0.375
  23672632.792    -3153109.680 6  -2456963.00321        13.250           0.594
  20435710.409     -879962.002 7   -685684.18122        20.750           1.688
 91  5 20 18  8 29.9990000  0  4G18G16G11G19
  20575008.370      564590.012 7    439939.52922        27.750           2.281
  23838399.698    -1378448.979 5   -895980.91721         8.000           0.375
  23663980.612    -3198565.753 6  -2492383.22821        13.250           0.531
  20433420.214     -891986.710 7   -695054.07822        21.250           1.625
 91  5 20 18  8 44.9990000  0  4G18G16G11G19
  20577213.237      576178.690 7    448969.64022        27.750           2.406
  23830252.183    -1421281.076 5   -929356.53921         8.750           0.406
  23655347.151    -3243939.299 6  -2527739.15521        12.750           0.563
  20431141.144     -903968.725 7   -704390.70622        21.000           1.656
 91  5 20 18  8 59.9990000  0  4G18G16G11G19
  20579436.886      587862.588 7    458073.95622        27.750           2.313
  23822123.308    -1464010.301 5   -962652.02021         8.750           0.406
  23646729.292    -3289230.974 6  -2563031.29021        13.500           0.656
  20428868.058     -915908.932 7   -713694.76522        21.250           1.719
 91  5 20 18  9 14.9990000  0  4G18G16G11G19
  20581680.894      599652.574 7    467260.93022        27.500           2.281
  23814011.940    -1506625.689 5   -995858.77721         8.250           0.344
  23638128.698    -3334429.675 6  -2598250.97621        14.000           0.500
  20426607.261     -927796.691 7   -722957.94622        20.750           1.625
 91  5 20 18  9 29.9990000  0  4G18G16G11G19
  20583944.409      611553.907 7    476534.67022        27.000           2.344
  23805925.503    -1549121.753 5  -1028972.56221         8.750           0.344
  23629546.800    -3379529.659 6  -2633393.73721        14.000           0.594
  20424354.737     -939626.722 7   -732176.14822        21.500           1.625
 91  5 20 18  9 44.9990000  0  4G18G16G11G19
  20586233.331      623578.296 7    485904.30722        27.250           2.313
  23797865.855    -1591486.054 5  -1061983.66421         9.000           0.313
  23620984.901    -3424518.614 6  -2668449.98621        13.250           0.469
  20422118.472     -951387.018 7   -741340.00622        21.000           1.656
 91  5 20 18  9 59.9990000  0  4G18G16G11G19
  20588544.917      635721.627 7    495366.61422        27.500           2.344
  23789825.386    -1633722.690 5  -1094895.32121         9.000           0.313
  23612444.065    -3469400.249 6  -2703422.61621        13.500           0.438
  20419891.159     -963081.687 7   -750452.73722        21.250           1.719
 91  5 20 18 10 14.9990000  0  4G18G16G11G19
  20590878.472      647985.556 7    504922.89922        27.750           2.344
  23781810.315    -1675829.622 5  -1127705.87021         9.000           0.250
  23603924.089    -3514172.392 6  -2738309.92421        13.250           0.563
  20417680.433     -974709.110 7   -759513.06322        21.000           1.531
 91  5 20 18 10 29.9990000  0  4G18G16G11G19
  20593233.378      660362.877 7    514567.54022        27.250           2.344
  23773824.019    -1717813.850 5  -1160420.85121         9.500           0.250
  23595425.495    -3558841.984 6  -2773117.29921        13.000           0.563
  20415478.347     -986276.539 7   -768526.63722        20.750           1.656
 91  5 20 18 10 44.9990000  0  4G18G16G11G19
  20595607.823      672843.812 7    524292.92022        27.250           2.375
  23765851.167    -1759684.414 5  -1193047.24121         9.500           0.313
  23586941.589    -3603417.954 6  -2807851.74321        13.000           0.625
  20413286.987     -997793.288 7   -777500.72222        21.000           1.594
 91  5 20 18 10 59.9990000  0  4G18G16G11G19
  20598003.401      685427.518 7    534098.38522        27.250           2.406
  23757908.362    -1801442.496 5  -1225585.97721        10.000           0.313
  23578476.362    -3647900.983 6  -2842513.77121        13.500           0.469
  20411101.940    -1009260.429 7   -786436.16022        21.500           1.594
 91  5 20 18 11 14.9990000  0  4G18G16G11G19
  20600414.784      698102.038 7    543974.61922        27.000           2.281
  23749984.519    -1843099.760 5  -1258046.15921        10.500           0.188
  23570027.112    -3692302.896 6  -2877112.58321        14.000           0.625
  20408930.737    -1020690.254 7   -795342.50922        20.750           1.594
 91  5 20 18 11 29.9990000  0  4G18G16G11G19
  20602843.472      710865.469 7    553920.12122        26.750           2.281
  23742076.448    -1884657.496 5  -1290428.79321        11.500           0.250
  23561593.495    -3736624.656 6  -2911648.93321        13.250           0.406
  20406762.401    -1032083.996 7   -804220.74522        20.500           1.594
 91  5 20 18 11 44.9990000  0  4G18G16G11G19
  20605292.753      723734.836 7    563948.17622        26.750           2.375
  23734189.011    -1926098.563 6  -1322720.52921        12.000           0.250
  23553177.644    -3780849.006 6  -2946109.37321        13.750           0.531
  20404603.386    -1043424.984 7   -813057.87422        20.750           1.563
 91  5 20 18 11 59.9990000  0  4G18G16G11G19
  20607763.894      736719.482 7    574066.06222        27.000           2.344
  23726327.667    -1967412.960 5  -1354913.53821        11.750           0.188
  23544783.245    -3824965.948 6  -2980486.13821        14.000           0.438
  20402457.136    -1054703.727 7   -821846.50522        20.250           1.531
 91  5 20 18 12 14.9990000  0  4G18G16G11G19
  20610256.776      749816.910 7    584271.82722        26.750           2.250
  23718489.784    -2008603.140 5  -1387009.76821        11.500           0.188
  23536406.597    -3868977.721 6  -3014780.94321        13.750           0.563
  20400322.886    -1065922.666 7   -830588.53122        20.500           1.625
 91  5 20 18 12 29.9990000  0  4G18G16G11G19
  20612770.714      763029.093 7    594567.01022        26.500           2.313
  23710675.612    -2049666.784 5  -1419007.41821        11.750           0.313
  23528050.378    -3912881.965 6  -3048991.96121        13.750           0.594
  20398197.198    -1077079.852 7   -839282.44221        21.500           1.469
 91  5 20 18 12 44.9990000  0  4G18G16G11G19
  20615305.370      776348.748 7    604945.94122        26.750           2.313
  23702880.808    -2090610.795 5  -1450911.83621        11.000           0.250
  23519717.065    -3956685.736 6  -3083124.68321        14.000           0.531
  20396086.464    -1088182.752 7   -847934.04922        20.500           1.563
 91  5 20 18 12 59.9990000  0  4G18G16G11G19
  20617859.542      789770.944 7    615404.77322        26.500           2.375
  23695111.776    -2131440.029 5  -1482726.82221        11.250           0.250
  23511398.917    -4000393.187 6  -3117182.37221        13.750           0.563
  20393984.003    -1099235.860 7   -856546.86322        20.000           1.531
 91  5 20 18 13 14.9990000  0  4G18G16G11G19
  20620430.808      803288.069 7    625937.57322        26.250           2.406
  23687361.683    -2172161.854 5  -1514458.11521        11.250           0.188
  23503098.956    -4044011.541 6  -3151170.61321        14.000           0.531
  20391887.276    -1110246.910 7   -865126.89822        20.500           1.531
 91  5 20 18 13 29.9990000  0  4G18G16G11G19
  20623022.230      816902.173 7    636545.94022        26.250           2.438
  23679636.105    -2212774.174 5  -1546104.06821        11.500           0.281
  23494814.550    -4087538.532 6  -3185087.68021        14.000           0.500
  20389802.472    -1121213.885 7   -873672.59322        20.250           1.594
 91  5 20 18 13 44.9990000  0  4G18G16G11G19
  20625630.323      830611.358 7    647228.40022        26.000           2.406
  23671929.222    -2253278.046 5  -1577665.51321        11.000           0.188
  23486551.128    -4130975.492 6  -3218934.57821        14.000           0.500
  20387722.487    -1132138.319 7   -882185.13722        20.500           1.563
 91  5 20 18 13 59.9990000  0  4G18G16G11G19
  20628257.276      844418.040 7    657986.82922        26.000           2.344
  23664242.526    -2293670.835 5  -1609140.42521        11.500           0.219
  23478302.448    -4174319.572 6  -3252709.09021        14.000           0.500
  20385653.370    -1143017.786 7   -890662.63922        20.000           1.500
 91  5 20 18 14 14.9990000  0  4G18G16G11G19
  20630905.433      858326.792 7    668824.79122        26.250           2.313
  23656575.964    -2333947.570 5  -1640524.85921        11.000           0.219
  23470072.050    -4217565.380 6  -3286407.04921        13.750           0.500
  20383591.230    -1153847.595 7   -899101.45222        20.500           1.531
 91  5 20 18 14 29.9990000  0  4G18G16G11G19
  20633573.386      872348.312 7    679750.62022        26.000           2.344
  23648939.112    -2374097.836 5  -1671810.80721        11.500           0.125
  23461863.198    -4260702.213 6  -3320020.08321        13.750           0.469
  20381539.120    -1164617.275 7   -907493.41222        21.000           1.656
 91  5 20 18 14 44.9990000  0  4G18G16G11G19
  20636264.440      886487.061 7    690767.80622        26.000           2.406
  23641324.667    -2414116.471 5  -1702994.13521        11.250           0.250
  23453676.534    -4303724.976 6  -3353544.24221        13.500           0.500
  20379504.698    -1175322.114 7   -915834.84122        20.500           1.688
 91  5 20 18 14 59.9990000  0  4G18G16G11G19
  20638977.269      900745.979 7    701878.62722        26.000           2.375
  23633732.237    -2454000.142 5  -1734072.32621        10.750           0.250
  23445511.214    -4346630.182 6  -3386976.79821        14.500           0.406
  20377479.261    -1185959.005 7   -924123.32522        21.000           1.563
 91  5 20 18 15 14.9990000  0  4G18G16G11G19
  20641712.159      915117.878 7    713077.48322        25.750           2.281
  23626168.870    -2493755.749 5  -1765050.72221        11.250           0.281
  23437367.847    -4389424.716 6  -3420323.10621        14.500           0.563
  20375467.253    -1196535.348 7   -932364.62822        20.500           1.531
 91  5 20 18 15 29.9990000  0  4G18G16G11G19
  20644470.464      929607.396 7    724367.99222        26.000           2.438
  23618628.565    -2533378.552 5  -1795925.61821        11.250           0.219
  23429245.269    -4432103.582 6  -3453579.28421        14.250           0.563
  20373466.862    -1207046.416 7   -940555.07022        20.750           1.500
 91  5 20 18 15 44.9990000  0  4G18G16G11G19
  20647249.136      944212.522 7    735748.58422        25.750           2.219
  23611111.245    -2572870.069 5  -1826698.21521        10.750           0.313
  23421146.894    -4474668.236 6  -3486746.47921        14.500           0.531
  20371478.870    -1217494.064 7   -948696.09522        20.000           1.531
 91  5 20 18 15 59.9990000  0  4G18G16G11G19
  20650047.667      958928.539 7    747215.58322        25.500           2.250
  23603626.011    -2612234.898 6  -1857372.08421        12.250           0.313
  23413067.112    -4517123.087 6  -3519828.11421        15.000           0.563
  20369501.034    -1227883.098 7   -956791.44822        20.250           1.656
 91  5 20 18 16 14.9990000  0  4G18G16G11G19
  20652870.159      973753.258 7    758767.28622        25.750           2.281
  23596156.683    -2651474.918 5  -1887948.70721        11.500           0.250
  23405009.198    -4559469.852 6  -3552825.51721        15.500           0.531
  20367536.440    -1238215.470 7   -964842.63822        20.000           1.688
 91  5 20 18 16 29.9990000  0  4G18G16G11G19
  20655711.784      988684.504 7    770401.99822        25.750           2.375
  23588712.495    -2690591.882 5  -1918429.44321        11.000           0.250
  23396972.425    -4601709.972 6  -3585739.81621        15.750           0.500
  20365582.448    -1248493.221 6   -972851.27122        19.750           1.500
 91  5 20 18 16 44.9990000  0  4G18G16G11G19
  20658571.831     1003713.505 7    782112.88322        26.250           2.406
  23581287.503    -2729594.335 5  -1948820.96021        10.750           0.250
  23388950.206    -4643851.989 6  -3618577.67721        15.250           0.438
  20363633.183    -1258725.215 6   -980824.24922        19.750           1.656
 91  5 20 18 16 59.9990000  0  4G18G16G11G19
  20661448.042     1018834.950 7    793895.80222        25.500           2.438
  23573888.323    -2768487.631 5  -1979127.41721        11.250           0.219
  23380949.378    -4685900.955 6  -3651343.02821        15.750           0.469
  20361693.448    -1268916.811 7   -988765.74721        20.250           1.469
 91  5 20 18 17 14.9990000  0  4G18G16G11G19
  20664344.698     1034052.555 7    805753.65022        25.500           2.406
  23566509.722    -2807267.648 5  -2009345.60721        11.000           0.313
  23372968.136    -4727852.273 6  -3684032.30021        15.750           0.531
  20359762.901    -1279063.730 7   -996672.43522        20.000           1.563
 91  5 20 18 17 29.9990000  0  4G18G16G11G19
  20667257.948     1049362.153 7    817683.17322        25.500           2.438
  23559150.409    -2845938.305 5  -2039478.58421        11.000           0.375
  23365003.956    -4769710.034 6  -3716648.68021        16.000           0.594
  20357839.175    -1289170.353 7  -1004547.72022        20.000           1.594
 91  5 20 18 17 44.9990000  0  4G18G16G11G19
  20670190.097     1064768.569 7    829688.14022        25.500           2.344
  23551813.378    -2884493.822 5  -2069521.82121        11.000           0.313
  23357055.995    -4811468.708 6  -3749187.83621        15.500           0.469
  20355926.542    -1299231.688 6  -1012387.72022        19.750           1.531
 91  5 20 18 17 59.9990000  0  4G18G16G11G19
  20673140.628     1080275.608 7    841771.51722        25.500           2.438
  23544497.167    -2922930.363 5  -2099472.37521        10.250           0.250
  23349129.995    -4853124.267 6  -3781646.63921        15.500           0.625
  20354018.378    -1309244.222 7  -1020189.69522        20.000           1.656
 91  5 20 18 18 14.9990000  0  4G18G16G11G19
  20676112.237     1095892.440 7    853940.45022        25.750           2.375
  23537207.144    -2961238.905 5  -2129323.19921        10.000           0.250
  23341223.550    -4894667.274 6  -3814017.74021        15.000           0.563
  20352126.112    -1319198.672 6  -1027946.41322        19.750           1.656
 91  5 20 18 18 29.9990000  0  4G18G16G11G19
  20679107.433     1111627.939 7    866201.84822        26.000           2.469
  23529944.128    -2999409.990 5  -2159066.89121        10.250           0.281
  23333341.628    -4936087.992 6  -3846293.55321        15.500           0.625
  20350245.276    -1329085.740 7  -1035650.62322        20.000           1.594
 91  5 20 18 18 44.9990000  0  4G18G16G11G19
  20682125.370     1127486.557 7    878559.18323        26.250           2.500
  23522707.464    -3037439.046 5  -2188699.89321        10.000           0.250
  23325483.847    -4977381.807 6  -3878470.48721        15.750           0.531
  20348378.042    -1338901.154 7  -1043298.99722        20.000           1.688
 91  5 20 18 18 59.9990000  0  4G18G16G11G19
  20685165.714     1143465.761 7    891010.48222        25.750           2.406
  23515499.894    -3075328.301 5  -2218224.00921        10.500           0.219
  23317650.542    -5018550.761 6  -3910550.13621        15.750           0.594
  20346520.894    -1348647.239 7  -1050893.34322        20.500           1.625
 91  5 20 18 19 14.9990000  0  4G18G16G11G19
  20688229.831     1159566.586 7    903556.55022        26.000           2.469
  23508315.972    -3113076.121 5  -2247637.86921        10.000           0.281
  23309838.269    -5059593.267 6  -3942531.22321        15.500           0.563
  20344680.339    -1358322.851 6  -1058432.78122        19.750           1.625
 91  5 20 18 19 29.9990000  0  4G18G16G11G19
  20691316.003     1175780.979 7    916191.10522        26.250           2.406
  23501160.011    -3150690.575 5  -2276947.80021        10.250           0.313
  23302049.292    -5100516.851 6  -3974419.67621        15.250           0.594
  20342851.019    -1367936.153 7  -1065923.66922        20.000           1.500
 91  5 20 18 19 44.9990000  0  4G18G16G11G19
  20694419.331     1192090.632 7    928899.89022        26.250           2.406
  23494023.933    -3188189.448 5  -2306167.71821        10.250           0.375
  23294282.237    -5141339.548 6  -4006229.50221        15.250           0.531
  20341030.667    -1377505.228 6  -1073380.08722        19.500           1.594
 91  5 20 18 19 59.9990000  0  5G18G16G11G 6G19
  20697538.878     1208489.983 7    941678.57422        25.750           2.469
  23486904.081    -3225578.380 5  -2335301.92721         9.750           0.375
  23286533.870    -5182066.486 6  -4037964.70321        15.750           0.563
  24106092.128          -0.26714                         6.250
  20339216.472    -1387035.473 7  -1080806.25322        20.000           1.594
 91  5 20 18 20 14.9990000  0  5G18G16G11G 6G19
  20700678.597     1224982.093 7    954529.53722        26.000           2.469
  23479811.456    -3262853.886 5  -2364347.77421         9.750           0.438
  23278802.190    -5222694.213 6  -4069622.60021        15.500           0.625
  24096831.237      -48653.484 4                         6.500
  20337412.089    -1396523.839 6  -1088199.77922        19.500           1.563
 91  5 20 18 20 29.9990000  0  5G18G16G11G 6G19
  20703833.714     1241567.666 7    967453.32122        26.000           2.406
  23472744.058    -3300014.874 5  -2393304.38021        10.250           0.438
  23271088.323    -5263221.392 6  -4101202.15721        15.000           0.563
  24087578.050      -97293.858 4                         7.000
  20335614.636    -1405969.606 6  -1095560.11722        19.250           1.563
 91  5 20 18 20 44.9990000  0  5G18G16G11G 6G19
  20707007.925     1258244.625 7    980448.32022        26.000           2.438
  23465692.112    -3337063.182 5  -2422173.18421         9.500           0.469
  23263396.964    -5303649.801 6  -4132704.74621        15.750           0.625
  24078319.995     -145923.457 4                         6.250
  20333825.105    -1415374.753 6  -1102888.80022        19.500           1.625
 91  5 20 18 20 59.9990000  0  5G18G16G11G 6G19
  20710196.909     1275008.820 7    993511.29723        25.500           2.531
  23458662.792    -3374002.520 5  -2450957.08821        10.250           0.375
  23255721.870    -5343983.068 6  -4164133.20721        16.250           0.625
  24069068.714     -194546.313 4                         6.750
  20332039.808    -1424743.230 6  -1110188.91122        19.500           1.594
 91  5 20 18 21 14.9990000  0  5G18G16G11G 6G19
  20713404.909     1291861.838 7   1006643.49122        25.750           2.406
  23451650.284    -3410831.282 5  -2479654.83221         9.500           0.469
  23248066.581    -5384219.150 6  -4195485.91721        16.250           0.656
  24059817.433     -243160.766 3        -0.31731         6.000           0.250
  20330266.198    -1434073.344 6  -1117459.13222        19.250           1.656
 91  5 20 18 21 29.9990000  0  5G18G16G11G 6G19
  20716628.112     1308801.053 7   1019842.84623        26.000           2.531
  23444662.620    -3447551.636 5  -2508268.08821         9.750           0.469
  23240426.605    -5424360.251 6  -4226764.63121        15.750           0.719
  24050568.894     -291769.386 4    -37877.07521         6.750           0.156
  20328495.659    -1443367.868 6  -1124701.61322        19.500           1.531
 91  5 20 18 21 44.9990000  0  5G18G16G11G 6G19
  20719870.089     1325834.636 7   1033115.73223        26.000           2.531
  23437698.698    -3484155.002 5  -2536790.18721        10.250           0.563
  23232806.589    -5464397.652 6  -4257962.53721        15.750           0.563
  24041322.753     -340363.887 4    -75742.84921         7.000           0.281
  20326737.011    -1452618.330 6  -1131909.76722        19.250           1.563
 91  5 20 18 21 59.9990000  0  5G18G16G11G 6G19
  20723128.323     1342960.740 7   1046460.71223        25.750           2.531
  23430753.855    -3520643.156 5  -2565222.52221        10.000           0.531
  23225206.065    -5504333.110 6  -4289081.01821        15.250           0.594
  24032078.214     -388946.280 4   -113599.11921         6.500           0.156
  20324983.167    -1461826.889 6  -1139085.26722        19.750           1.594
 91  5 20 18 22 14.9990000  0  5G18G16G11G 6G19
  20726406.034     1360185.852 7   1059882.84223        25.500           2.531
  23423838.362    -3557009.127 5  -2593559.64421        10.250           0.500
  23217627.714    -5544159.290 6  -4320114.34221        15.500           0.594
  24022836.198     -437509.492 5   -151440.49421         7.500           0.156
  20323242.956    -1470986.540 6  -1146222.66122        19.250           1.625
 91  5 20 18 22 29.9990000  0  5G18G16G11G 6G19
  20729703.839     1377511.853 7   1073383.58923        25.750           2.563
  23416944.198    -3593250.761 5  -2621799.87421        11.000           0.500
  23210071.120    -5583874.004 6  -4351060.79021        15.500           0.625
  24013594.011     -486051.872 3   -189265.67521         6.000           0.344
  20321507.534    -1480095.360 6  -1153320.44222        19.750           1.563
 91  5 20 18 22 44.9990000  0  5G18G16G11G 6G19
  20733020.644     1394937.467 7   1086961.95622        26.250           2.469
  23410066.605    -3629369.221 5  -2649944.14021        10.250           0.469
  23202532.730    -5623477.989 6  -4381920.97521        15.250           0.719
  24004362.839     -534574.531 4   -227075.38021         7.000           0.250
  20319784.589    -1489154.226 6  -1160379.29522        19.500           1.563
 91  5 20 18 22 59.9990000  0  5G18G16G11G 6G19
  20736353.394     1412457.315 7   1100613.74423        25.750           2.625
  23403215.440    -3665369.768 5  -2677996.50121        10.000           0.438
  23195017.987    -5662976.417 6  -4412698.90721        15.500           0.719
  23995134.815     -583082.960 5   -264874.07021         7.500           0.219
  20318069.331    -1498168.681 6  -1167403.55122        19.250           1.594
 91  5 20 18 23 14.9990000  0  5G18G16G11G 6G19
  20739707.940     1430077.135 7   1114343.43923        26.250           2.531
  23396387.440    -3701246.341 5  -2705952.27321        10.000           0.406
  23187522.261    -5702363.126 6  -4443389.78121        14.750           0.563
  23985905.519     -631571.349 4   -302657.17121         6.750           0.188
  20316363.222    -1507133.073 6  -1174388.79022        19.250           1.531
 91  5 20 18 23 29.9990000  0  5G18G16G11G 6G19
  20743078.878     1447797.820 7   1128151.72623        26.250           2.500
  23389587.542    -3736997.418 5  -2733810.24821        10.500           0.438
  23180049.870    -5741636.783 6  -4473992.57121        15.500           0.594
  23976684.073     -680038.720 5   -340423.83921         7.750           0.344
  20314665.831    -1516046.376 7  -1181334.22622        20.250           1.531
 91  5 20 18 23 44.9990000  0  5G18G16G11G 6G19
  20746471.081     1465620.965 7   1142039.85123        26.250           2.594
  23382807.151    -3772621.088 5  -2761568.95421         9.750           0.469
  23172597.753    -5780795.037 6  -4504505.41721        15.500           0.594
  23967464.347     -728483.048 5   -378172.56321         7.500           0.219
  20312981.175    -1524906.648 6  -1188238.33622        19.500           1.531
 91  5 20 18 23 59.9990000  0  5G18G16G11G 6G19
  20749880.886     1483542.121 7   1156004.34923        25.750           2.563
  23376053.800    -3808121.772 5  -2789231.81021        10.250           0.500
  23165169.534    -5819842.056 6  -4534931.59221        15.750           0.688
  23958249.526     -776909.030 5   -415907.00221         7.500           0.313
  20311305.800    -1533718.273 6  -1195104.54322        19.500           1.563
 91  5 20 18 24 14.9990000  0  5G18G16G11G 6G19
  20753308.151     1501554.034 7   1170039.56922        26.000           2.469
  23369319.987    -3843506.879 5  -2816804.62221        10.250           0.438
  23157756.128    -5858784.840 6  -4565276.55321        15.500           0.750
  23949036.128     -825323.894 5   -453632.77221         8.250           0.313
  20309635.698    -1542488.578 6  -1201938.54722        19.500           1.594
 91  5 20 18 24 29.9990000  0  5G18G16G11G 6G19
  20756756.019     1519667.473 7   1184153.90322        26.250           2.469
  23362606.690    -3878764.788 5  -2844278.30821         9.750           0.406
  23150368.206    -5897612.043 6  -4595531.44321        16.000           0.656
  23939828.894     -873716.647 5   -491341.30821         8.000           0.281
  20307976.690    -1551206.693 6  -1208731.88522        19.000           1.531
 91  5 20 18 24 44.9990000  0  5G18G16G11G 6G19
  20760221.003     1537879.204 7   1198344.82523        26.000           2.531
  23355923.495    -3913898.227 5  -2871654.99921         9.750           0.438
  23143001.940    -5936326.412 6  -4625698.42521        16.000           0.656
  23930622.019     -922090.410 5   -529035.07221         8.250           0.250
  20306326.519    -1559875.775 6  -1215487.00922        19.250           1.531
 91  5 20 18 24 59.9990000  0  5G18G16G11G 6G19
  20763702.519     1556175.220 7   1212601.42322        25.500           2.406
  23349259.644    -3948921.135 5  -2898945.56621        10.000           0.375
  23135654.159    -5974941.432 6  -4655787.97221        16.750           0.688
  23921419.230     -970459.109 5   -566724.89021         7.750           0.344
  20304680.886    -1568509.661 7  -1222214.71622        20.250           1.563
 91  5 20 18 25 14.9990000  0  5G18G16G11G 6G19
  20767201.690     1574566.910 7   1226932.57222        25.500           2.469
  23342617.761    -3983822.024 5  -2926141.06921        10.000           0.344
  23128326.620    -6013445.410 6  -4685791.01721        16.250           0.625
  23912213.870    -1018811.359 5   -604401.83221         7.750           0.344
  20303050.409    -1577096.874 6  -1228906.04922        19.750           1.656
 91  5 20 18 25 29.9980000  0  5G18G16G11G 6G19
  20770720.514     1593050.338 7   1241335.20722        26.000           2.406
  23335997.037    -4018601.160 5  -2953241.67821         9.750           0.313
  23121020.178    -6051837.993 6  -4715707.25421        15.750           0.594
  23903019.123    -1067146.390 5   -642065.40221         8.750           0.250
  20301424.592    -1585639.388 6  -1235562.55822        19.000           1.625
 91  5 20 18 25 44.9980000  0  5G18G16G11G 6G19
  20774255.678     1611629.252 7   1255812.23922        26.250           2.406
  23329402.529    -4053261.393 5  -2980249.63521        10.250           0.344
  23113732.889    -6090122.780 6  -4745539.49021        15.000           0.656
  23893822.342    -1115469.489 5   -679719.71621         7.500           0.313
  20299807.209    -1594137.166 6  -1242184.20322        19.750           1.594
 91  5 20 18 25 59.9980000  0  5G18G16G11G 6G19
  20777809.162     1630309.478 7   1270368.22622        26.000           2.469
  23322834.272    -4087792.882 5  -3007157.28721        10.750           0.500
  23106470.678    -6128289.440 6  -4775279.67721        15.500           0.688
  23884631.881    -1163770.092 5   -717356.39721         8.250           0.281
  20298201.889    -1602582.051 6  -1248764.63422        19.250           1.625
 91  5 20 18 26 14.9980000  0  5G18G16G11G 6G19
  20781383.490     1649088.326 7   1285001.05923        25.500           2.531
  23316288.053    -4122198.246 5  -3033966.65621        10.750           0.375
  23099231.537    -6166340.389 6  -4804929.71021        16.500           0.625
  23875443.732    -1212050.919 5   -754977.76521         8.250           0.281
  20296603.529    -1610976.859 6  -1255306.04622        19.750           1.656
 91  5 20 18 26 29.9980000  0  5G18G16G11G 6G19
  20784976.256     1667969.756 7   1299713.82422        26.250           2.406
  23309763.490    -4156473.218 5  -3060674.42121        10.750           0.438
  23092013.068    -6204271.214 6  -4834486.13921        16.250           0.656
  23866262.615    -1260307.986 5   -792580.55621         7.750           0.344
  20295017.139    -1619317.584 6  -1261805.31722        19.500           1.625
 91  5 20 18 26 44.9980000  0  5G18G16G11G 6G19
  20788589.217     1686954.041 7   1314506.73622        26.500           2.438
  23303267.850    -4190616.989 5  -3087279.95721        10.750           0.406
  23084817.037    -6242080.966 6  -4863948.22521        15.500           0.688
  23857081.467    -1308540.632 5   -830164.34321         8.000           0.219
  20293439.068    -1627603.614 6  -1268261.96722        19.750           1.531
 91  5 20 18 26 59.9980000  0  5G18G16G11G 6G19
  20792219.600     1706033.047 7   1329373.45922        25.750           2.438
  23296792.428    -4224637.596 5  -3113789.51221        11.000           0.469
  23077646.318    -6279777.549 6  -4893322.12121        16.000           0.750
  23847904.904    -1356757.133 4   -867735.53621         7.250           0.250
  20291868.584    -1635843.057 7  -1274682.31622        20.750           1.531
 91  5 20 18 27 14.9980000  0  5G18G16G11G 6G19
  20795868.107     1725205.097 7   1344312.68523        25.500           2.531
  23290342.522    -4258536.663 5  -3140204.36221        10.750           0.375
  23070492.201    -6317362.230 6  -4922608.82221        16.000           0.625
  23838735.865    -1404958.899 5   -905295.27721         8.250           0.344
  20290311.561    -1644037.476 6  -1281067.58022        19.500           1.719
 91  5 20 18 27 29.9980000  0  5G18G16G11G 6G19
  20799531.561     1744462.777 7   1359318.63222        26.000           2.375
  23283911.037    -4292321.207 5  -3166529.96421        10.750           0.406
  23063360.795    -6354841.989 6  -4951813.75521        16.000           0.688
  23829561.482    -1453153.511 4   -942849.40021         7.250           0.219
  20288758.451    -1652194.274 7  -1287423.52422        20.500           1.594
 91  5 20 18 27 44.9980000  0  5G18G16G11G 6G19
  20803213.756     1763804.324 7   1374389.93722        26.250           2.438
  23277505.115    -4325992.826 5  -3192767.58921        10.750           0.406
  23056246.639    -6392218.224 6  -4980938.03221        16.000           0.688
  23820393.740    -1501342.666 5   -980399.29521         8.000           0.219
  20287213.607    -1660315.288 6  -1293751.58922        19.500           1.656
 91  5 20 18 27 59.9980000  0  5G18G16G11G 6G19
  20806911.107     1783236.403 7   1389531.77723        25.750           2.500
  23271121.412    -4359544.168 5  -3218911.48521        10.750           0.406
  23049157.147    -6429483.690 6  -5009976.00121        15.750           0.656
  23811225.162    -1549519.303 4  -1017939.44921         7.250           0.281
  20285675.240    -1668393.361 7  -1300046.19422        20.000           1.625
 91  5 20 18 28 14.9980000  0  5G18G16G11G 6G19
  20810624.772     1802755.042 7   1404741.06422        26.000           2.313
  23264759.014    -4392979.274 5  -3244964.81321        10.750           0.406
  23042084.686    -6466641.964 6  -5038930.43921        16.000           0.688
  23802057.826    -1597687.450 5  -1055472.94521         7.750           0.219
  20284146.428    -1676432.360 6  -1306310.34922        19.750           1.688
 91  5 20 18 28 29.9980000  0  5G18G16G11G 6G19
  20814358.186     1822367.351 7   1420023.35022        26.250           2.375
  23258421.357    -4426290.749 5  -3270921.80421        10.750           0.406
  23035035.678    -6503685.416 6  -5067795.40621        15.750           0.719
  23792895.725    -1645839.733 4  -1092994.14621         7.250           0.344
  20282625.193    -1684425.097 7  -1312538.45722        20.000           1.531
 91  5 20 18 28 44.9980000  0  5G18G16G11G 6G19
  20818108.397     1842074.367 7   1435379.43122        26.000           2.344
  23252102.389    -4459477.028 5  -3296781.23821        10.500           0.375
  23028009.170    -6540612.571 6  -5096569.75821        16.250           0.656
  23783736.420    -1693975.110 5  -1130502.10621         7.750           0.281
  20281115.576    -1692370.555 6  -1318729.72422        19.750           1.594
 91  5 20 18 28 59.9980000  0  5G18G16G11G 6G19
  20821875.740     1861872.954 7   1450806.86222        26.000           2.281
  23245811.897    -4492541.059 5  -3322545.42521        10.000           0.438
  23021004.850    -6577426.001 6  -5125255.49221        16.750           0.750
  23774579.920    -1742096.471 4  -1167999.18221         7.250           0.188
  20279610.850    -1700271.591 6  -1324886.37422        19.250           1.625
 91  5 20 18 29 14.9980000  0  5G18G16G11G 6G19
  20825659.631     1881759.952 7   1466303.18222        26.000           2.438
  23239541.490    -4525486.126 5  -3348216.89821         9.750           0.281
  23014019.584    -6614128.902 6  -5153855.09721        16.250           0.750
  23765423.178    -1790207.368 5  -1205488.08221         7.500           0.313
  20278115.232    -1708131.439 6  -1331010.93322        19.750           1.594
 91  5 20 18 29 29.9980000  0  5G18G16G11G 6G19
  20829460.154     1901731.076 7   1481865.05422        25.750           2.281
  23233293.006    -4558315.794 5  -3373798.45821         9.500           0.344
  23007055.482    -6650725.009 6  -5182371.47721        15.750           0.719
  23756268.842    -1838311.843 5  -1242972.01021         7.500           0.219
  20276625.404    -1715954.327 7  -1337106.68922        20.000           1.625
 91  5 20 18 29 44.9980000  0  5G18G16G11G 6G19
  20833278.123     1921795.738 7   1497499.82022        25.750           2.281
  23227072.225    -4591020.568 5  -3399282.68821         9.750           0.313
  23000113.115    -6687204.438 6  -5210796.95421        16.500           0.688
  23747116.709    -1886400.221 4  -1280443.35421         7.250           0.281
  20275147.654    -1723730.529 7  -1343166.07322        20.000           1.781
 91  5 20 18 29 59.9980000  0  5G18G16G11G 6G19
  20837113.717     1941946.950 7   1513202.02222        26.000           2.313
  23220870.076    -4623607.235 5  -3424674.90221         9.000           0.406
  22993192.522    -6723573.536 6  -5239136.46321        16.250           0.625
  23737968.334    -1934479.322 4  -1317907.50021         7.250           0.281
  20273674.389    -1731466.646 7  -1349194.21422        20.250           1.688
 91  5 20 18 30 14.9980000  0  5G18G16G11G 6G19
  20840965.209     1962195.483 7   1528980.05922        25.750           2.406
  23214692.092    -4656064.430 5  -3449966.20021         9.250           0.406
  22986294.193    -6759821.205 6  -5267381.32421        16.750           0.656
  23728822.326    -1982538.440 5  -1355356.06421         7.500           0.281
  20272212.272    -1739152.242 6  -1355182.99222        19.750           1.688
 91  5 20 18 30 29.9980000  0  5G18G16G11G 6G19
  20844836.482     1982532.305 7   1544826.89922        26.000           2.281
  23208539.834    -4688401.335 5  -3475163.79321         9.500           0.375
  22979417.303    -6795956.013 6  -5295538.26521        16.000           0.719
  23719682.592    -2030586.439 5  -1392795.96621         7.750           0.281
  20270755.803    -1746796.250 7  -1361139.36622        20.000           1.594
 91  5 20 18 30 44.9980000  0  5G18G16G11G 6G19
  20848723.936     2002960.891 7   1560745.23122        26.000           2.281
  23202410.678    -4720614.295 5  -3500264.79821         9.250           0.344
  22972564.764    -6831974.181 6  -5323604.30821        16.250           0.625
  23710539.662    -2078619.888 5  -1430224.52121         7.500           0.313
  20269311.709    -1754395.006 6  -1367060.47522        19.750           1.719
 91  5 20 18 30 59.9980000  0  5G18G16G11G 6G19
  20852626.037     2023469.806 7   1576726.15622        25.750           2.281
  23196298.357    -4752713.991 5  -3525277.52521         9.000           0.344
  22965729.881    -6867886.364 6  -5351587.78121        16.250           0.719
  23701397.389    -2126649.781 5  -1467650.31821         7.500           0.313
  20267872.623    -1761959.491 6  -1372954.88022        19.750           1.656
 91  5 20 18 31 14.9980000  0  5G18G16G11G 6G19
  20856547.389     2044073.196 7   1592780.70022        26.250           2.219
  23190217.654    -4784686.094 5  -3550190.87021         9.500           0.375
  22958918.592    -6903678.148 6  -5379477.41921        16.500           0.625
  23692262.686    -2174661.969 5  -1505062.30421         8.000           0.188
  20266441.318    -1769475.346 6  -1378811.38522        19.500           1.625
 91  5 20 18 31 29.9980000  0  5G18G16G11G 6G19
  20860485.240     2064766.329 7   1608905.17722        26.000           2.219
  23184155.701    -4816534.997 5  -3575008.18421         9.500           0.406
  22952130.170    -6939353.829 6  -5407276.61021        16.000           0.563
  23683129.943    -2222660.995 5  -1542464.05221         8.250           0.219
  20265018.256    -1776947.288 7  -1384633.68122        20.500           1.781
 91  5 20 18 31 44.9980000  0  5G18G16G11G 6G19
  20864441.795     2085553.392 7   1625102.85122        26.000           2.250
  23178124.443    -4848256.322 5  -3599726.07821        10.000           0.375
  22945364.068    -6974909.151 6  -5434981.99221        16.000           0.531
  23673997.592    -2270642.885 5  -1579852.43621         8.000           0.281
  20263606.365    -1784371.408 6  -1390418.71122        19.500           1.813
 91  5 20 18 31 59.9980000  0  5G18G16G11G 6G19
  20868413.389     2106432.028 7   1641371.87622        25.750           2.188
  23172108.279    -4879852.308 5  -3624346.33521         9.750           0.406
  22938622.084    -7010345.818 6  -5462594.92021        16.250           0.688
  23664871.162    -2318609.812 5  -1617229.16521         8.750           0.219
  20262202.592    -1791749.770 7  -1396168.08122        20.250           1.719
 91  5 20 18 32 14.9980000  0  5G18G16G11G 6G19
  20872405.600     2127404.987 7   1657714.39722        26.250           2.250
  23166120.920    -4911320.078 5  -3648866.67221        10.000           0.406
  22931899.748    -7045660.664 6  -5490112.93921        16.250           0.656
  23655745.764    -2366558.877 5  -1654591.98321         7.750           0.344
  20260808.451    -1799079.438 6  -1401879.51122        19.750           1.781
 91  5 20 18 32 29.9980000  0  5G18G16G11G 6G19
  20876416.615     2148483.967 7   1674139.53222        25.750           2.219
  23160157.037    -4942647.352 5  -3673277.52521         9.250           0.375
  22925207.412    -7080841.324 6  -5517526.38421        16.500           0.781
  23646627.951    -2414478.129 5  -1691931.54521         9.000           0.188
  20259423.803    -1806348.351 7  -1407543.59822        20.000           1.750
 91  5 20 18 32 44.9980000  0  5G18G16G11G 6G19
  20880447.240     2169672.113 7   1690649.74122        25.750           2.250
  23154223.443    -4973830.886 5  -3697576.40021         9.000           0.375
  22918537.209    -7115884.368 6  -5544832.59021        16.750           0.781
  23637516.311    -2462364.238 5  -1729245.32821         8.500           0.188
  20258054.115    -1813553.208 7  -1413157.77222        20.000           1.719
 91  5 20 18 32 59.9980000  0  5G18G16G11G 6G19
  20884501.022     2190969.866 7   1707245.34822        25.500           2.250
  23148314.561    -5004870.023 5  -3721762.73221         9.500           0.375
  22911895.615    -7150789.090 6  -5572031.02721        16.500           0.719
  23628409.115    -2510217.035 5  -1766533.10421         9.000           0.250
  20256695.881    -1820693.749 7  -1418721.83022        20.000           1.750
 91  5 20 18 33 14.9980000  0  5G18G16G11G 6G19
  20888575.107     2212379.608 7   1723928.21522        25.750           2.125
  23142436.209    -5035761.892 5  -3745834.31621         9.000           0.406
  22905280.022    -7185552.537 6  -5599119.37921        16.500           0.750
  23619311.342    -2558033.698 5  -1803792.76721         8.500           0.250
  20255350.170    -1827767.180 7  -1424233.59622        20.000           1.688
 91  5 20 18 33 29.9980000  0  5G18G16G11G 6G19
  20892668.990     2233888.615 7   1740688.43922        25.750           2.156
  23136583.647    -5066518.965 5  -3769800.87921         8.500           0.375
  22898690.475    -7220187.031 6  -5626107.25021        16.500           0.750
  23610216.295    -2605827.091 5  -1841034.26421         9.000           0.281
  20254011.975    -1834786.415 7  -1429703.12622        20.250           1.688
 91  5 20 18 33 44.9980000  0  5G18G16G11G 6G19
  20896782.272     2255506.507 7   1757533.51222        26.000           2.250
  23130763.670    -5097131.705 5  -3793654.97821         9.500           0.375
  22892125.428    -7254682.543 6  -5652986.82121        16.500           0.688
  23601127.287    -2653587.311 5  -1878249.95021         8.750           0.281
  20252690.498    -1841741.516 6  -1435122.68622        19.500           1.781
 91  5 20 18 33 59.9980000  0  5G18G16G11G 6G19
  20900916.412     2277229.725 7   1774460.65022        25.500           2.188
  23124963.318    -5127603.151 5  -3817398.94121         9.500           0.438
  22885586.022    -7289042.092 6  -5679760.44721        16.250           0.906
  23592044.264    -2701317.763 5  -1915442.40621         8.750           0.156
  20251377.889    -1848635.697 7  -1440494.77722        20.250           1.688
 91  5 20 18 34 14.9980000  0  5G18G16G11G 6G19
  20905069.732     2299055.897 7   1791468.00922        25.500           2.250
  23119192.303    -5157935.365 5  -3841034.41521         8.500           0.375
  22879073.732    -7323267.649 6  -5706429.66321        16.500           0.656
  23582965.857    -2749020.805 5  -1952613.50321         9.000           0.125
  20250077.576    -1855471.257 7  -1445821.18922        20.000           1.813
 91  5 20 18 34 29.9980000  0  5G18G16G11G 6G19
  20909241.561     2320978.402 7   1808550.43422        25.750           2.188
  23113438.217    -5188134.806 5  -3864566.48421         8.000           0.500
  22872584.756    -7357365.442 6  -5732999.33121        16.500           0.781
  23573891.295    -2796702.797 5  -1989768.23821         8.000           0.375
  20248785.607    -1862254.694 7  -1451106.98722        20.250           1.813
 91  5 20 18 34 44.9980000  0  5G18G16G11G 6G19
  20913434.475     2343005.593 7   1825714.42622        26.000           2.125
  23107725.287    -5218192.735 5  -3887988.23621         9.000           0.406
  22866122.068    -7391326.638 6  -5759462.54621        16.500           0.594
  23564823.381    -2844355.440 5  -2026900.02521         8.750           0.281
  20247508.186    -1868977.593 6  -1456345.60822        19.750           1.719
 91  5 20 18 34 59.9980000  0  5G18G16G11G 6G19
  20917643.529     2365128.206 7   1842952.78022        25.750           2.188
  23102028.811    -5248118.411 5  -3911306.95121         8.750           0.469
  22859683.428    -7425160.296 6  -5785826.38821        16.500           0.688
  23555757.725    -2891987.897 5  -2064016.19221         7.750           0.188
  20246236.303    -1875649.173 7  -1461544.24722        20.250           1.719
 91  5 20 18 35 14.9980000  0  5G18G16G11G 6G19
  20921870.404     2387345.620 7   1860264.99722        25.750           2.188
  23096361.350    -5277911.830 5  -3934522.60521         8.250           0.438
  22853271.240    -7458866.422 6  -5812090.86321        17.250           0.781
  23546701.873    -2939600.553 5  -2101116.81921         8.750           0.219
  20244978.451    -1882269.659 6  -1466703.06522        19.500           1.813
 91  5 20 18 35 29.9980000  0  5G18G16G11G 6G19
  20926117.389     2409658.320 7   1877651.47122        25.750           2.125
  23090712.553    -5307572.449 5  -3957634.79021         7.750           0.344
  22846880.732    -7492444.121 6  -5838255.26221        17.000           0.844
  23537642.240    -2987192.848 5  -2138201.67221         8.000           0.281
  20243728.170    -1888838.545 6  -1471821.68322        19.500           1.875
 91  5 20 18 35 44.9980000  0  5G18G16G11G 6G19
  20930380.061     2432064.252 7   1895110.58922        26.000           2.250
  23085094.029    -5337102.182 5  -3980644.98121         8.000           0.469
  22840515.607    -7525895.062 6  -5864320.87621        17.250           0.781
  23528591.545    -3034766.552 5  -2175271.98621         7.750           0.313
  20242487.475    -1895357.779 6  -1476901.60322        19.750           1.844
 91  5 20 18 35 59.9980000  0  5G18G16G11G 6G19
  20934664.795     2454579.366 7   1912654.79122        25.500           2.125
  23079503.295    -5366484.882 5  -4003540.58921         8.250           0.563
  22834176.373    -7559203.049 6  -5890275.11321        16.250           0.844
  23519545.045    -3082305.978 5  -2212315.59821         8.250           0.281
  20241256.811    -1901811.460 7  -1481930.45322        20.750           1.813
 91  5 20 18 36 14.9980000  0  5G18G16G11G 6G19
  20938969.029     2477194.595 7   1930276.99522        26.000           2.188
  23073937.834    -5395729.147 5  -4026328.33421         8.750           0.469
  22827863.803    -7592376.580 6  -5916124.57321        16.500           0.813
  23510498.912    -3129819.944 4  -2249339.39521         7.250           0.313
  20240042.865    -1908208.237 6  -1486914.95722        19.750           1.750
 91  5 20 18 36 29.9980000  0  5G18G16G11G 6G19
  20943290.467     2499905.013 7   1947973.37522        26.000           2.125
  23068398.865    -5424839.509 5  -4049011.71721         8.750           0.500
  22821575.803    -7625419.761 6  -5941872.47021        16.750           0.688
  23501464.998    -3177312.800 5  -2286346.71421         8.000           0.281
  20238834.943    -1914552.667 6  -1491858.66922        19.750           1.813
 91  5 20 18 36 44.9980000  0  5G18G16G11G 6G19
  20947631.201     2522712.934 7   1965745.73422        26.000           2.250
  23062886.584    -5453813.307 5  -4071588.71921         9.250           0.438
  22815313.514    -7658330.173 6  -5967516.91321        17.000           0.781
  23492431.678    -3224782.481 5  -2323335.98121         7.750           0.219
  20237639.428    -1920842.571 6  -1496759.89722        19.750           1.656
 91  5 20 18 36 59.9980000  0  5G18G16G11G 6G19
  20951988.357     2545612.375 7   1983589.40522        26.000           2.156
  23057402.256    -5482657.023 5  -4094064.34821        10.000           0.531
  22809074.037    -7691113.710 6  -5993062.48721        16.750           0.688
  23483398.779    -3272235.062 4  -2360311.92321         7.250           0.281
  20236450.389    -1927083.818 6  -1501623.20922        19.250           1.750
 91  5 20 18 37 14.9980000  0  5G18G16G11G 6G19
  20956364.740     2568612.009 7   2001511.14922        26.000           2.125
  23051936.725    -5511361.379 5  -4116431.38521         9.500           0.469
  22802862.959    -7723761.068 6  -6018501.94621        17.000           0.781
  23474376.850    -3319661.573 5  -2397267.56321         7.750           0.375
  20235274.561    -1933267.570 6  -1506441.72222        19.500           1.750
 91  5 20 18 37 29.9980000  0  5G18G16G11G 6G19
  20960758.615     2591701.664 7   2019503.03322        26.000           2.156
  23046498.662    -5539936.084 5  -4138697.37221         9.000           0.469
  22796673.490    -7756281.975 6  -6043842.88221        17.250           0.781
  23465355.311    -3367072.032 5  -2434210.67221         8.250           0.313
  20234102.842    -1939403.831 7  -1511223.23222        20.250           1.688
 91  5 20 18 37 44.9980000  0  5G18G16G11G 6G19
  20965170.154     2614883.924 7   2037567.08622        26.250           2.125
  23041086.170    -5568378.130 5  -4160860.01821         8.750           0.500
  22790509.443    -7788673.052 6  -6069082.64921        17.250           0.750
  23456333.115    -3414463.280 4  -2471138.83721         7.000           0.406
  20232947.764    -1945489.421 6  -1515965.25422        19.250           1.688
 91  5 20 18 37 59.9980000  0  5G18G16G11G 6G19
  20969598.084     2638149.792 7   2055696.28422        26.000           2.219
  23035696.428    -5596696.758 5  -4182926.49021         9.500           0.531
  22784368.701    -7820943.493 6  -6094228.42121        17.500           0.781
  23447320.232    -3461844.819 5  -2508059.42021         8.500           0.438
  20231798.482    -1951533.683 6  -1520675.07422        18.750           1.656
 91  5 20 18 38 14.9980000  0  5G18G16G11G 6G19
  20974042.529     2661507.232 7   2073896.83722        26.250           2.094
  23030334.732    -5624883.534 5  -4204890.18921         9.500           0.563
  22778252.295    -7853084.631 6  -6119273.42721        17.250           0.781
  23438306.936    -3509208.431 5  -2544966.01221         8.000           0.406
  20230656.904    -1957528.365 6  -1525346.26022        19.000           1.750
 91  5 20 18 38 29.9980000  0  5G18G16G11G 6G19
  20978504.295     2684954.658 7   2092167.51022        26.500           2.156
  23024990.482    -5652939.444 5  -4226751.95821         8.500           0.469
  22772160.850    -7885097.600 6  -6144218.55121        17.250           0.813
  23429296.045    -3556555.354 4  -2581859.65021         7.250           0.406
  20229526.404    -1963474.787 6  -1529979.83422        19.250           1.656
 91  5 20 18 38 44.9980000  0  5G18G16G11G 6G19
  20982984.522     2708494.298 7   2110510.03422        26.000           2.156
  23019682.701    -5680862.356 5  -4248510.09021         9.750           0.469
  22766093.326    -7916979.690 6  -6169061.69621        17.000           0.719
  23420290.834    -3603883.298 5  -2618738.44921         8.250           0.281
  20228404.607    -1969370.412 6  -1534573.83122        19.250           1.656
 91  5 20 18 38 59.9980000  0  5G18G16G11G 6G19
  20987480.826     2732129.750 7   2128927.22522        26.000           2.156
  23014397.584    -5708648.628 5  -4270161.71721        10.250           0.406
  22760050.686    -7948727.138 6  -6193799.93821        17.250           0.719
  23411285.889    -3651188.741 5  -2655599.73021         8.000           0.313
  20227293.748    -1975211.920 6  -1539125.66122        19.000           1.625
 91  5 20 18 39 14.9980000  0  5G18G16G11G 6G19
  20991996.232     2755850.621 7   2147410.96822        26.000           2.219
  23009131.443    -5736307.993 5  -4291714.45121         9.250           0.469
  22754033.397    -7980349.855 6  -6218440.98321        17.500           0.750
  23402288.897    -3698481.852 5  -2692451.40921         7.750           0.406
  20226188.287    -1981009.452 6  -1543643.22422        19.500           1.750
 91  5 20 18 39 29.9980000  0  5G18G16G11G 6G19
  20996527.920     2779665.515 7   2165967.97422        26.000           2.219
  23003890.350    -5763831.608 5  -4313161.43621         8.750           0.438
  22748041.967    -8011838.564 6  -6242977.60521        17.500           0.813
  23393294.326    -3745753.657 5  -2729286.49221         8.250           0.500
  20225092.178    -1986754.008 7  -1548119.50422        20.250           1.750
 91  5 20 18 39 44.9980000  0  5G18G16G11G 6G19
  21001076.865     2803573.630 7   2184597.62522        26.000           2.250
  22998679.334    -5791220.132 5  -4334503.13521         9.250           0.500
  22742076.748    -8043193.936 6  -6267410.33221        17.750           0.813
  23384299.654    -3793005.124 4  -2766105.69721         7.250           0.406
  20224012.748    -1992446.319 6  -1552555.07622        19.000           1.719
 91  5 20 18 39 59.9980000  0  5G18G16G11G 6G19
  21005644.217     2827573.320 7   2203298.63322        26.000           2.281
  22993495.537    -5818475.060 5  -4355740.72421         9.000           0.344
  22736134.428    -8074416.976 6  -6291739.94121        18.000           0.719
  23375312.326    -3840237.541 5  -2802910.10521         7.750           0.344
  20222937.482    -1998087.723 6  -1556950.97922        19.500           1.719
 91  5 20 18 40 14.9980000  0  5G18G16G11G 6G19
  21010229.318     2851662.657 7   2222069.49722        25.500           2.125
  22988331.022    -5845598.075 5  -4376875.53921         8.750           0.406
  22730218.951    -8105509.401 6  -6315967.77221        17.750           0.750
  23366329.350    -3887452.993 5  -2839701.24421         8.250           0.344
  20221873.389    -2003680.215 6  -1561308.76822        18.750           1.750
 91  5 20 18 40 29.9980000  0  5G18G16G11G 6G19
  21014830.678     2875844.005 7   2240912.04722        25.750           2.188
  22983199.467    -5872586.515 5  -4397905.52321         9.750           0.406
  22724326.178    -8136468.268 6  -6340091.53721        17.750           0.781
  23357348.459    -3934648.757 5  -2876477.08321         7.750           0.344
  20220819.107    -2009221.156 6  -1565626.38522        19.250           1.719
 91  5 20 18 40 44.9980000  0  5G18G16G11G 6G19
  21019448.357     2900114.806 7   2259824.30722        25.500           2.188
  22978088.576    -5899442.594 5  -4418832.34621         9.750           0.344
  22718460.107    -8167295.749 6  -6364112.92321        18.250           0.844
  23348368.897    -3981827.146 5  -2913239.37521         7.750           0.375
  20219773.678    -2014712.895 6  -1569905.66322        18.750           1.688
 91  5 20 18 40 59.9980000  0  5G18G16G11G 6G19
  21024083.936     2924475.648 7   2278806.73322        25.000           2.188
  22973002.842    -5926165.500 5  -4439655.36221         9.000           0.406
  22712618.154    -8197990.834 6  -6388031.13821        18.250           0.781
  23339395.295    -4028987.478 5  -2949987.58321         8.750           0.406
  20218737.498    -2020154.570 6  -1574145.93322        18.750           1.750
 91  5 20 18 41 14.9980000  0  5G18G16G11G 6G19
  21028735.412     2948920.662 7   2297854.74722        25.000           2.188
  22967940.076    -5952760.758 5  -4460378.92321         9.250           0.438
  22706801.522    -8228558.916 6  -6411850.38321        18.250           0.844
  23330422.623    -4076135.553 5  -2986726.23721         8.750           0.406
  20217713.123    -2025552.010 6  -1578351.72822        18.500           1.781
 91  5 20 18 41 29.9980000  0  5G18G16G11G 6G19
  21033405.889     2973457.206 7   2316974.08422        25.250           2.188
  22962905.482    -5979221.065 5  -4480997.36421         9.250           0.500
  22701011.943    -8258992.299 6  -6435564.68521        17.750           0.656
  23321452.225    -4123263.906 5  -3023449.55521         8.750           0.406
  20216695.873    -2030897.639 6  -1582517.15922        18.000           1.688
 91  5 20 18 41 44.9980000  0  5G18G16G11G 6G19
  21038092.225     2998083.768 7   2336163.55922        25.000           2.219
  22957892.584    -6005547.663 5  -4501511.59821         8.500           0.500
  22695244.350    -8289292.239 6  -6459174.99121        18.250           0.594
  23312490.389    -4170374.059 5  -3060158.65121         9.750           0.344
  20215687.693    -2036193.076 6  -1586643.47422        18.750           1.688
 91  5 20 18 41 59.9980000  0  5G18G16G11G 6G19
  21042794.615     3022804.497 7   2355426.40422        24.500           2.125
  22952912.373    -6031736.216 5  -4521918.24921         9.500           0.375
  22689506.006    -8319454.114 6  -6482677.71621        18.250           0.813
  23303527.662    -4217461.595 5  -3096850.16821         9.250           0.438
  20214688.701    -2041433.760 6  -1590727.12722        19.250           1.719
 91  5 20 18 42 14.9980000  0  5G18G16G11G 6G19
  21047515.576     3047610.450 7   2374755.65822        24.500           2.188
  22947956.334    -6057795.381 5  -4542224.09821        10.500           0.438
  22683789.717    -8349486.664 6  -6506079.66921        17.750           0.719
  23294571.225    -4264535.502 5  -3133531.04921         9.500           0.344
  20213702.147    -2046628.726 6  -1594775.15222        19.000           1.781
 91  5 20 18 42 29.9980000  0  5G18G16G11G 6G19
  21052253.420     3072505.677 7   2394154.48422        24.750           2.031
  22943022.584    -6083720.666 5  -4562425.61521        10.000           0.469
  22678100.717    -8379385.177 6  -6529377.17921        18.250           0.844
  23285617.014    -4311591.405 5  -3170197.89921         9.250           0.344
  20212724.451    -2051773.379 6  -1598783.97522        19.000           1.688
 91  5 20 18 42 44.9980000  0  5G18G16G11G 6G19
  21057008.201     3097490.038 7   2413622.76022        24.500           2.125
  22938110.490    -6109511.800 5  -4582522.60921        10.250           0.469
  22672435.678    -8409149.170 6  -6552569.87521        17.750           0.750
  23276666.686    -4358629.047 5  -3206850.52621         9.500           0.375
  20211753.928    -2056867.464 6  -1602753.39522        19.000           1.688
 91  5 20 18 42 59.9980000  0  5G18G16G11G 6G19
  21061777.842     3122561.522 7   2433158.92022        24.250           2.094
  22933228.232    -6135170.643 5  -4602516.51321        10.000           0.344
  22666797.420    -8438780.407 6  -6575659.11921        17.500           0.719
  23267714.209    -4405650.469 5  -3243490.51121         9.500           0.375
  20210791.545    -2061913.089 6  -1606685.05322        19.250           1.750
 91  5 20 18 43 14.9980000  0  5G18G16G11G 6G19
  21066566.334     3147716.356 7   2452760.03522        24.250           2.125
  22928369.053    -6160701.109 5  -4622410.40621        10.500           0.375
  22661185.514    -8468282.281 6  -6598647.56621        18.000           0.781
  23258771.764    -4452659.238 5  -3280120.62021         9.500           0.438
  20209842.100    -2066913.862 6  -1610581.75522        18.750           1.688
 91  5 20 18 43 29.9980000  0  5G18G16G11G 6G19
  21071370.412     3172964.402 7   2472433.77022        24.000           2.000
  22923541.865    -6186093.516 5  -4642196.69921        11.000           0.406
  22655596.006    -8497644.785 6  -6621527.41121        17.750           0.750
  23249830.623    -4499645.655 5  -3316733.33121         9.750           0.375
  20208900.154    -2071859.935 6  -1614435.84122        18.750           1.656
 91  5 20 18 43 44.9980000  0  5G18G16G11G 6G19
  21076193.936     3198313.228 7   2492186.04322        24.000           2.063
  22918735.686    -6211339.514 5  -4661868.92021        11.250           0.531
  22650036.873    -8526860.018 6  -6644292.49621        17.250           0.688
  23240896.381    -4546602.157 5  -3353322.72521         9.750           0.438
  20207972.115    -2076743.729 6  -1618241.39622        19.000           1.719
 91  5 20 18 43 59.9980000  0  5G18G16G11G 6G19
  21081036.420     3223758.489 7   2512013.45822        23.500           1.969
  22913958.178    -6236443.188 5  -4681430.21521        11.000           0.406
  22644504.998    -8555931.867 6  -6666945.85221        17.500           0.750
  23231963.365    -4593532.773 5  -3389891.94121         9.250           0.313
  20207051.076    -2081569.282 6  -1622001.57422        19.500           1.781
 91  5 20 18 44 14.9980000  0  5G18G16G11G 6G19
  21085894.725     3249292.660 7   2531910.15522        23.500           2.000
  22909209.951    -6261411.785 5  -4700886.26921        11.250           0.500
  22638998.443    -8584867.172 6  -6689492.81121        17.750           0.625
  23223038.561    -4640444.635 5  -3426446.55721         9.250           0.438
  20206144.107    -2086343.623 6  -1625721.84422        18.750           1.688
 91  5 20 18 44 29.9980000  0  5G18G16G11G 6G19
  21090772.217     3274922.463 7   2551881.37122        23.500           2.031
  22904482.647    -6286238.447 5  -4720231.72621        11.500           0.531
  22633519.186    -8613658.889 6  -6711927.87821        17.250           0.781
  23214114.951    -4687330.857 5  -3462981.20221         9.500           0.406
  20205245.889    -2091059.797 6  -1629396.78322        19.000           1.844
 91  5 20 18 44 44.9980000  0  5G18G16G11G 6G19
  21095666.537     3300641.640 7   2571922.21922        23.750           1.969
  22899785.475    -6310928.726 5  -4739470.90421        11.250           0.406
  22628067.279    -8642312.813 6  -6734255.58021        17.500           0.719
  23205197.092    -4734197.600 5  -3499500.62921         9.250           0.344
  20204359.592    -2095723.946 6  -1633031.18722        19.000           1.688
 91  5 20 18 44 59.9980000  0  5G18G16G11G 6G19
  21100578.279     3326450.441 7   2592032.91022        23.250           1.938
  22895112.725    -6335482.434 5  -4758603.67221        11.250           0.563
  22622642.475    -8670828.399 6  -6756475.48321        18.000           0.688
  23196282.147    -4781044.578 5  -3536004.67421         9.500           0.406
  20203480.365    -2100335.987 6  -1636624.98222        19.250           1.625
 91  5 20 18 45 14.9980000  0  5G18G16G11G 6G19
  21105505.342     3352347.156 7   2612212.10622        23.000           1.906
  22890467.311    -6359901.234 5  -4777631.32321        11.750           0.594
  22617240.139    -8699207.018 6  -6778588.66021        18.000           0.688
  23187371.029    -4827873.345 5  -3572494.55121         9.500           0.375
  20202614.225    -2104897.152 6  -1640179.14022        19.250           1.719
 91  5 20 18 45 29.9980000  0  5G18G16G11G 6G19
  21110450.475     3378335.390 7   2632462.61922        22.750           1.781
  22885843.717    -6384181.403 5  -4796550.92321        11.000           0.563
  22611867.209    -8727444.839 6  -6800592.12021        18.000           0.719
  23178462.889    -4874680.271 5  -3608967.38521         9.000           0.375
  20201756.467    -2109403.862 6  -1643690.86322        18.750           1.656
 91  5 20 18 45 44.9980000  0  5G18G16G11G 6G19
  21115413.334     3404411.527 7   2652781.62422        23.250           1.969
  22881248.693    -6408325.668 5  -4815364.63321        10.500           0.594
  22606519.686    -8755544.411 6  -6822487.84921        17.750           0.719
  23169560.373    -4921468.292 5  -3645425.50721         9.000           0.344
  20200908.193    -2113859.038 6  -1647162.43422        19.250           1.750
 91  5 20 18 45 59.9980000  0  5G18G16G11G 6G19
  21120393.131     3430571.899 7   2673166.26222        23.250           1.938
  22876681.412    -6432337.827 5  -4834075.43721        10.750           0.500
  22601198.365    -8783509.307 6  -6844278.64921        18.000           0.688
  23160659.795    -4968241.118 5  -3681871.75421         9.500           0.344
  20200069.748    -2118266.227 6  -1650596.61422        19.250           1.688
 91  5 20 18 46 14.9980000  0  5G18G16G11G 6G19
  21125386.272     3456822.472 7   2693621.19022        22.750           2.000
  22872139.029    -6456211.607 5  -4852678.37621        11.000           0.531
  22595903.795    -8811333.359 6  -6865959.69121        18.250           0.688
  23151762.147    -5014992.791 5  -3718301.53521         9.250           0.281
  20199241.053    -2122619.543 6  -1653988.81022        18.750           1.688
 91  5 20 18 46 29.9980000  0  5G18G16G11G 6G19
  21130398.420     3483158.907 7   2714143.02222        22.250           1.969
  22867622.084    -6479951.723 5  -4871177.18121        11.000           0.469
  22590634.639    -8839020.603 6  -6887534.12621        18.500           0.781
  23142867.607    -5061727.754 5  -3754718.30621         9.250           0.406
  20198420.787    -2126923.323 6  -1657342.40722        19.250           1.750
 91  5 20 18 46 44.9980000  0  5G18G16G11G 6G19
  21135427.584     3509584.511 7   2734734.33722        22.500           1.969
  22863128.506    -6503553.988 5  -4889568.55821        10.750           0.656
  22585393.350    -8866567.044 6  -6908998.85221        18.750           0.750
  23133980.397    -5108442.140 5  -3791119.02521         9.750           0.344
  20197613.709    -2131173.757 6  -1660654.44222        19.000           1.719
 91  5 20 18 46 59.9980000  0  5G18G16G11G 6G19
  21140473.303     3536093.300 7   2755390.46322        23.000           1.938
  22858663.904    -6527024.246 5  -4907857.06521        10.500           0.531
  22580177.889    -8893978.392 6  -6930358.30921        18.750           0.719
  23125092.951    -5155141.867 5  -3827508.34921         9.750           0.344
  20196812.764    -2135376.507 6  -1663929.31522        19.250           1.625
 91  5 20 18 47 14.9980000  0  5G18G16G11G 6G19
  21145535.264     3562693.469 7   2776117.79622        23.000           1.938
  22854223.639    -6550354.473 5  -4926036.48421        10.500           0.500
  22574987.764    -8921246.157 6  -6951605.88721        18.000           0.656
  23116212.295    -5201818.718 5  -3863879.84621         9.500           0.406
  20196024.342    -2139523.660 6  -1667160.87022        19.250           1.688
 91  5 20 18 47 29.9980000  0  5G18G16G11G 6G19
  21150611.561     3589379.156 7   2796911.77222        22.750           1.906
  22849808.537    -6573550.054 5  -4944110.95721        10.500           0.500
  22569824.037    -8948375.738 6  -6972745.77921        18.000           0.688
  23107331.467    -5248478.364 5  -3900237.91621         9.500           0.313
  20195244.279    -2143620.721 6  -1670353.39322        19.750           1.688
 91  5 20 18 47 44.9980000  0  5G18G16G11G 6G19
  21155708.459     3616152.133 7   2817773.76122        23.000           1.969
  22845421.139    -6596608.992 5  -4962078.97321        11.250           0.500
  22564689.779    -8975365.067 6  -6993776.39421        18.250           0.594
  23098455.951    -5295118.902 5  -3936581.12821         9.750           0.375
  20194474.240    -2147665.675 6  -1673505.30722        19.250           1.813
 91  5 20 18 47 59.9980000  0  5G18G16G11G 6G19
  21160819.529     3643019.305 7   2838709.14922        23.000           1.781
  22841061.404    -6619524.371 5  -4979935.11821        11.000           0.469
  22559579.607    -9002207.005 6  -7014692.15721        18.250           0.688
  23089585.623    -5341733.320 5  -3972903.95821         9.750           0.281
  20193716.600    -2151651.356 6  -1676611.04222        18.750           1.656
 91  5 20 18 48 14.9980000  0  5G18G16G11G 6G19
  21165953.873     3669989.274 7   2859724.63822        23.000           1.875
  22836728.975    -6642286.981 5  -4997672.23821        10.500           0.563
  22554502.107    -9028892.215 6  -7035485.79221        18.000           0.625
  23080720.897    -5388312.536 5  -4009199.39321         9.750           0.375
  20192970.225    -2155568.688 6  -1679663.51422        18.750           1.688
 91  5 20 18 48 29.9980000  0  5G18G16G11G 6G19
  21171104.803     3697062.693 7   2880820.73022        22.750           1.906
  22832426.287    -6664896.055 5  -5015289.71321        10.500           0.500
  22549456.287    -9055419.638 6  -7056156.47921        17.750           0.656
  23071865.811    -5434855.883 5  -4045466.86421        10.000           0.281
  20192236.147    -2159417.042 6  -1682662.24122        19.500           1.656
 91  5 20 18 48 44.9980000  0  5G18G16G11G 6G19
  21176277.061     3724246.027 7   2902002.47322        22.750           1.969
  22828153.373    -6687344.950 5  -5032782.35421        10.000           0.563
  22544438.709    -9081782.584 6  -7076698.99921        18.000           0.656
  23063015.404    -5481356.785 5  -4081701.25321        10.000           0.375
  20191520.568    -2163190.035 6  -1685602.24322        18.750           1.688
 91  5 20 18 48 59.9980000  0  5G18G16G11G 6G19
  21181468.303     3751529.070 7   2923261.92222        22.750           1.875
  22823912.920    -6709643.674 5  -5050158.00221        11.250           0.438
  22539450.998    -9107990.929 6  -7097121.04621        17.750           0.688
  23054173.357    -5527825.426 5  -4117910.50721        10.000           0.344
  20190816.240    -2166897.602 6  -1688491.26122        18.750           1.813
 91  5 20 18 49 14.9980000  0  5G18G16G11G 6G19
  21186679.678     3778913.665 7   2944600.49722        22.250           1.875
  22819700.350    -6731789.951 5  -5067414.83521        11.000           0.500
  22534493.592    -9134042.301 6  -7117420.78521        18.000           0.813
  23045339.951    -5574259.539 5  -4154092.85121         9.750           0.406
  20190122.131    -2170537.547 6  -1691327.59222        19.000           1.719
 91  5 20 18 49 29.9980000  0  5G18G16G11G 6G19
  21191909.756     3806399.160 7   2966017.69322        22.250           1.844
  22815515.897    -6753784.493 5  -5084553.46121        11.500           0.500
  22529567.709    -9159936.954 6  -7137598.40821        18.000           0.688
  23036507.404    -5620659.729 5  -4190248.78621         9.250           0.500
  20189444.904    -2174110.287 6  -1694111.55122        18.750           1.781
 91  5 20 18 49 44.9980000  0  5G18G16G11G 6G19
  21197158.522     3833978.872 7   2987508.30422        22.250           1.938
  22811358.279    -6775633.921 5  -5101579.01521        10.750           0.469
  22524667.998    -9185681.478 6  -7157659.05221        18.500           0.750
  23027682.990    -5667032.642 5  -4226383.45021         9.000           0.500
  20188774.670    -2177622.407 6  -1696848.27422        19.000           1.688
 91  5 20 18 49 59.9980000  0  5G18G16G11G 6G19
  21202423.678     3861641.974 7   3009063.90122        22.250           1.906
  22807225.061    -6797348.764 5  -5118499.65921        11.000           0.500
  22519797.045    -9211286.033 6  -7177610.61321        18.250           0.781
  23018860.264    -5713388.816 5  -4262505.06421         8.250           0.469
  20188114.037    -2181084.377 7  -1699545.91822        20.000           1.719
 91  5 20 18 50 14.9980000  0  5G18G16G11G 6G19
  21207704.764     3889397.635 7   3030691.61722        22.500           1.844
  22803117.576    -6818919.441 5  -5135308.00321        10.500           0.375
  22514950.873    -9236741.039 6  -7197445.66321        18.000           0.875
  23010043.428    -5759718.713 5  -4298606.19321         7.750           0.500
  20187468.459    -2184486.931 6  -1702197.26722        19.000           1.781
 91  5 20 18 50 29.9980000  0  5G18G16G11G 6G19
  21213002.912     3917238.412 7   3052385.66122        22.750           1.719
  22799037.693    -6840352.864 5  -5152009.37721        10.250           0.500
  22510133.740    -9262053.459 6  -7217169.60721        17.750           0.750
  23001230.662    -5806029.587 5  -4334692.50421         8.500           0.531
  20186832.779    -2187836.989 6  -1704807.71722        18.750           1.750
 91  5 20 18 50 44.9980000  0  5G18G16G11G 6G19
  21218318.857     3945171.531 7   3074151.64722        22.500           1.875
  22794990.100    -6861642.041 5  -5168598.36821        11.000           0.406
  22505346.592    -9287216.089 6  -7236776.82421        18.000           0.781
  22992425.318    -5852314.488 5  -4370758.58121         8.750           0.563
  20186203.717    -2191127.687 6  -1707371.90222        18.500           1.719
 91  5 20 18 50 59.9980000  0  5G18G16G11G 6G19
  21223650.201     3973191.253 7   3095985.11922        22.250           1.813
  22790965.834    -6882792.450 5  -5185079.22821        11.250           0.500
  22500585.545    -9312234.034 6  -7256271.29721        18.000           0.719
  22983620.561    -5898578.738 5  -4406808.56321         8.750           0.469
  20185589.592    -2194364.312 6  -1709893.95722        18.000           1.781
 91  5 20 18 51 14.9980000  0  5G18G16G11G 6G19
  21228998.076     4001295.386 7   3117884.36722        22.250           1.688
  22786964.522    -6903806.396 5  -5201453.76121        10.500           0.438
  22495851.154    -9337109.523 6  -7275654.76021        18.000           0.719
  22974821.412    -5944824.756 5  -4442844.33021         9.000           0.594
  20184983.326    -2197549.117 6  -1712375.63322        18.750           1.750
 91  5 20 18 51 29.9980000  0  5G18G16G11G 6G19
  21234363.006     4029483.017 7   3139848.68022        22.250           1.750
  22782990.014    -6924684.022 5  -5217722.04621        10.750           0.406
  22491144.631    -9361842.719 6  -7294927.35321        17.750           0.750
  22966021.443    -5991052.748 5  -4478866.06821         9.000           0.531
  20184389.256    -2200682.419 6  -1714817.17222        18.500           1.781
 91  5 20 18 51 44.9980000  0  5G18G16G11G 6G19
  21239742.256     4057752.962 7   3161877.14222        22.250           1.688
  22779044.412    -6945426.134 5  -5233884.73121        10.750           0.375
  22486464.912    -9386434.242 6  -7314089.55221        17.250           0.844
  22957231.123    -6037263.730 5  -4514874.55321        10.000           0.563
  20183800.100    -2203764.971 6  -1717219.16822        18.750           1.656
 91  5 20 18 51 59.9980000  0  5G18G16G11G 6G19
  21245136.811     4086099.880 7   3183965.57722        22.250           1.563
  22775118.420    -6966038.465 5  -5249946.32721        11.000           0.469
  22481812.373    -9410889.327 6  -7333145.43421        17.750           0.688
  22948438.732    -6083463.109 5  -4550873.99421        10.000           0.469
  20183220.100    -2206802.144 7  -1719585.80422        20.000           1.719
 91  5 20 18 52 14.9980000  0  5G18G16G11G 6G19
  21250544.842     4114517.292 7   3206108.94922        22.500           1.688
  22771222.506    -6986527.333 5  -5265911.69321        11.250           0.344
  22477182.545    -9435214.218 6  -7352099.86621        18.000           0.656
  22939649.123    -6129657.282 5  -4586869.40121        10.000           0.531
  20182650.834    -2209800.522 6  -1721922.21022        19.000           1.813
 91  5 20 18 52 29.9980000  0  5G18G16G11G 6G19
  21255966.326     4143011.967 7   3228312.52522        22.000           1.688
  22767348.998    -7006885.382 5  -5281775.12521        11.250           0.281
  22472579.623    -9459401.380 6  -7370946.97521        17.750           0.844
  22930860.670    -6175839.069 5  -4622855.13421         9.750           0.469
  20182086.717    -2212752.671 6  -1724222.59122        19.250           1.813
 91  5 20 18 52 44.9980000  0  5G18G16G11G 6G19
  21261405.342     4171592.075 7   3250582.66822        22.000           1.656
  22763503.576    -7027104.575 5  -5297530.34921        11.750           0.500
  22468002.857    -9483442.522 6  -7389680.30021        17.500           0.750
  22922072.998    -6222000.208 5  -4658824.79521         9.250           0.469
  20181538.990    -2215650.502 6  -1726480.65522        18.750           1.844
 91  5 20 18 52 59.9980000  0  5G18G16G11G 6G19
  21266862.717     4200269.309 7   3272928.49522        22.250           1.719
  22759685.068    -7047172.585 6  -5313167.77921        12.250           0.313
  22463460.256    -9507325.572 6  -7408290.44821        17.250           0.750
  22913296.654    -6268128.855 5  -4694769.11921         9.500           0.469
  20180997.959    -2218481.953 6  -1728686.98722        19.000           1.844
 91  5 20 18 53 14.9980000  0  5G18G16G11G 6G19
  21272337.561     4229044.630 7   3295350.75522        22.250           1.500
  22755893.357    -7067088.367 5  -5328686.58921        11.250           0.469
  22458944.397    -9531049.319 6  -7426776.45321        16.750           0.781
  22904526.850    -6314223.866 5  -4730687.22421         9.500           0.406
  20180474.154    -2221245.740 6  -1730840.59922        18.750           1.875
 91  5 20 18 53 29.9980000  0  5G18G16G11G 6G19
  21277831.756     4257913.638 7   3317846.01622        22.250           1.625
  22752130.670    -7086856.029 5  -5344089.98721        11.750           0.500
  22454460.772    -9554617.447 6  -7445141.20321        17.000           0.781
  22895760.147    -6360289.274 5  -4766582.28421         9.000           0.406
  20179958.701    -2223946.158 6  -1732944.82922        19.000           1.906
 91  5 20 18 53 44.9980000  0  5G18G16G11G 6G19
  21283345.623     4286887.716 7   3340423.14822        22.250           1.563
  22748401.936    -7106464.400 5  -5359369.26721        11.750           0.438
  22450006.732    -9578018.571 6  -7463375.82321        17.000           0.656
  22887001.857    -6406313.801 5  -4802445.48521         9.000           0.469
  20179459.873    -2226571.742 6  -1734990.74722        18.750           1.813
 91  5 20 18 53 59.9980000  0  5G18G16G11G 6G19
  21288877.131     4315962.214 7   3363078.53222        22.000           1.594
  22744698.756    -7125917.611 5  -5374527.63121        11.500           0.406
  22445585.615    -9601256.826 6  -7481483.53521        17.750           0.875
  22878249.631    -6452301.758 5  -4838280.19521         8.500           0.281
  20178974.943    -2229126.783 6  -1736981.70122        18.500           1.938
 91  5 20 18 54 14.9980000  0  5G18G16G11G 6G19
  21294430.295     4345136.617 7   3385811.76822        22.250           1.594
  22741022.850    -7145216.180 5  -5389565.49521        10.750           0.469
  22441193.365    -9624332.427 6  -7499464.50321        17.500           0.719
  22869502.607    -6498253.596 5  -4874086.75021         8.500           0.500
  20178501.256    -2231611.755 6  -1738918.05522        19.000           1.781
 91  5 20 18 54 29.9980000  0  5G18G16G11G 6G19
  21300003.107     4374419.059 7   3408629.19122        22.500           1.500
  22737382.209    -7164351.625 5  -5404476.24921        10.750           0.469
  22436836.404    -9647236.755 6  -7517312.00121        17.250           0.813
  22860770.982    -6544160.941 5  -4909858.63721         8.750           0.469
  20178042.232    -2234018.100 6  -1740793.13622        19.000           1.844
 91  5 20 18 54 44.9980000  0  5G18G16G11G 6G19
  21305593.600     4403799.589 7   3431523.03321        22.500           1.469
  22733769.600    -7183333.553 5  -5419267.38721        10.500           0.375
  22432508.365    -9669979.437 6  -7535033.55821        17.500           0.844
  22852038.498    -6590033.487 5  -4945603.41021         8.250           0.406
  20177597.389    -2236355.476 6  -1742614.47922        18.750           2.000
 91  5 20 18 54 59.9980000  0  5G18G16G11G 6G19
  21311201.725     4433274.347 7   3454490.30922        22.750           1.531
  22730186.178    -7202166.087 5  -5433942.09621        10.250           0.375
  22428210.279    -9692564.081 6  -7552631.96121        17.500           0.750
  22843317.959    -6635875.068 5  -4981324.04621         8.250           0.531
  20177165.147    -2238627.795 6  -1744385.12622        19.000           1.906
 91  5 20 18 55 14.9970000  0  5G18G16G11G 6G19
  21316829.142     4462850.699 7   3477536.74921        22.000           1.406
  22726631.462    -7220837.972 5  -5448491.63921        10.250           0.469
  22423944.954    -9714979.462 6  -7570098.46021        17.750           0.813
  22834601.712    -6681673.002 5  -5017010.68421         8.000           0.500
  20176747.845    -2240825.151 6  -1746097.36122        18.750           1.875
 91  5 20 18 55 29.9970000  0  5G18G16G11G 6G19
  21322477.470     4492527.450 7   3500661.42521        22.500           1.469
  22723111.931    -7239356.663 5  -5462921.79621        10.250           0.500
  22419709.704    -9737233.165 6  -7587438.98821        17.500           0.813
  22825890.774    -6727438.236 5  -5052671.83421         8.250           0.438
  20176342.274    -2242952.545 6  -1747755.08222        18.750           1.844
 91  5 20 18 55 44.9970000  0  5G18G16G11G 6G19
  21328141.517     4522287.082 7   3523850.67822        22.750           1.500
  22719611.376    -7257736.496 5  -5477243.76721        10.500           0.563
  22415502.853    -9759339.061 6  -7604664.34021        17.250           0.969
  22817186.103    -6773183.263 5  -5088317.25121         8.250           0.531
  20175949.306    -2245025.563 6  -1749370.42922        18.750           1.875
 91  5 20 18 55 59.9970000  0  5G18G16G11G 6G19
  21333821.782     4552135.068 7   3547108.78421        23.000           1.469
  22716142.673    -7275971.944 5  -5491453.21321         9.750           0.469
  22411324.501    -9781291.374 6  -7621770.02421        17.250           0.813
  22808485.087    -6818902.434 5  -5123942.51121         8.250           0.469
  20175565.548    -2247038.492 6  -1750938.96022        19.000           1.875
 91  5 20 18 56 14.9970000  0  5G18G16G11G 6G19
  21339518.759     4582074.177 7   3570437.89021        22.500           1.406
  22712701.017    -7294059.796 5  -5505547.66321        10.250           0.594
  22407178.759    -9803086.721 6  -7638753.39021        17.500           0.906
  22799794.196    -6864592.632 5  -5159545.19521         9.000           0.469
  20175195.423    -2248988.192 6  -1752458.22122        19.000           1.906
 91  5 20 18 56 29.9970000  0  5G18G16G11G 6G19
  21345231.087     4612095.150 7   3593830.78921        22.500           1.375
  22709285.931    -7312009.207 5  -5519534.23521        10.250           0.594
  22403059.993    -9824734.208 6  -7655621.54121        17.500           0.906
  22791105.993    -6910263.075 5  -5195132.48121         9.250           0.469
  20174832.438    -2250883.762 6  -1753935.29822        19.500           1.969
 91  5 20 18 56 44.9970000  0  5G18G16G11G 6G19
  21350958.274     4642194.637 7   3617284.87221        22.500           1.406
  22705895.493    -7329823.014 5  -5533415.12621         9.500           0.344
  22398968.688    -9846236.809 6  -7672376.79621        17.750           0.844
  22782416.040    -6955916.877 5  -5230706.80621         9.500           0.563
  20174482.298    -2252728.300 6  -1755372.61422        19.000           1.875
 91  5 20 18 56 59.9970000  0  5G18G16G11G 6G19
  21356702.384     4672375.438 7   3640802.31021        22.750           1.469
  22702530.423    -7347498.579 5  -5547188.31821         9.500           0.438
  22394903.407    -9867591.506 6  -7689016.79521        17.500           0.938
  22773730.157    -7001551.244 5  -5266265.99721         9.750           0.469
  20174140.704    -2254519.043 6  -1756768.00522        19.250           1.938
 91  5 20 18 57 14.9970000  0  5G18G16G11G 6G19
  21362461.774     4702637.367 7   3664382.96221        22.250           1.406
  22699196.704    -7365035.899 5  -5560853.78521        10.500           0.406
  22390865.946    -9888798.017 6  -7705541.32821        17.000           1.000
  22765050.423    -7047166.042 5  -5301809.93621         9.000           0.563
  20173811.017    -2256255.674 6  -1758121.23322        18.750           2.000
 91  5 20 18 57 29.9970000  0  5G18G16G11G 6G19
  21368235.673     4732987.442 7   3688032.29321        22.000           1.375
  22695881.399    -7382427.810 5  -5574405.92821        10.000           0.406
  22386859.548    -9909849.002 6  -7721944.68021        17.000           0.969
  22756375.423    -7092754.029 5  -5337332.98321         9.000           0.500
  20173491.243    -2257931.078 6  -1759426.75322        19.000           1.969
 91  5 20 18 57 44.9970000  0  5G18G16G11G 6G19
  21374028.087     4763424.623 7   3711749.51021        21.750           1.281
  22692603.774    -7399674.712 5  -5587845.09721        11.000           0.469
  22382884.985    -9930744.914 6  -7738227.18321        17.500           0.969
  22747704.376    -7138315.988 5  -5372835.74221         9.500           0.500
  20173186.579    -2259545.898 6  -1760685.06122        18.250           2.000
 91  5 20 18 57 59.9970000  0  5G18G16G11G 6G19
  21379835.923     4793941.674 7   3735528.95821        21.500           1.375
  22689347.798    -7416783.986 5  -5601177.00121        10.750           0.500
  22378937.587    -9951492.872 6  -7754394.41121        17.750           0.938
  22739041.259    -7183858.986 5  -5408323.72921         9.750           0.531
  20172888.720    -2261107.281 6  -1761901.73322        18.500           2.031
 91  5 20 18 58 14.9970000  0  5G18G16G11G 6G19
  21385658.790     4824538.231 7   3759370.36121        22.250           1.375
  22686119.579    -7433755.743 5  -5614401.76421        11.250           0.438
  22375018.649    -9972092.824 6  -7770446.29421        18.000           1.031
  22730374.485    -7229383.244 5  -5443797.10421         9.250           0.563
  20172601.298    -2262615.297 6  -1763076.82022        18.500           2.094
 91  5 20 18 58 29.9970000  0  5G18G16G11G 6G19
  21391498.751     4855226.044 7   3783282.86721        22.000           1.313
  22682916.751    -7450578.171 5  -5627510.18121        10.750           0.375
  22371128.087    -9992532.679 6  -7786373.43521        18.250           0.906
  22721718.610    -7274876.846 5  -5479246.60321         8.750           0.469
  20172326.298    -2264057.741 6  -1764200.81322        19.000           1.969
 91  5 20 18 58 44.9970000  0  5G18G16G11G 6G19
  21397353.220     4885994.880 7   3807258.51321        21.750           1.406
  22679743.274    -7467261.442 5  -5640510.16321        11.000           0.438
  22367266.384   -10012822.534 6  -7802183.68921        18.000           0.906
  22713064.673    -7320349.886 5  -5514680.07221         9.000           0.438
  20172063.165    -2265444.885 6  -1765281.71122        18.750           2.031
 91  5 20 18 58 59.9970000  0  5G18G16G11G 6G19
  21403221.618     4916841.902 7   3831295.08421        21.250           1.344
  22676593.392    -7483807.911 5  -5653403.52221        10.750           0.406
  22363435.399   -10032964.557 6  -7817878.75221        18.000           0.969
  22704418.813    -7365804.812 5  -5550099.43821         9.250           0.469
  20171808.056    -2266779.083 6  -1766321.35422        19.000           1.906
 91  5 20 18 59 14.9970000  0  5G18G16G11G 6G19
  21409106.728     4947767.276 7   3855392.70821        21.000           1.438
  22673469.696    -7500217.327 5  -5666190.11321        10.500           0.438
  22359631.313   -10052958.213 6  -7833458.20921        18.250           1.000
  22695770.235    -7411241.208 5  -5585504.33521         9.250           0.438
  20171565.665    -2268059.958 6  -1767319.44922        18.750           1.969
 91  5 20 18 59 29.9970000  0  5G18G16G11G 6G19
  21415008.282     4978772.935 7   3879552.88821        21.250           1.469
  22670376.399    -7516487.364 5  -5678868.09321        11.250           0.313
  22355853.040   -10072801.346 6  -7848920.37421        18.000           0.969
  22687125.845    -7456657.020 5  -5620893.21721         9.000           0.469
  20171331.485    -2269285.492 6  -1768274.42322        18.750           1.969
 91  5 20 18 59 44.9970000  0  5G18G16G11G 6G19
  21420923.368     5009855.268 7   3903772.81021        21.000           1.344
  22667303.899    -7532622.043 5  -5691440.58321        10.750           0.313
  22352105.759   -10092497.437 6  -7864267.97021        18.250           0.906
  22678488.548    -7502056.056 5  -5656269.01821         9.250           0.406
  20171109.321    -2270459.155 6  -1769188.97322        18.500           1.969
 91  5 20 18 59 59.9970000  0  5G18G16G11G 6G19
  21426852.446     5041013.056 7   3928051.52921        21.000           1.469
  22664259.704    -7548622.116 5  -5703908.21421        11.000           0.438
  22348384.196   -10112047.194 6  -7879501.52321        17.750           0.969
  22669853.157    -7547438.894 5  -5691632.21321         9.250           0.500
  20170894.571    -2271581.709 6  -1770063.69922        18.750           2.031
 91  5 20 19  0 14.9970000  0  5G18G16G11G 6G19
  21432795.384     5072248.889 7   3952391.06121        20.500           1.438
  22661244.415    -7564484.519 5  -5716268.54521        11.250           0.406
  22344691.493   -10131447.610 6  -7894618.71721        17.750           0.938
  22661219.665    -7592802.795 5  -5726980.64721         9.500           0.500
  20170691.485    -2272650.441 6  -1770896.48622        18.500           1.969
 91  5 20 19  0 29.9970000  0  5G18G16G11G 6G19
  21438753.313     5103554.801 7   3976785.20121        20.500           1.406
  22658248.735    -7580217.197 5  -5728527.79321        11.250           0.375
  22341026.524   -10150706.430 6  -7909625.58121        17.250           0.875
  22652588.173    -7638155.650 5  -5762320.47321         9.250           0.531
  20170497.931    -2273672.980 6  -1771693.27422        18.750           2.063
 91  5 20 19  0 44.9970000  0  5G18G16G11G 6G19
  21444727.103     5134943.411 7   4001243.77621        21.000           1.344
  22655282.368    -7595807.337 5  -5740675.98521        11.250           0.438
  22337391.837   -10169810.571 6  -7924511.90621        17.250           0.969
  22643964.376    -7683484.634 5  -5797641.71021         9.500           0.469
  20170313.735    -2274636.659 6  -1772444.20722        18.500           1.969
 91  5 20 19  0 59.9970000  0  5G18G16G11G 6G19
  21450714.056     5166408.060 7   4025761.60421        20.500           1.344
  22652341.095    -7611261.719 5  -5752718.38721        11.000           0.438
  22333784.001   -10188766.592 6  -7939282.82121        17.500           0.969
  22635341.438    -7728796.376 5  -5832949.51021         9.750           0.531
  20170138.931    -2275547.997 6  -1773154.35322        19.750           2.031
 91  5 20 19  1 14.9970000  0  5G18G16G11G 6G19
  21456717.048     5197950.581 7   4050340.11521        20.750           1.313
  22649425.587    -7626578.080 5  -5764653.23621        11.000           0.375
  22330206.384   -10207572.282 6  -7953936.59121        17.750           0.938
  22626721.735    -7774088.627 5  -5868242.12021         9.750           0.375
  20169978.204    -2276404.776 6  -1773821.97622        18.750           2.031
 91  5 20 19  1 29.9970000  0  5G18G16G11G 6G19
  21462733.235     5229569.783 7   4074978.37821        20.750           1.438
  22646537.423    -7641757.611 5  -5776481.47821        11.000           0.469
  22326657.134   -10226228.433 6  -7968473.84421        18.000           1.000
  22618107.665    -7819362.361 5  -5903520.29221        10.250           0.438
  20169825.329    -2277207.691 6  -1774447.63322        18.250           2.000
 91  5 20 19  1 44.9970000  0  5G18G16G11G 6G19
  21468763.853     5261261.757 7   4099673.35021        20.750           1.313
  22643673.735    -7656804.035 5  -5788205.98421        11.000           0.469
  22323131.821   -10244738.603 6  -7982897.34521        17.500           1.031
  22609496.524    -7864621.287 5  -5938786.93521        10.250           0.594
  20169682.267    -2277960.616 6  -1775034.33622        18.250           2.000
 91  5 20 19  1 59.9970000  0  5G18G16G11G 6G19
  21474812.017     5293036.288 7   4124432.65521        20.500           1.375
  22640839.321    -7671707.018 5  -5799818.71721        11.000           0.469
  22319640.978   -10263092.712 6  -7997199.24221        17.750           1.063
  22600888.360    -7909855.436 5  -5974034.25921        10.250           0.594
  20169549.040    -2278653.508 6  -1775574.26222        18.000           1.969
 91  5 20 19  2 14.9970000  0  5G18G16G11G 6G19
  21480870.829     5324879.165 7   4149245.20121        20.250           1.438
  22638027.446    -7686481.096 5  -5811331.01721        10.750           0.500
  22316175.321   -10281304.738 6  -8011390.42221        17.500           0.906
  22592279.626    -7955079.125 5  -6009273.43221         9.750           0.500
  20169426.368    -2279300.615 6  -1776078.51122        18.250           2.000
 91  5 20 19  2 29.9970000  0  5G18G16G11G 6G19
  21486945.759     5356801.030 7   4174119.29821        20.250           1.406
  22635240.743    -7701115.318 5  -5822734.32521         9.750           0.438
  22312737.524   -10299363.687 6  -8025462.32621        17.750           0.906
  22583681.009    -8000281.227 5  -6044495.77321        10.250           0.688
  20169311.196    -2279890.925 6  -1776538.49922        19.000           1.938
 91  5 20 19  2 44.9970000  0  5G18G16G11G 6G19
  21493032.868     5388790.499 7   4199046.07321        20.500           1.438
  22632479.931    -7715620.519 5  -5834037.11821        10.500           0.563
  22309329.782   -10317280.377 6  -8039423.37021        18.250           0.969
  22575077.407    -8045472.740 5  -6079709.87821         9.250           0.594
  20169209.462    -2280435.263 6  -1776962.66622        18.500           2.125
 91  5 20 19  2 59.9970000  0  5G18G16G11G 6G19
  21499134.915     5420850.533 7   4224027.83221        20.750           1.344
  22629742.173    -7729993.621 5  -5845236.95121         9.250           0.469
  22305948.087   -10335051.409 6  -8053270.91321        18.000           0.906
  22566478.298    -8090650.556 5  -6114913.29921         9.250           0.563
  20169117.728    -2280930.356 6  -1777348.46422        18.000           2.031
 91  5 20 19  3 14.9970000  0  5G18G16G11G 6G19
  21505248.313     5452982.473 7   4249065.62921        20.500           1.344
  22627034.720    -7744233.452 5  -5856332.96121         9.500           0.469
  22302592.728   -10352675.393 6  -8067003.87221        17.750           1.063
  22557888.681    -8135813.243 5  -6150104.93321        10.250           0.625
  20169032.274    -2281374.789 6  -1777694.78022        18.250           2.063
 91  5 20 19  3 29.9970000  0  5G18G16G11G 6G19
  21511378.063     5485198.475 7   4274168.92821        20.250           1.438
  22624352.603    -7758327.740 5  -5867315.54621         9.500           0.531
  22299269.024   -10370139.919 6  -8080612.57621        17.750           1.063
  22549296.634    -8180948.529 5  -6185275.24021         9.250           0.563
  20168961.173    -2281756.399 6  -1777992.14422        18.250           2.094
 91  5 20 19  3 44.9970000  0  5G18G16G11G 6G19
  21517524.243     5517495.948 7   4299335.70621        20.500           1.406
  22621696.431    -7772278.999 5  -5878186.67621         9.250           0.438
  22295977.040   -10387447.377 6  -8094098.89321        18.000           1.000
  22540711.423    -8226058.773 5  -6220426.00921         9.000           0.500
  20168897.657    -2282077.588 6  -1778242.43222        18.250           2.125
 91  5 20 19  3 59.9970000  0  5G18G16G11G 6G19
  21523689.579     5549880.402 7   4324570.26221        21.000           1.313
  22619071.923    -7786081.544 5  -5888941.94721         9.250           0.469
  22292714.368   -10404591.867 6  -8107458.22321        18.000           0.969
  22532138.321    -8271138.467 5  -6255552.98621         9.500           0.563
  20168849.829    -2282332.589 6  -1778441.13922        17.750           2.031
 91  5 20 19  4 14.9970000  0  5G18G16G11G 6G19
  21529864.563     5582346.974 7   4349868.80821        20.500           1.469
  22616474.204    -7799739.455 5  -5899584.48921         9.000           0.469
  22289484.048   -10421577.641 6  -8120693.87321        18.250           0.938
  22523564.868    -8316191.708 5  -6290659.33921         9.750           0.531
  20168813.446    -2282525.671 6  -1778591.60122        18.500           2.125
 91  5 20 19  4 29.9970000  0  5G18G16G11G 6G19
  21536061.438     5614904.438 7   4375238.17021        20.250           1.469
  22613905.509    -7813244.147 5  -5910107.63921         9.500           0.500
  22286282.759   -10438395.850 6  -8133798.96121        18.000           1.031
  22514991.782    -8361209.828 5  -6325738.32921         9.000           0.500
  20168787.259    -2282647.961 6                        19.500
 91  5 20 19  4 44.9970000  0  5G18G16G11G 6G19
  21542273.196     5647554.798 6   4400679.93121        19.750           1.375
  22611364.282    -7826593.470 5  -5920509.73521         9.000           0.500
  22283115.493   -10455044.036 6  -8146771.55521        18.250           1.063
  22506438.954    -8406190.500 5  -6360788.13321        10.500           0.406
  20168780.978    -2282697.097 6                        18.500
 91  5 20 19  4 59.9970000  0  5G18G16G11G 6G19
  21548503.517     5680287.732 7   4426186.03221        20.000           1.375
  22608850.251    -7839797.812 5  -5930798.86121         9.000           0.531
  22279977.782   -10471532.278 6  -8159619.51621        18.000           1.094
  22497882.688    -8451143.977 5  -6395816.77721        10.000           0.438
  20168780.587    -2282683.186 6                        18.750
 91  5 20 19  5 14.9970000  0  5G18G16G11G 6G19
  21554749.376     5713106.116 7   4451758.71421        20.000           1.375
  22606366.251    -7852853.849 5  -5940972.41521         9.000           0.469
  22276867.829   -10487857.349 6  -8172340.35821        17.500           1.031
  22489331.626    -8496067.131 5  -6430821.77721        10.000           0.438
  20168799.087    -2282603.129 6                        18.500
 91  5 20 19  5 29.9970000  0  5G18G16G11G 6G19
  21561008.978     5746003.957 6   4477393.31021        19.750           1.344
  22603911.040    -7865767.556 5  -5951035.08321         9.250           0.500
  22273793.626   -10504025.071 6  -8184938.56821        17.750           1.094
  22480787.290    -8540965.796 5  -6465807.68821        10.500           0.469
  20168823.548    -2282462.769 6                        18.500
 91  5 20 19  5 44.9970000  0  5G18G16G11G 6G19
  21567284.688     5778986.920 7   4503094.22721        20.000           1.406
  22601480.251    -7878533.074 5  -5960982.24721         9.250           0.531
  22270747.032   -10520029.404 6  -8197409.46221        17.750           1.031
  22472253.501    -8585834.047 5  -6500769.91921        11.500           0.500
  20168864.173    -2282256.183 6                        18.500
 91  5 20 19  5 59.9970000  0  5G18G16G11G 6G19
  21573577.978     5812053.058 6   4528859.96221        19.750           1.281
  22599079.540    -7891152.169 5  -5970815.35621         9.500           0.438
  22267733.532   -10535871.865 6  -8209754.22621        17.750           1.000
  22463714.017    -8630673.576 5  -6535709.75521        11.250           0.531
  20168913.571    -2281984.993 6  -1778170.36522        18.500           2.031
 91  5 20 19  6 14.9970000  0  5G18G16G11G 6G19
  21579882.462     5845195.313 6   4554685.01421        19.500           1.313
  22596704.735    -7903631.793 5  -5980539.74121         9.750           0.531
  22264749.540   -10551559.025 6  -8221977.97321        18.500           1.031
  22455189.688    -8675490.985 5  -6570632.36721        11.750           0.438
  20168979.751    -2281655.702 6  -1777913.78222        18.500           1.969
 91  5 20 19  6 29.9970000  0  5G18G16G11G 6G19
  21586206.790     5878417.478 6   4580572.33021        19.250           1.375
  22594355.181    -7915967.966 5  -5990152.39521         9.500           0.531
  22261794.845   -10567087.080 6  -8234077.74521        18.500           1.000
  22446662.712    -8720282.630 5  -6605534.88821        11.000           0.469
  20169054.767    -2281264.658 6  -1777609.08622        18.250           2.031
 91  5 20 19  6 44.9970000  0  5G18G16G11G 6G19
  21592543.220     5911713.000 6   4606516.80721        19.500           1.406
  22592035.931    -7928167.218 5  -5999658.31921         9.750           0.500
  22258868.407   -10582462.181 6  -8246058.33521        18.000           0.875
  22438147.274    -8765054.586 6  -6640422.07221        12.250           0.438
  20169138.103    -2280818.094 6  -1777261.12522        18.250           2.063
 91  5 20 19  6 59.9970000  0  5G18G16G11G 6G19
  21598892.235     5945076.254 6   4632514.05921        19.750           1.313
  22589744.751    -7940235.007 5  -6009061.81421        10.750           0.469
  22255968.524   -10597689.885 6  -8257924.06521        18.000           1.031
  22429624.735    -8809812.606 5  -6675298.38721        11.250           0.438
  20169231.313    -2280321.418 6  -1776874.11522        18.500           1.969
 91  5 20 19  7 14.9970000  0  5G18G16G11G 6G19
  21605254.001     5978510.305 6   4658566.47821        19.250           1.219
  22587469.493    -7952167.928 5  -6018360.21421         9.500           0.531
  22253100.649   -10612766.526 6  -8269672.09521        19.000           1.000
  22421114.892    -8854553.120 6  -6710161.06921        12.000           0.563
  20169336.860    -2279771.225 6  -1776445.40022        18.000           2.094
 91  5 20 19  7 29.9970000  0  5G18G16G11G 6G19
  21611626.985     6012007.422 6   4684668.04221        19.000           1.219
  22585218.001    -7963973.762 5  -6027559.59321         9.250           0.438
  22250259.806   -10627699.619 6  -8281308.25021        19.500           1.031
  22412601.095    -8899283.798 5  -6745016.09221        11.500           0.531
  20169450.915    -2279175.121 6  -1775980.92222        18.750           1.969
 91  5 20 19  7 44.9970000  0  5G18G16G11G 6G19
  21618015.079     6045569.416 6   4710820.16021        19.500           1.281
  22582999.407    -7975650.312 5  -6036658.22721         9.500           0.625
  22247445.181   -10642487.045 6  -8292830.91021        19.000           1.063
  22404093.509    -8944002.439 5  -6779861.70821        11.000           0.688
  20169572.853    -2278530.822 6  -1775478.88222        18.750           2.094
 91  5 20 19  7 59.9970000  0  5G18G16G11G 6G19
  21624415.556     6079208.019 6   4737031.96521        19.500           1.125
  22580803.798    -7987185.933 5  -6045647.04121         9.750           0.531
  22244660.376   -10657116.926 6  -8304230.80921        19.000           0.969
  22395590.485    -8988697.230 5  -6814688.74821        11.250           0.531
  20169706.821    -2277826.651 6  -1774930.19122        19.000           2.063
 91  5 20 19  8 14.9970000  0  5G18G16G11G 6G19
  21630831.103     6112912.220 6   4763294.89321        19.500           1.281
  22578634.665    -7998591.337 5  -6054534.39021        10.500           0.469
  22241904.501   -10671599.791 6  -8315516.14321        19.000           0.906
  22387088.337    -9033378.823 5  -6849505.49221        11.500           0.531
  20169851.017    -2277073.132 6  -1774343.04822        18.750           2.094
 91  5 20 19  8 29.9970000  0  5G18G16G11G 6G19
  21637256.735     6146687.090 6   4789612.87921        19.500           1.156
  22576492.931    -8009861.502 5  -6063316.35321         9.750           0.500
  22239179.142   -10685930.357 6  -8326682.81221        19.000           0.906
  22378591.368    -9078042.042 6  -6884307.99221        12.250           0.188
  20170005.634    -2276265.031 6  -1773713.36722        18.750           2.063
 91  5 20 19  8 44.9970000  0  5G18G16G11G 6G19
  21643695.571     6180524.383 6   4815979.50421        19.000           1.156
  22574368.267    -8021004.087 5  -6071998.93721        10.500           0.438
  22236479.774   -10700116.452 6  -8337736.89221        19.250           0.875
  22370091.610    -9122694.869 6  -6919102.33921        12.250           0.406
  20170166.767    -2275410.170 6  -1773047.25922        18.750           2.188
 91  5 20 19  8 59.9970000  0  5G18G16G11G 6G19
  21650148.759     6214435.291 6   4842403.49421        19.250           1.250
  22572273.853    -8032008.258 5  -6080573.62521         9.750           0.406
  22233808.649   -10714146.681 6  -8348669.52121        19.500           1.000
  22361590.571    -9167325.938 5  -6953879.74521        11.500           0.563
  20170338.595    -2274497.171 6  -1772335.84222        19.250           2.063
 91  5 20 19  9 14.9970000  0  5G18G16G11G 6G19
  21656615.540     6248417.398 6   4868882.97121        18.750           1.250
  22570204.712    -8042876.065 5  -6089042.09521        10.250           0.438
  22231168.634   -10728023.395 6  -8359482.54121        19.500           1.000
  22353098.759    -9211937.452 5  -6988641.90421        11.250           0.469
  20170525.212    -2273528.212 6  -1771580.82322        18.750           2.031
 91  5 20 19  9 29.9970000  0  5G18G16G11G 6G19
  21663097.462     6282474.548 6   4895420.91721        19.500           1.250
  22568167.118    -8053603.735 5  -6097401.36021        10.750           0.500
  22228558.501   -10741742.460 6  -8370172.70721        19.250           0.938
  22344620.884    -9256525.603 6  -7023385.86421        13.250           0.500
  20170719.462    -2272499.394 6  -1770779.16422        18.750           1.969
 91  5 20 19  9 44.9970000  0  5G18G16G11G 6G19
  21669588.892     6316589.491 6   4922003.89721        19.250           1.219
  22566148.220    -8064208.078 5  -6105664.50921        10.500           0.469
  22225973.306   -10755320.493 6  -8380752.98421        18.750           0.844
  22336144.673    -9301106.970 6  -7058124.54021        13.000           0.406
  20170924.767    -2271427.428 6  -1769943.88622        18.500           2.094
 91  5 20 19  9 59.9970000  0  5G18G16G11G 6G19
  21676094.462     6350775.845 6   4948642.52321        19.000           1.250
  22564155.790    -8074675.361 5  -6113820.87021        10.750           0.438
  22223419.228   -10768743.645 6  -8391212.57121        19.000           0.906
  22327664.024    -9345667.744 6  -7092847.18321        12.750           0.375
  20171138.813    -2270298.391 6  -1769064.12922        19.250           2.031
 91  5 20 19 10 14.9970000  0  5G18G16G11G 6G19
  21682614.696     6385034.785 6   4975337.70221        19.000           1.219
  22562190.735    -8085004.398 5  -6121869.51021        10.750           0.406
  22220895.587   -10782010.473 6  -8401550.35021        19.000           0.938
  22319177.431    -9390206.556 6  -7127552.71421        12.000           0.344
  20171365.642    -2269110.859 6  -1768138.79322        18.750           2.063
 91  5 20 19 10 29.9970000  0  5G18G16G11G 6G19
  21689147.509     6419368.584 6   5002091.21921        18.750           1.219
  22560251.384    -8095192.700 5  -6129808.46521        11.250           0.406
  22218400.618   -10795118.457 6  -8411764.34621        19.000           0.844
  22310709.735    -9434720.951 5  -7162239.19821        11.500           0.469
  20171603.243    -2267862.325 6  -1767165.91822        18.250           2.094
 91  5 20 19 10 44.9970000  0  5G18G16G11G 6G19
  21695694.642     6453769.009 6   5028896.64821        19.000           1.219
  22558338.056    -8105248.500 5  -6137644.19521        11.250           0.438
  22215934.251   -10808075.633 6  -8421860.84421        19.000           0.906
  22302243.274    -9479218.999 5  -7196912.94021        11.500           0.375
  20171849.493    -2266560.866 6  -1766151.80922        18.250           2.156
 91  5 20 19 10 59.9970000  0  5G18G16G11G 6G19
  21702254.978     6488246.177 6   5055761.88521        18.750           1.156
  22556452.712    -8115161.617 5  -6145368.74021        11.500           0.438
  22213497.806   -10820871.706 6  -8431831.79721        18.750           0.969
  22293779.501    -9523690.360 6  -7231565.90421        12.000           0.375
  20172109.313    -2265196.047 6  -1765088.32822        18.750           2.094
 91  5 20 19 11 14.9970000  0  5G18G16G11G 6G19
  21708830.501     6522799.936 6   5082686.80521        19.000           1.188
  22554591.603    -8124931.970 5  -6152982.02021        10.750           0.469
  22211095.220   -10833506.404 6  -8441677.01321        19.000           0.875
  22285331.681    -9568134.970 6  -7266198.01521        12.500           0.500
  20172382.329    -2263767.735 6  -1763975.37122        18.500           2.031
 91  5 20 19 11 29.9970000  0  5G18G16G11G 6G19
  21715417.649     6557422.349 6   5109665.21421        18.750           1.094
  22552760.118    -8134567.038 5  -6160489.92821        11.500           0.469
  22208721.126   -10845987.417 6  -8451402.48021        19.000           1.031
  22276868.009    -9612560.538 5  -7300815.27821        11.750           0.531
  20172662.688    -2262283.840 6  -1762819.10122        18.750           2.094
 91  5 20 19 11 44.9970000  0  5G18G16G11G 6G19
  21722017.962     6592103.300 6   5136689.23921        18.750           1.219
  22550948.321    -8144077.418 5  -6167900.62221        10.750           0.500
  22206374.274   -10858324.721 6  -8461015.95921        19.500           0.938
  22268422.665    -9656976.938 5  -7335425.41221        11.250           0.438
  20172956.181    -2260754.304 6  -1761627.27022        19.000           2.063
 91  5 20 19 11 59.9970000  0  5G18G16G11G 6G19
  21728630.009     6626841.657 6   5163757.98921        18.500           1.094
  22549161.985    -8153463.846 5  -6175214.75521        11.000           0.469
  22204052.048   -10870519.127 6  -8470518.08721        19.500           1.031
  22259965.540    -9701385.253 5  -7370029.22521        11.250           0.563
  20173254.556    -2259179.786 6  -1760400.38722        19.250           2.125
 91  5 20 19 12 14.9970000  0  5G18G16G11G 6G19
  21735250.157     6661643.264 6   5190876.03121        18.250           1.094
  22547401.782    -8162720.077 5  -6182427.44421        10.750           0.438
  22201760.728   -10882564.116 6  -8479903.78721        19.500           0.906
  22251517.306    -9745778.978 5  -7404621.68121        10.750           0.563
  20173565.118    -2257553.869 6  -1759133.45022        18.750           2.031
 91  5 20 19 12 29.9970000  0  5G18G16G11G 6G19
  21741886.392     6696514.853 6   5218048.60021        18.250           1.094
  22545667.774    -8171839.766 5  -6189533.72421        10.500           0.375
  22199497.962   -10894452.866 6  -8489167.75221        19.250           0.844
  22243079.345    -9790151.316 5  -7439197.46821        11.250           0.500
  20173883.626    -2255869.721 6  -1757821.13722        18.750           1.969
 91  5 20 19 12 44.9970000  0  5G18G16G11G 6G19
  21748536.149     6731457.057 6   5245276.20221        18.250           1.094
  22543957.853    -8180821.917 5  -6196532.84621        10.500           0.438
  22197265.024   -10906184.598 6  -8498309.35021        19.250           0.844
  22234631.532    -9834501.426 5  -7473755.92821        11.250           0.563
  20174217.243    -2254126.695 6  -1756462.94522        18.750           2.156
 91  5 20 19 12 59.9970000  0  5G18G16G11G 6G19
  21755195.079     6766456.970 6   5272548.76621        18.250           1.094
  22542270.587    -8189679.285 5  -6203434.72121        10.250           0.438
  22195058.931   -10917771.942 6  -8507338.45021        19.250           0.844
  22226189.407    -9878842.021 5  -7508306.98221        10.250           0.531
  20174558.743    -2252337.343 6  -1755068.65522        18.500           2.063
 91  5 20 19 13 14.9970000  0  5G18G16G11G 6G19
  21761871.626     6801521.874 6   5299871.97221        19.000           1.094
  22540611.524    -8198404.266 5  -6210233.46821        10.750           0.469
  22192885.712   -10929207.257 6  -8516249.08221        19.250           0.938
  22217760.259    -9923165.499 5  -7542844.70021        10.750           0.531
  20174908.290    -2250493.805 6  -1753632.14822        18.500           2.031
 91  5 20 19 13 29.9970000  0  5G18G16G11G 6G19
  21768554.532     6836650.840 6   5327245.09321        18.000           1.125
  22538974.431    -8206997.874 5  -6216929.81821        10.000           0.438
  22190736.142   -10940491.266 6  -8525041.81221        19.500           0.781
  22209335.751    -9967472.630 5  -7577369.67121        11.500           0.625
  20175267.751    -2248596.974 6  -1752154.10722        19.500           2.094
 91  5 20 19 13 44.9970000  0  5G18G16G11G 6G19
  21775250.524     6871843.953 6   5354668.20921        18.000           1.000
  22537367.501    -8215460.135 5  -6223523.83521        11.000           0.406
  22188619.274   -10951623.703 6  -8533716.44121        19.250           0.906
  22200904.157   -10011763.207 5  -7611881.75521        11.750           0.563
  20175640.556    -2246646.615 6  -1750634.35822        18.500           2.000
 91  5 20 19 13 59.9970000  0  5G18G16G11G 6G19
  21781958.532     6907096.767 6   5382137.84321        17.750           1.188
  22535777.024    -8223794.899 5  -6230018.48121        10.000           0.438
  22186528.259   -10962608.438 6  -8542275.97421        19.000           0.875
  22192478.079   -10056041.171 6  -7646384.00521        12.750           0.688
  20176021.360    -2244646.575 6  -1749075.90122        18.250           2.063
 91  5 20 19 14 14.9970000  0  5G18G16G11G 6G19
  21788681.751     6942415.524 6   5409658.85721        18.250           1.250
  22534219.532    -8231995.861 5  -6236408.90521        10.250           0.469
  22184467.173   -10973439.083 6  -8550715.44421        19.000           0.813
  22184055.829   -10100300.122 6  -7680871.44221        13.500           0.594
  20176413.821    -2242590.402 6  -1747473.70222        18.250           1.938
 91  5 20 19 14 29.9970000  0  5G18G16G11G 6G19
  21795416.509     6977803.776 6   5437234.02321        18.000           1.125
  22532685.993    -8240059.438 5  -6242692.24121        10.250           0.500
  22182434.806   -10984111.908 6  -8559031.92421        19.000           0.813
  22175634.181   -10144536.383 6  -7715341.21321        12.500           0.594
  20176815.548    -2240474.425 6  -1745824.90022        18.000           2.031
 91  5 20 19 14 44.9970000  0  5G18G16G11G 6G19
  21802160.134     7013249.467 6   5464853.93621        17.500           1.125
  22531173.165    -8247997.659 5  -6248877.92121         9.750           0.438
  22180432.821   -10994638.689 6  -8567234.61121        19.250           0.844
  22167214.313   -10188761.669 5  -7749802.42821        11.250           0.438
  20177227.321    -2238310.524 6  -1744138.75222        18.250           2.031
 91  5 20 19 14 59.9970000  0  5G18G16G11G 6G19
  21808917.485     7048757.541 6   5492522.46921        17.750           1.063
  22529689.806    -8255805.242 5  -6254961.80021         9.750           0.469
  22178458.384   -11005014.003 6  -8575319.26221        19.500           0.844
  22158800.962   -10232970.607 5  -7784250.88321        10.750           0.500
  20177646.110    -2236093.246 6  -1742411.01622        19.250           2.094
 91  5 20 19 15 14.9970000  0  5G18G16G11G 6G19
  21815686.181     7084326.760 6   5520238.64421        17.500           1.000
  22528224.220    -8263483.447 5  -6260944.84621         9.250           0.469
  22176512.220   -11015239.056 6  -8583286.84421        19.750           0.813
  22150398.001   -10277164.461 5  -7818687.59721        11.750           0.594
  20178080.149    -2233823.638 6  -1740642.50622        18.500           1.969
 91  5 20 19 15 29.9970000  0  5G18G16G11G 6G19
  21822463.759     7119957.160 6   5548002.50521        16.750           0.938
  22526789.415    -8271032.631 5  -6266827.37921        10.000           0.438
  22174595.243   -11025313.642 6  -8591137.17221        19.250           0.813
  22141997.423   -10321342.971 6  -7853112.35421        12.000           0.531
  20178522.868    -2231501.436 6  -1738833.00822        18.000           1.969
 91  5 20 19 15 44.9970000  0  5G18G16G11G 6G19
  21829257.220     7155651.714 6   5575816.34721        16.500           1.000
  22525377.118    -8278449.185 5  -6272606.54621         9.750           0.531
  22172707.985   -11035234.379 6  -8598867.61521        19.000           0.781
  22133594.532   -10365502.833 6  -7887522.57521        12.500           0.688
  20178974.509    -2229123.299 6  -1736979.92722        18.250           2.000
 91  5 20 19 15 59.9970000  0  5G18G16G11G 6G19
  21836064.923     7191409.714 6   5603679.61921        17.500           0.969
  22523993.485    -8285733.546 5  -6278282.72021        10.250           0.469
  22170848.743   -11045001.891 6  -8606478.66221        19.000           0.813
  22125192.399   -10409644.549 6  -7921918.66621        13.000           0.500
  20179438.782    -2226689.772 6  -1735083.69222        17.500           1.938
 91  5 20 19 16 14.9970000  0  5G18G16G11G 6G19
  21842879.688     7227225.941 6   5631588.26721        17.250           1.063
  22522629.462    -8292890.788 5  -6283859.82721        10.000           0.500
  22169019.423   -11054620.943 6  -8613974.03321        19.000           0.813
  22116796.532   -10453773.008 6  -7956304.42421        13.750           0.469
  20179911.032    -2224205.463 6  -1733147.88122        18.250           1.938
 91  5 20 19 16 29.9970000  0  5G18G16G11G 6G19
  21849706.993     7263103.035 6   5659544.34921        16.750           0.938
  22521296.845    -8299918.312 5  -6289335.87621        10.500           0.594
  22167216.931   -11064088.535 6  -8621351.37821        19.000           0.813
  22108407.173   -10497885.232 6  -7990677.53921        13.750           0.500
  20180394.907    -2221667.543 6  -1731170.29822        17.750           2.125
 91  5 20 19 16 44.9970000  0  5G18G16G11G 6G19
  21856542.853     7299033.558 6   5687542.06321        17.000           0.969
  22519978.517    -8306823.803 5  -6294716.80321        10.000           0.469
  22165443.001   -11073412.176 6  -8628616.54821        19.000           0.750
  22100008.774   -10541988.728 6  -8025043.84821        13.250           0.563
  20180885.009    -2219083.650 6  -1729156.89422        18.000           2.031
 91  5 20 19 16 59.9970000  0  5G18G16G11G 6G19
  21863391.517     7335016.141 6   5715580.33721        17.500           0.969
  22518686.235    -8313608.292 5  -6300003.47721         9.750           0.594
  22163694.470   -11082592.875 6  -8635770.34621        19.250           0.844
  22091614.243   -10586084.469 6  -8059404.11621        13.000           0.563
  20181383.048    -2216454.685 6  -1727108.35922        19.000           2.094
 91  5 20 19 17 14.9970000  0  5G18G16G11G 6G19
  21870248.915     7371059.146 6   5743665.70021        16.750           0.906
  22517422.313    -8320263.059 5  -6305189.05021        10.500           0.563
  22161976.704   -11091621.981 6  -8642806.01321        19.250           0.781
  22083234.767   -10630163.730 6  -8093751.53221        13.750           0.500
  20181895.407    -2213771.878 6  -1725017.87122        18.000           2.031
 91  5 20 19 17 29.9970000  0  5G18G16G11G 6G19
  21877121.962     7407162.893 6   5771798.39021        17.000           0.938
  22516182.071    -8326788.079 5  -6310273.51721        10.250           0.438
  22160289.188   -11100498.901 6  -8649723.09921        19.000           0.719
  22074845.188   -10674226.051 6  -8128085.75721        14.750           0.625
  20182415.970    -2211034.698 6  -1722885.01622        18.500           2.031
 91  5 20 19 17 44.9970000  0  5G18G16G11G 6G19
  21884005.407     7443330.739 6   5799981.02621        17.250           0.781
  22514963.290    -8333179.900 5  -6315254.20521        10.250           0.594
  22158628.423   -11109220.250 6  -8656518.96621        19.250           0.688
  22066473.923   -10718267.965 6  -8162404.07621        15.000           0.625
  20182950.493    -2208239.706 6  -1720707.11922        18.000           2.000
 91  5 20 19 17 59.9970000  0  5G18G16G11G 6G19
  21890897.157     7479551.770 6   5828205.11121        17.500           0.844
  22513772.845    -8339449.147 5  -6320139.36521        11.000           0.531
  22156997.001   -11117796.533 6  -8663201.78421        19.500           0.656
  22058086.118   -10762300.076 6  -8196714.76521        14.250           0.594
  20183488.415    -2205397.325 6  -1718492.29222        18.500           2.063
 91  5 20 19 18 14.9970000  0  5G18G16G11G 6G19
  21897800.087     7515832.832 6   5856475.97621        16.750           0.813
  22512601.563    -8345588.900 5  -6324923.62321        10.000           0.469
  22155393.978   -11126220.553 7  -8669765.95121        20.250           0.688
  22049712.407   -10806315.125 6  -8231012.15021        13.500           0.531
  20184043.478    -2202500.396 6  -1716234.96022        18.250           2.031
 91  5 20 19 18 29.9970000  0  5G18G16G11G 6G19
  21904716.454     7552175.435 6   5884794.78321        17.000           0.844
  22511461.001    -8351597.495 5  -6329605.70121        10.750           0.469
  22153820.993   -11134490.704 6  -8676210.23021        19.750           0.750
  22041340.149   -10850311.466 6  -8265294.96221        13.500           0.625
  20184603.212    -2199547.197 6  -1713933.78222        18.250           1.969
 91  5 20 19 18 44.9970000  0  5G18G16G11G 6G19
  21911644.063     7588577.872 6   5913160.21321        17.500           0.813
  22510338.907    -8357476.498 5  -6334186.75821        10.500           0.500
  22152275.087   -11142608.572 6  -8682535.83521        19.500           0.750
  22032963.298   -10894290.580 6  -8299564.35321        13.250           0.500
  20185175.040    -2196539.185 6  -1711589.89022        18.250           2.094
 91  5 20 19 18 59.9970000  0  5G18G16G11G 6G19
  21918582.212     7625038.959 6   5941571.36121        17.000           0.906
  22509248.173    -8363226.916 5  -6338667.67521        10.750           0.500
  22150758.173   -11150574.808 6  -8688743.29321        19.500           0.781
  22024601.024   -10938253.285 6  -8333820.95921        12.250           0.500
  20185759.048    -2193477.297 6  -1709204.02222        17.750           2.156
 91  5 20 19 19 14.9970000  0  5G18G16G11G 6G19
  21925531.563     7661559.224 6   5970028.61021        17.000           0.875
  22508177.142    -8368848.285 5  -6343047.98921        11.000           0.531
  22149273.665   -11158388.803 6  -8694832.11821        19.250           0.875
  22016241.563   -10982198.873 6  -8368064.22021        12.500           0.625
  20186351.321    -2190360.590 6  -1706775.43022        18.250           2.000
 91  5 20 19 19 29.9970000  0  5G18G16G11G 6G19
  21932491.493     7698138.392 6   5998531.75221        17.000           0.813
  22507133.751    -8374340.797 5  -6347327.91821        10.500           0.563
  22147814.149   -11166050.368 6  -8700802.17221        19.000           0.750
  22007878.017   -11026127.287 6  -8402294.10021        13.000           0.469
  20186955.103    -2187188.918 6  -1704304.01022        18.750           2.031
 91  5 20 19 19 44.9970000  0  5G18G16G11G 6G19
  21939464.563     7734774.207 6   6027079.03221        16.750           0.813
  22506111.970    -8379706.683 5  -6351509.18221        11.500           0.500
  22146384.634   -11173561.683 6  -8706655.15021        19.250           0.781
  21999521.188   -11070040.511 6  -8436512.14821        13.750           0.469
  20187569.173    -2183964.355 6  -1701791.38822        18.250           2.000
 91  5 20 19 19 59.9970000  0  5G18G16G11G 6G19
  21946442.962     7771457.712 6   6055663.47821        16.500           0.781
  22505113.438    -8384954.323 5  -6355598.27321        10.500           0.438
  22144982.673   -11180931.445 6  -8712397.81921        19.250           0.750
  21991166.728   -11113947.289 6  -8470725.16221        13.750           0.500
  20188190.282    -2180695.607 6  -1699244.32922        18.250           2.031
 91  5 20 19 20 14.9970000  0  5G18G16G11G 6G19
  21953435.298     7808192.280 6   6084287.70721        16.500           0.781
  22504139.063    -8390080.724 5  -6359592.92021        11.250           0.438
  22143606.595   -11188156.301 6  -8718027.58421        18.750           0.875
  21982816.595   -11157844.089 6  -8504930.41621        13.750           0.656
  20188822.649    -2177379.235 6  -1696660.16322        17.750           2.094
 91  5 20 19 20 29.9970000  0  5G18G16G11G 6G19
  21960434.931     7844978.420 6   6112952.11521        16.250           0.813
  22503185.993    -8395085.566 5  -6363492.83221        10.500           0.406
  22142260.149   -11195235.397 6  -8723543.76321        18.500           0.813
  21974462.321   -11201730.117 6  -8539127.26521        13.500           0.438
  20189461.790    -2174014.240 6  -1694038.10322        18.250           2.188
 91  5 20 19 20 44.9970000  0  5G18G16G11G 6G19
  21967444.626     7881816.718 6   6141657.17421        15.750           0.750
  22502254.345    -8399968.019 5  -6367297.38521        10.500           0.438
  22140941.751   -11202168.007 6  -8728945.80221        19.000           0.906
  21966111.681   -11245604.716 6  -8573315.21621        13.000           0.563
  20190112.290    -2170600.010 6  -1691377.67622        18.000           2.094
 91  5 20 19 20 59.9970000  0  5G18G16G11G 6G19
  21974466.478     7918714.809 6   6170408.83621        16.000           0.781
  22501351.985    -8404720.062 5  -6371000.30821        11.250           0.375
  22139652.142   -11208945.944 6  -8734227.31321        19.000           0.813
  21957763.438   -11289459.765 6  -8607487.93221        12.500           0.500
  20190772.618    -2167128.376 6  -1688672.51922        18.250           2.094
 91  5 20 19 21 14.9970000  0  5G18G16G11G 6G19
  21981497.993     7955661.112 6   6199198.06521        16.750           0.656
  22500470.540    -8409353.089 5  -6374610.49521        11.500           0.469
  22138388.712   -11215580.584 6  -8739397.16821        19.250           0.813
  21949416.345   -11333306.551 5  -8641654.21421        11.750           0.594
  20191443.040    -2163610.539 6  -1685931.36922        18.250           2.125
 91  5 20 19 21 29.9970000  0  5G18G16G11G 6G19
  21988539.188     7992662.510 6   6228030.22221        16.500           0.719
  22499611.126    -8413860.208 5  -6378122.58421        11.000           0.438
  22137154.868   -11222064.869 6  -8744449.86821        18.500           0.781
  21941074.384   -11377137.817 5  -8675808.40421        10.750           0.563
  20192118.673    -2160039.395 6  -1683148.67422        19.750           2.125
 91  5 20 19 21 44.9970000  0  5G18G16G11G 6G19
  21995593.329     8029725.868 6   6256910.67321        16.500           0.656
  22498778.962    -8418234.713 5  -6381531.31821        11.500           0.375
  22135951.251   -11228391.937 6  -8749380.03721        19.000           0.844
  21932739.345   -11420946.665 5  -8709945.12421        11.000           0.656
  20192814.345    -2156408.065 6  -1680319.08322        18.500           2.063
 91  5 20 19 21 59.9970000  0  5G18G16G11G 6G19
  22002654.595     8066838.434 6   6285829.46021        16.500           0.688
  22497971.321    -8422489.076 5  -6384846.45321        11.250           0.563
  22134774.798   -11234574.085 6  -8754197.29621        18.750           0.719
  21924410.782   -11464745.575 6  -8744074.08121        12.250           0.594
  20193511.493    -2152728.812 6  -1677452.14722        19.000           2.156
 91  5 20 19 22 14.9970000  0  5G18G16G11G 6G19
  22009727.329     8104011.456 6   6314795.33621        15.750           0.813
  22497186.142    -8426611.785 6  -6388058.99021        12.000           0.469
  22133628.782   -11240599.762 6  -8758892.63221        18.250           0.813
  21916084.868   -11508522.896 6  -8778186.24121        13.250           0.625
  20194225.384    -2148989.901 6  -1674538.72822        18.750           2.125
 91  5 20 19 22 29.9970000  0  5G18G16G11G 6G19
  22016813.306     8141243.828 6   6343807.47021        15.500           0.750
  22496425.353    -8430603.911 5  -6391169.77721        11.500           0.406
  22132509.751   -11246470.141 6  -8763466.94621        18.250           0.594
  21907753.540   -11552279.651 6  -8812282.36321        13.000           0.563
  20194946.540    -2145192.490 6  -1671579.72422        19.000           2.125
 91  5 20 19 22 44.9970000  0  5G18G16G11G 6G19
  22023909.524     8178538.571 6   6372868.19521        15.500           0.781
  22495691.938    -8434462.418 5  -6394176.45021        11.500           0.375
  22131424.087   -11252181.833 6  -8767917.61821        18.500           0.719
  21899433.329   -11596012.447 6  -8846359.81621        13.000           0.531
  20195681.970    -2141333.178 6  -1668572.48822        18.500           2.094
 91  5 20 19 22 59.9970000  0  5G18G16G11G 6G19
  22031020.556     8215903.014 6   6401983.23621        15.750           0.750
  22494987.228    -8438180.027 5  -6397073.33221        11.750           0.500
  22130368.001   -11257727.197 6  -8772238.67321        18.500           0.656
  21891114.813   -11639713.613 6  -8880412.62821        12.500           0.688
  20196428.532    -2137404.181 6  -1665510.95022        18.500           2.156
 91  5 20 19 23 14.9970000  0  5G18G16G11G 6G19
  22038143.267     8253322.237 6   6431140.96421        15.750           0.656
  22494302.063    -8441771.616 5  -6399872.01321        11.500           0.438
  22129342.267   -11263121.211 6  -8776441.80421        18.500           0.719
  21882797.173   -11683398.020 6  -8914452.38321        12.500           0.594
  20197187.048    -2133420.416 6  -1662406.73722        18.500           2.219
 91  5 20 19 23 29.9970000  0  5G18G16G11G 6G19
  22045273.118     8290799.773 6   6460344.11721        15.500           0.750
  22493642.298    -8445233.528 5  -6402569.66521        11.750           0.500
  22128345.681   -11268360.087 6  -8780524.04621        18.500           0.781
  21874493.196   -11727061.759 6  -8948476.03321        12.750           0.500
  20197955.720    -2129378.032 6  -1659256.84322        19.000           2.156
 91  5 20 19 23 44.9970000  0  5G18G16G11G 6G19
  22052414.954     8328329.157 6   6489587.67521        15.750           0.656
  22493006.470    -8448572.100 5  -6405171.18021        11.750           0.500
  22127378.087   -11273449.852 6  -8784490.10121        18.250           0.781
  21866186.110   -11770710.949 6  -8982488.34021        13.250           0.563
  20198735.360    -2125283.018 6  -1656065.94022        18.500           2.156
 91  5 20 19 23 59.9970000  0  5G18G16G11G 6G19
  22059568.446     8365918.165 6   6518877.69721        15.500           0.656
  22492397.657    -8451779.394 5  -6407670.42521        11.250           0.313
  22126438.923   -11278382.405 6  -8788333.65121        18.250           0.750
  21857887.938   -11814337.388 6  -9016482.93521        13.500           0.625
  20199525.587    -2121127.223 6  -1652827.68022        19.000           2.156
 91  5 20 19 24 14.9970000  0  5G18G16G11G 6G19
  22066727.978     8403558.611 6   6548207.80521        15.000           0.750
  22491811.220    -8454863.810 5  -6410073.90721        11.500           0.438
  22125528.384   -11283166.241 6  -8792061.31821        18.250           0.719
  21849583.868   -11857949.461 6  -9050466.32521        13.000           0.625
  20200328.556    -2116919.051 6  -1649548.60522        18.750           2.188
 91  5 20 19 24 29.9970000  0  5G18G16G11G 6G19
  22073904.665     8441259.235 6   6577584.78421        15.250           0.625
  22491247.790    -8457816.259 5  -6412374.56421        11.500           0.406
  22124646.321   -11287792.090 6  -8795665.87921        18.250           0.813
  21841288.634   -11901537.872 6  -9084431.27921        12.750           0.563
  20201139.532    -2112649.158 6  -1646221.43422        19.250           2.250
 91  5 20 19 24 44.9970000  0  5G18G16G11G 6G19
  22081090.056     8479017.437 6   6607006.64421        15.500           0.625
  22490712.165    -8460639.434 5  -6414574.49021        11.500           0.469
  22123797.321   -11292262.528 6  -8799149.33921        18.250           0.813
  21833000.774   -11945105.172 6  -9118379.78721        13.250           0.594
  20201965.024    -2108319.791 6  -1642847.92022        18.750           2.125
 91  5 20 19 24 59.9960000  0  5G18G16G11G 6G19
  22088285.106     8516831.672 6   6636472.17121        15.000           0.656
  22490200.715    -8463331.956 5  -6416672.60521        11.750           0.500
  22122976.676   -11296575.859 6  -8802510.37621        18.250           0.844
  21824713.840   -11988646.934 6  -9152308.38621        13.750           0.563
  20202797.652    -2103929.892 6  -1639427.23522        19.000           2.156
 91  5 20 19 25 14.9960000  0  5G18G16G11G 6G19
  22095494.168     8554700.013 6   6665979.84721        15.750           0.531
  22489710.621    -8465901.207 5  -6418674.67021        11.500           0.500
  22122182.621   -11300739.456 6  -8805754.73921        18.000           0.813
  21816432.465   -12032175.767 6  -9186226.91821        13.500           0.625
  20203645.223    -2099485.709 6  -1635964.25422        18.750           2.156
 91  5 20 19 25 29.9960000  0  5G18G16G11G 6G19
  22102707.879     8592620.987 6   6695528.54521        14.750           0.625
  22489246.871    -8468345.489 6  -6420579.33221        12.000           0.500
  22121421.434   -11304751.784 6  -8808881.23621        17.750           0.719
  21808151.910   -12075687.315 6  -9220131.98221        13.500           0.656
  20204501.473    -2094986.033 6  -1632458.03322        18.500           2.125
 91  5 20 19 25 44.9960000  0  5G18G16G11G 6G19
  22109935.012     8630600.360 6   6725122.74221        14.750           0.563
  22488806.598    -8470659.270 5  -6422382.32921        11.500           0.438
  22120686.512   -11308607.062 6  -8811885.35621        17.750           0.781
  21799874.387   -12119175.805 6  -9254019.07321        13.250           0.625
  20205370.668    -2090425.042 6  -1628904.03022        18.750           2.063
 91  5 20 19 25 59.9960000  0  5G18G16G11G 6G19
  22117174.668     8668638.173 6   6754762.48521        15.000           0.656
  22488387.238    -8472842.438 5  -6424083.54421        11.500           0.406
  22119983.582   -11312304.896 6  -8814766.79121        17.500           0.750
  21791600.699   -12162640.686 6  -9287887.76621        13.000           0.750
  20206246.832    -2085802.136 6  -1625301.78722        19.500           2.156
 91  5 20 19 26 14.9960000  0  5G18G16G11G 6G19
  22124423.762     8706737.501 6   6784450.13221        14.500           0.594
  22488001.918    -8474891.913 5  -6425680.56921        11.500           0.406
  22119311.941   -11315842.188 6  -8817523.12521        17.750           0.750
  21783337.598   -12206078.826 6  -9321735.63121        13.750           0.656
  20207141.160    -2081114.213 6  -1621648.87922        18.500           2.219
 91  5 20 19 26 29.9960000  0  5G18G16G11G 6G19
  22131683.512     8744892.492 6   6814181.19221        13.750           0.594
  22487635.277    -8476813.450 6  -6427177.92521        12.000           0.594
  22118666.106   -11319224.379 6  -8820158.59521        17.500           0.844
  21775074.113   -12249495.677 6  -9355566.90421        14.000           0.688
  20208045.762    -2076366.843 6  -1617949.64922        18.250           2.219
 91  5 20 19 26 44.9960000  0  5G18G16G11G 6G19
  22138956.543     8783106.333 6   6843958.08621        14.500           0.625
  22487293.348    -8478603.897 5  -6428573.12121        11.000           0.469
  22118052.559   -11322448.140 6  -8822670.62621        17.000           0.781
  21766816.363   -12292887.830 6  -9389378.92421        14.000           0.719
  20208960.379    -2071556.391 6  -1614201.26322        18.500           2.094
 91  5 20 19 26 59.9960000  0  5G18G16G11G 6G19
  22146237.707     8821368.194 6   6873772.41721        14.500           0.500
  22486977.566    -8480273.851 5  -6429874.42621        11.500           0.375
  22117467.449   -11325524.229 6  -8825067.59021        17.000           0.844
  21758562.629   -12336265.782 6  -9423179.88221        14.250           0.781
  20209885.941    -2066693.507 6  -1610412.02722        18.250           2.063
 91  5 20 19 27 14.9960000  0  5G18G16G11G 6G19
  22153527.473     8859681.531 6   6903626.83321        14.000           0.594
  22486682.191    -8481819.748 5  -6431079.07521        11.500           0.500
  22116910.512   -11328448.813 6  -8827346.50221        17.000           0.906
  21750312.027   -12379625.734 6  -9456966.81221        14.500           0.719
  20210820.973    -2061774.350 6  -1606578.93622        18.750           2.094
 91  5 20 19 27 29.9960000  0  5G18G16G11G 6G19
  22160830.356     8898049.642 6   6933523.95221        14.250           0.594
  22486409.027    -8483238.237 5  -6432184.44321        11.000           0.469
  22116386.465   -11331218.504 6  -8829504.71321        17.250           0.750
  21742065.676   -12422964.210 6  -9490737.01221        14.500           0.625
  20211767.316    -2056795.348 6  -1602699.21122        19.500           2.094
 91  5 20 19 27 44.9960000  0  5G18G16G11G 6G19
  22168141.184     8936467.260 6   6963459.61021        14.250           0.625
  22486163.949    -8484534.789 5  -6433194.77821        11.750           0.438
  22115885.629   -11333838.459 6  -8831546.24321        17.000           0.781
  21733821.910   -12466286.297 6  -9524494.44521        14.500           0.719
  20212726.949    -2051761.696 6  -1598776.89422        18.500           2.125
 91  5 20 19 27 59.9960000  0  5G18G16G11G 6G19
  22175462.137     8974941.332 6   6993439.29321        13.750           0.625
  22485941.965    -8485702.143 5  -6434104.45721        11.250           0.406
  22115417.996   -11336301.448 6  -8833465.46621        17.250           0.938
  21725582.731   -12509584.599 6  -9558233.34721        14.250           0.688
  20213698.129    -2046665.808 6  -1594806.09022        18.250           2.031
 91  5 20 19 28 14.9960000  0  5G18G16G11G 6G19
  22182793.941     9013472.012 6   7023463.07121        14.000           0.500
  22485745.285    -8486740.174 5  -6434913.36721        11.250           0.406
  22114976.887   -11338607.150 6  -8835262.13521        17.250           0.875
  21717349.762   -12552858.797 6  -9591953.45521        15.000           0.594
  20214678.090    -2041507.401 6  -1590786.57522        18.500           2.188
 91  5 20 19 28 29.9960000  0  5G18G16G11G 6G19
  22190137.098     9052054.633 6   7053527.32121        14.250           0.594
  22485571.207    -8487653.586 5  -6435625.16121        11.250           0.500
  22114566.457   -11340760.199 6  -8836939.84021        17.000           0.813
  21709112.434   -12596113.413 6  -9625658.30521        14.250           0.594
  20215673.254    -2036290.962 6  -1586721.83022        18.000           2.219
 91  5 20 19 28 44.9960000  0  5G18G16G11G 6G19
  22197484.840     9090681.035 6   7083625.69721        13.250           0.500
  22485418.785    -8488450.237 5  -6436245.97921        11.250           0.438
  22114185.816   -11342768.162 6  -8838504.50321        16.750           0.813
  21700889.895   -12639356.054 6  -9659353.83221        14.750           0.688
  20216674.402    -2031024.023 6  -1582617.73522        18.500           2.094
 91  5 20 19 28 59.9960000  0  5G18G16G11G 6G19
  22204847.504     9129357.802 6   7113763.29521        13.500           0.563
  22485291.160    -8489123.380 5  -6436770.55221        11.250           0.469
  22113832.824   -11344624.296 6  -8839950.85821        17.250           0.781
  21692662.941   -12682579.703 6  -9693034.56021        14.500           0.625
  20217688.613    -2025699.750 6  -1578468.96222        18.000           2.156
 91  5 20 19 29 14.9960000  0  5G18G16G11G 6G19
  22212218.223     9168086.349 6   7143941.25421        13.750           0.500
  22485187.184    -8489672.216 5  -6437198.27221        11.000           0.531
  22113507.957   -11346327.578 6  -8841278.09921        17.250           0.875
  21684439.059   -12725783.306 6  -9726699.66221        14.250           0.688
  20218710.996    -2020316.840 6  -1574274.50722        18.250           2.000
 91  5 20 19 29 29.9960000  0  5G18G16G11G 6G19
  22219597.793     9206870.112 6   7174162.24021        13.000           0.500
  22485108.809    -8490092.677 5  -6437525.94921        11.750           0.375
  22113215.457   -11347874.099 6  -8842483.20021        17.250           0.844
  21676225.777   -12768962.754 6  -9760345.95221        14.000           0.656
  20219742.238    -2014871.459 6  -1570031.36722        19.500           2.156
 91  5 20 19 29 44.9960000  0  5G18G16G11G 6G19
  22226986.387     9245698.113 6   7204417.69121        13.750           0.656
  22485049.363    -8490395.782 5  -6437762.17921        11.500           0.375
  22112948.301   -11349274.466 6  -8843574.41421        16.750           0.969
  21668008.176   -12812128.606 6  -9793981.64321        14.000           0.594
  20220793.145    -2009374.120 6  -1565747.74922        18.750           2.188
 91  5 20 19 29 59.9960000  0  5G18G16G11G 6G19
  22234384.926     9284570.814 6   7234707.96921        13.750           0.563
  22485014.754    -8490581.169 5                        11.000
  22112709.270   -11350528.361 6  -8844551.49121        16.500           0.813
  21659800.793   -12855280.529 6  -9827606.47521        14.250           0.719
  20221847.191    -2003824.397 6  -1561423.30522        19.750           2.219
 91  5 20 19 30 14.9960000  0  5G18G16G11G 6G19
  22241787.488     9323487.913 6   7265032.86521        13.000           0.531
  22485001.879    -8490648.794 5                        11.500
  22112497.535   -11351635.462 6  -8845414.18021        17.250           0.844
  21651588.473   -12898418.027 6  -9861220.07221        14.500           0.750
  20222914.856    -1998221.684 6  -1557057.57122        18.750           2.219
 91  5 20 19 30 29.9960000  0  5G18G16G11G 6G19
  22249201.152     9362446.005 6   7295389.67421        13.250           0.625
  22485009.488    -8490602.196 5                        11.000
  22112314.941   -11352599.243 6  -8846165.19121        17.250           0.781
  21643383.496   -12941544.441 6  -9894825.02621        14.000           0.625
  20223989.824    -1992569.366 6  -1552653.18122        19.000           2.156
 91  5 20 19 30 44.9960000  0  5G18G16G11G 6G19
  22256623.793     9401443.200 6   7325776.97121        13.750           0.563
  22485039.184    -8490443.123 5                        10.750
  22112158.910   -11353421.425 6  -8846805.86321        17.250           0.844
  21635178.637   -12984661.420 6  -9928422.63821        14.250           0.719
  20225075.176    -1986869.075 6  -1548211.40722        18.250           2.188
 91  5 20 19 30 59.9960000  0  5G18G16G11G 6G19
  22264052.895     9440491.964 6   7356204.45521        12.750           0.500
  22485097.363    -8490159.301 5                        11.250
  22112033.973   -11354089.588 6  -8847326.51621        17.250           0.844
  21626974.941   -13027756.310 6  -9962003.03421        14.000           0.781
  20226168.285    -1981108.284 6  -1543722.49322        18.750           2.125
 91  5 20 19 31 14.9960000  0  5G18G16G11G 6G19
  22271496.660     9479588.615 6   7386669.24221        13.750           0.563
  22485172.676    -8489754.007 5  -6437262.42221        11.000           0.469
  22111934.879   -11354606.895 6  -8847729.62821        16.750           0.938
  21618779.449   -13070832.409 6  -9995568.77721        13.750           0.750
  20227279.840    -1975290.116 6  -1539188.87222        18.500           2.156
 91  5 20 19 31 29.9960000  0  5G18G16G11G 6G19
  22278947.816     9518740.182 6   7417176.81221        14.250           0.594
  22485276.270    -8489220.314 5  -6436846.59921        11.000           0.438
  22111864.652   -11354966.331 6  -8848009.73021        17.000           0.875
  21610589.551   -13113882.304 6 -10029114.10221        14.250           0.813
  20228400.363    -1969407.345 6  -1534604.91122        18.000           2.188
 91  5 20 19 31 44.9960000  0  5G18G16G11G 6G19
  22286406.871     9557942.512 6   7447723.95121        13.500           0.563
  22485397.957    -8488562.192 5  -6436333.82921        10.000           0.406
  22111826.559   -11355171.744 6                        16.500
  21602399.043   -13156909.847 6 -10062642.02421        14.000           0.750
  20229529.020    -1963463.675 6  -1529973.49422        18.250           2.281
 91  5 20 19 31 59.9960000  0  5G18G16G11G 6G19
  22293875.691     9597192.727 6   7478308.38921        13.750           0.563
  22485546.996    -8487782.847 5  -6435726.61721        10.000           0.375
  22111815.824   -11355225.877 6                        16.750
  21594215.770   -13199917.719 6 -10096154.60221        14.500           0.813
  20230671.043    -1957461.707 6  -1525296.64722        18.750           2.094
 91  5 20 19 32 14.9960000  0  5G18G16G11G 6G19
  22301353.285     9636494.874 6   7508933.31721        13.500           0.625
  22485720.246    -8486877.950 5  -6435021.55121        10.500           0.438
  22111834.293   -11355124.580 6                        17.000
  21586035.238   -13242901.662 6 -10129648.53721        14.250           0.719
  20231823.590    -1951397.159 6  -1520571.03522        18.250           2.188
 91  5 20 19 32 29.9960000  0  5G18G16G11G 6G19
  22308836.738     9675843.022 6   7539594.07921        12.500           0.500
  22485915.902    -8485853.505 5  -6434223.35521        10.750           0.375
  22111882.863   -11354873.663 6                        17.250
  21577859.473   -13285867.234 6 -10163128.16621        14.250           0.719
  20232990.527    -1945275.671 6  -1515801.06222        18.500           2.125
 91  5 20 19 32 44.9960000  0  5G18G16G11G 6G19
  22316335.988     9715236.395 6   7570290.06721        13.250           0.594
  22486133.059    -8484710.137 5  -6433332.45321        10.250           0.375
  22111959.043   -11354473.651 6                        17.000
  21569686.684   -13328814.899 6 -10196593.82921        14.000           0.750
  20234168.066    -1939097.605 6  -1510987.00122        18.750           2.125
 91  5 20 19 32 59.9960000  0  5G18G16G11G 6G19
  22323843.020     9754681.547 6   7601026.39421        13.500           0.563
  22486372.426    -8483441.491 5  -6432343.96121         9.500           0.313
  22112062.668   -11353918.073 6  -8847192.99521        17.000           0.688
  21561516.645   -13371738.000 6 -10230040.36821        13.500           0.750
  20235352.809    -1932856.478 6  -1506123.80522        18.750           2.188
 91  5 20 19 33 14.9960000  0  5G18G16G11G 6G19
  22331358.949     9794179.420 6   7631803.84421        13.250           0.594
  22486636.457    -8482046.279 5  -6431256.84621         9.750           0.469
  22112199.551   -11353205.611 6  -8846637.84321        17.250           0.750
  21553355.418   -13414635.238 6 -10263466.74721        13.750           0.688
  20236553.348    -1926550.802 6  -1501210.30722        18.250           2.094
 91  5 20 19 33 29.9960000  0  5G18G16G11G 6G19
  22338884.465     9833721.357 6   7662615.59221        14.000           0.500
  22486926.645    -8480533.424 5  -6430078.05821        10.000           0.406
  22112364.871   -11352344.921 6  -8845967.18621        17.250           0.844
  21545194.746   -13457514.862 6 -10296879.39221        13.500           0.688
  20237765.707    -1920189.010 6  -1496253.08322        18.500           2.125
 91  5 20 19 33 44.9960000  0  5G18G16G11G 6G19
  22346417.981     9873309.839 6   7693463.62821        13.500           0.625
  22487238.152    -8478900.191 5  -6428805.45521        10.250           0.375
  22112557.106   -11351333.276 6  -8845178.91921        16.500           0.781
  21537038.723   -13500374.180 6 -10330276.22621        13.500           0.719
  20238985.613    -1913768.344 6  -1491249.98022        18.750           2.156
 91  5 20 19 33 59.9960000  0  5G18G16G11G 6G19
  22353958.488     9912940.470 6   7724344.49421        12.500           0.656
  22487566.434    -8477150.955 5  -6427442.46521         9.000           0.406
  22112777.731   -11350174.994 6  -8844276.37521        17.250           0.875
  21528889.473   -13543217.349 6 -10363660.47721        13.500           0.750
  20240218.043    -1907292.942 6  -1486204.22822        19.500           2.156
 91  5 20 19 34 14.9960000  0  5G18G16G11G 6G19
  22361513.270     9952619.676 6   7755263.21221        13.750           0.594
  22487923.457    -8475279.330 5  -6425984.13221         8.750           0.406
  22113027.441   -11348863.356 6  -8843254.33621        17.250           0.844
  21520740.926   -13586037.491 6 -10397026.77721        13.750           0.844
  20241462.434    -1900755.992 6  -1481110.51722        18.750           2.094
 91  5 20 19 34 29.9960000  0  5G18G16G11G 6G19
  22369067.051     9992333.999 6   7786209.29221        12.500           0.531
  22488301.371    -8473298.681 5  -6424440.83621         9.250           0.375
  22113302.699   -11347411.681 6  -8842123.18221        16.500           0.875
  21512589.926   -13628847.745 6 -10430385.38821        13.750           0.719
  20242714.746    -1894170.668 6  -1475979.11522        19.250           2.094
 91  5 20 19 34 44.9960000  0  5G18G16G11G 6G19
  22376633.145    10032081.109 6   7817180.92921        12.500           0.563
  22488702.691    -8471211.019 5  -6422814.14421        10.000           0.406
  22113604.449   -11345821.992 6  -8840884.48621        17.000           0.875
  21504447.027   -13671650.137 6 -10463737.85421        13.750           0.781
  20243978.660    -1887538.715 6  -1470811.37822        18.750           2.188
 91  5 20 19 34 59.9960000  0  5G18G16G11G 6G19
  22384203.043    10071868.868 6   7848184.21821        12.500           0.563
  22489121.020    -8469008.955 5  -6421098.29721         9.500           0.313
  22113934.629   -11344086.536 6  -8839532.19721        17.000           0.844
  21496306.316   -13714436.707 6 -10497077.99221        14.000           0.844
  20245250.879    -1880852.171 6  -1465601.10322        19.250           2.125
 91  5 20 19 35 14.9960000  0  5G18G16G11G 6G19
  22391781.801    10111694.258 5   7879216.86721        11.500           0.438
  22489556.231    -8466695.233 5  -6419295.45521         8.750           0.469
  22114293.387   -11342208.015 6  -8838068.43721        17.000           0.938
  21488165.012   -13757209.903 6 -10530407.72221        14.500           0.906
  20246532.285    -1874113.719 6  -1460350.38222        19.000           1.938
 91  5 20 19 35 29.9960000  0  5G18G16G11G 6G19
  22399369.340    10151568.894 6   7910287.85221        12.000           0.563
  22490023.918    -8464258.456 5  -6417396.76521         9.250           0.344
  22114680.988   -11340174.947 6  -8836484.25121        17.250           0.969
  21480032.285   -13799958.296 6 -10563718.12421        14.500           0.813
  20247825.660    -1867311.862 6  -1455050.25122        18.500           2.156
 91  5 20 19 35 44.9960000  0  5G18G16G11G 6G19
  22406966.176    10191481.498 6   7941388.44021        12.250           0.625
  22490511.926    -8461709.196 5  -6415410.37721        10.250           0.344
  22115094.621   -11337998.140 6  -8834788.05921        17.250           0.875
  21471899.207   -13842692.369 6 -10597017.36221        14.500           0.844
  20249130.504    -1860457.121 6  -1449708.91222        18.750           2.156
 91  5 20 19 35 59.9960000  0  5G18G16G11G 6G19
  22414567.043    10231435.383 5   7972521.19221        11.750           0.500
  22491019.527    -8459044.533 5  -6413334.06021        10.250           0.375
  22115537.887   -11335674.194 6  -8832977.21221        18.000           0.938
  21463771.012   -13885408.508 6 -10630302.62621        14.250           0.813
  20250445.332    -1853545.872 6  -1444323.54622        19.000           2.094
 91  5 20 19 36 14.9960000  0  5G18G16G11G 6G19
  22422181.824    10271429.929 6   8003685.61821        13.000           0.500
  22491543.973    -8456264.857 5  -6411168.15221         9.000           0.344
  22116005.543   -11333203.596 6  -8831052.08521        17.750           0.875
  21455646.137   -13928107.154 6 -10663574.25921        14.500           0.813
  20251773.098    -1846578.573 6  -1438894.50222        18.750           2.125
 91  5 20 19 36 29.9960000  0  5G18G16G11G 6G19
  22429800.012    10311463.089 6   8034880.13421        13.000           0.500
  22492097.043    -8453372.469 5  -6408914.41121         9.500           0.375
  22116502.848   -11330588.411 6  -8829014.30021        17.750           0.781
  21447524.559   -13970790.148 6 -10696833.69221        14.250           0.906
  20253107.574    -1839557.091 6  -1433423.24322        18.750           2.031
 91  5 20 19 36 44.9960000  0  5G18G16G11G 6G19
  22437425.324    10351539.000 6   8066107.98721        12.250           0.563
  22492667.941    -8450363.113 5  -6406569.52621         9.750           0.344
  22117026.965   -11327824.337 6  -8826860.49621        18.000           0.844
  21439404.082   -14013453.104 6 -10730077.51921        14.000           0.875
  20254458.121    -1832476.940 6  -1427906.26722        18.500           2.094
 91  5 20 19 36 59.9960000  0  5G18G16G11G 6G19
  22445058.621    10391654.698 6   8097366.78921        12.750           0.469
  22493262.996    -8447239.803 5  -6404135.84421        10.500           0.375
  22117583.840   -11324914.170 6  -8824592.85121        18.500           0.844
  21431288.121   -14056098.619 6 -10763307.74621        14.250           0.938
  20255811.949    -1825340.743 6  -1422345.61422        18.750           2.063
 91  5 20 19 37 14.9960000  0  5G18G16G11G 6G19
  22452697.746    10431805.718 5   8128653.17121        11.750           0.500
  22493879.106    -8444007.069 5  -6401616.88421        10.000           0.469
  22118163.613   -11321862.437 6  -8822214.88921        18.250           0.875
  21423178.988   -14098731.037 6 -10796527.77221        14.250           0.875
  20257181.441    -1818152.846 6  -1416744.66922        18.500           2.000
 91  5 20 19 37 29.9960000  0  5G18G16G11G 6G19
  22460346.941    10472000.331 6   8159973.48521        12.250           0.563
  22494516.754    -8440656.308 5  -6399005.98021        10.250           0.375
  22118774.270   -11318660.230 6  -8819719.68621        18.500           0.875
  21415067.996   -14141341.292 6 -10829730.52621        14.250           0.844
  20258561.816    -1810904.331 6  -1411096.49922        19.000           2.063
 91  5 20 19 37 44.9960000  0  5G18G16G11G 6G19
  22468002.004    10512230.484 6   8191321.51121        12.250           0.594
  22495174.918    -8437195.631 5  -6396309.39421        10.000           0.438
  22119412.941   -11315315.574 6  -8817113.47821        18.500           0.875
  21406962.293   -14183937.304 6 -10862922.18621        14.750           0.813
  20259950.012    -1803602.910 6  -1405407.09922        18.500           2.031
 91  5 20 19 37 59.9960000  0  5G18G16G11G 6G19
  22475664.082    10552492.056 5   8222694.01021        11.250           0.438
  22495852.106    -8433629.401 5                         9.750
  22120073.020   -11311832.824 6                        18.250
  21398857.527   -14226523.221 6 -10896105.97121        14.500           0.875
  20261351.488    -1796252.625 6  -1399679.62922        18.500           2.031
 91  5 20 19 38 14.9960000  0  5G18G16G11G 6G19
  22483333.996    10592781.587 6   8254088.29721        12.500           0.563
  22496550.840    -8429960.731 5                        10.250
  22120762.207   -11308215.075 6                        17.750
  21390754.824   -14269101.899 6 -10929284.12621        14.500           0.906
  20262755.840    -1788856.479 6  -1393916.41822        18.500           2.063
 91  5 20 19 38 29.9960000  0  5G18G16G11G 6G19
  22491005.191    10633101.789 5   8285506.48521        11.750           0.469
  22497277.512    -8426187.032 5                         9.750
  22121472.785   -11304459.535 6                        17.750
  21382656.582   -14311670.447 6 -10962454.38321        14.750           0.875
  20264171.606    -1781411.443 6  -1388115.11822        19.000           1.938
 91  5 20 19 38 44.9960000  0  5G18G16G11G 6G19
  22498686.449    10673465.309 5   8316958.43621        11.500           0.469
  22498010.965    -8422295.558 5                        10.500
  22122220.027   -11300553.425 6                        18.000
  21374561.066   -14354215.857 6 -10995606.60821        14.750           0.938
  20265601.731    -1773904.805 6  -1382265.81222        18.250           1.969
 91  5 20 19 38 59.9960000  0  5G18G16G11G 6G19
  22506377.160    10713866.155 6   8348439.43021        12.250           0.531
  22498772.254    -8418292.567 5                        10.750
  22122992.426   -11296502.736 6                        18.500
  21366468.176   -14396743.932 6 -11028745.33821        14.500           0.875
  20267040.707    -1766342.229 6  -1376372.92122        18.000           2.000
 91  5 20 19 39 14.9960000  0  5G18G16G11G 6G19
  22514070.481    10754308.079 5   8379952.46921        11.000           0.375
  22499559.332    -8414173.582 5  -6378372.03821        11.250           0.375
  22123790.051   -11292303.389 6  -8799182.01521        18.500           0.969
  21358378.902   -14439250.352 6 -11061867.17921        14.750           0.875
  20268491.012    -1758719.414 6  -1370433.09422        18.250           2.094
 91  5 20 19 39 29.9960000  0  5G18G16G11G 6G19
  22521776.871    10794802.666 5   8411506.53121        11.750           0.469
  22500366.387    -8409927.673 5  -6375063.59621        10.750           0.406
  22124618.090   -11287943.877 6  -8795785.01721        18.000           0.813
  21350294.840   -14481723.446 6 -11094963.05821        14.750           0.969
  20269957.137    -1751024.780 6  -1364437.29922        18.000           2.000
 91  5 20 19 39 44.9960000  0  5G18G16G11G 6G19
  22529485.777    10835338.696 5   8443092.88321        10.750           0.531
  22501191.856    -8405566.265 5  -6371665.17021        10.250           0.375
  22125477.348   -11283435.340 6  -8792271.90321        18.500           1.000
  21342215.356   -14524174.148 6 -11128041.48621        14.500           1.031
  20271433.238    -1743269.267 6  -1358394.06522        18.250           2.063
 91  5 20 19 39 59.9960000  0  5G18G16G11G 6G19
  22537207.715    10875917.020 5   8474712.20021        10.000           0.469
  22502044.660    -8401088.041 5  -6368175.70521         9.750           0.375
  22126362.871   -11278776.541 6  -8788641.69821        18.000           0.813
  21334143.551   -14566601.124 6 -11161101.42121        14.750           0.938
  20272917.770    -1735451.641 6  -1352302.42922        19.500           1.875
 91  5 20 19 40 14.9960000  0  5G18G16G11G 6G19
  22544936.957    10916527.378 5   8506356.44921        10.750           0.406
  22502917.574    -8396503.382 5  -6364603.33321        10.000           0.375
  22127277.121   -11273977.961 6  -8784902.57321        18.500           0.844
  21326075.082   -14609014.602 6 -11194150.84221        14.750           1.031
  20274418.660    -1727582.033 6  -1346170.29222        18.750           2.000
 91  5 20 19 40 29.9960000  0  5G18G16G11G 6G19
  22552672.207    10957177.017 5   8538031.33921        10.250           0.469
  22503811.481    -8391805.181 5  -6360942.45921        10.500           0.313
  22128219.324   -11269032.112 6  -8781048.69521        18.250           0.719
  21318007.176   -14651406.849 6 -11227183.72021        14.750           1.063
  20275928.465    -1719652.691 6  -1339991.60922        18.750           1.938
 91  5 20 19 40 44.9960000  0  5G18G16G11G 6G19
  22560418.340    10997869.804 5   8569739.82721        11.000           0.406
  22504731.965    -8386989.021 5  -6357189.67721        11.250           0.281
  22129187.785   -11263934.707 6  -8777076.72721        18.000           0.781
  21309942.606   -14693773.566 6 -11260196.70421        14.500           1.063
  20277448.043    -1711659.215 6  -1333762.94022        18.000           1.969
 91  5 20 19 40 59.9960000  0  5G18G16G11G 6G19
  22568169.863    11038600.454 5   8601477.83821        11.500           0.469
  22505670.465    -8382060.399 5  -6353349.24021        11.250           0.375
  22130187.691   -11258691.004 6  -8772990.73421        18.250           0.781
  21301884.356   -14736119.714 6 -11293193.65721        14.500           1.094
  20278980.801    -1703606.846 6  -1327488.39322        17.500           2.000
 91  5 20 19 41 14.9960000  0  5G18G16G11G 6G19
  22575927.816    11079373.933 5   8633249.20721        10.750           0.438
  22506630.145    -8377014.628 5  -6349417.52421        10.750           0.344
  22131214.410   -11253296.196 6  -8768787.00221        18.000           0.813
  21293832.629   -14778440.365 6 -11326170.74621        14.500           1.188
  20280523.059    -1695490.365 6  -1321163.88922        18.000           1.969
 91  5 20 19 41 29.9960000  0  5G18G16G11G 6G19
  22583694.543    11120183.361 5   8665048.60421        11.250           0.469
  22507606.363    -8371858.444 5  -6345399.80221        10.000           0.469
  22132267.324   -11247757.087 6  -8764470.82721        18.000           0.781
  21285779.613   -14820742.037 6 -11359133.05421        14.250           1.063
  20282082.223    -1687316.410 6  -1314794.60222        18.000           1.969
 91  5 20 19 41 44.9960000  0  5G18G16G11G 6G19
  22591466.863    11161032.502 5   8696878.93721        10.750           0.375
  22508611.152    -8366587.690 5  -6341292.80121         9.750           0.438
  22133348.434   -11242069.328 6  -8760038.82421        18.500           0.875
  21277735.871   -14863020.216 6 -11392077.04821        14.250           1.031
  20283648.613    -1679080.493 6  -1308377.03522        18.750           2.031
 91  5 20 19 41 59.9960000  0  5G18G16G11G 6G19
  22599248.731    11201917.367 5   8728737.10021        11.500           0.469
  22509636.981    -8361206.681 5  -6337099.88621        10.250           0.469
  22134461.551   -11236236.983 6  -8755494.15121        18.000           0.938
  21269693.879   -14905278.825 6 -11425005.79821        14.500           1.000
  20285222.418    -1670786.517 6  -1301914.22622        19.250           2.000
 91  5 20 19 42 14.9960000  0  5G18G16G11G 6G19
  22607036.918    11242841.748 5   8760626.05721        11.250           0.375
  22510681.535    -8355711.668 5  -6332818.12121        11.000           0.438
  22135598.027   -11230256.178 6  -8750833.79821        18.500           0.906
  21261658.129   -14947513.739 6 -11457916.08521        14.750           1.219
  20286817.481    -1662430.360 6  -1295402.96622        18.250           1.906
 91  5 20 19 42 29.9960000  0  5G18G16G11G 6G19
  22614832.441    11283808.299 5   8792547.88721        10.750           0.375
  22511749.527    -8350099.744 5  -6328445.25621        10.500           0.406
  22136764.668   -11224124.161 6  -8746055.62921        16.750           0.781
  21253626.270   -14989721.880 6 -11490805.51221        15.000           1.219
  20288415.277    -1654009.148 6  -1288841.01322        19.250           1.844
 91  5 20 19 42 44.9960000  0  5G18G16G11G 6G19
  22622635.512    11324813.985 5   8824500.18021        11.000           0.375
  22512840.754    -8344374.288 5  -6323983.94921        10.500           0.375
  22137956.598   -11217844.081 6  -8741162.07521        17.250           0.813
  21245599.277   -15031906.445 6 -11523676.56821        14.750           1.063
  20290031.621    -1645525.922 6  -1282230.73622        18.500           1.969
 91  5 20 19 42 59.9960000  0  5G18G16G11G 6G19
  22630441.129    11365851.964 5   8856477.67421         9.750           0.375
  22513948.840    -8338542.220 5  -6319439.54621        10.500           0.375
  22139182.426   -11211422.586 6  -8736158.31821        17.500           0.813
  21237575.637   -15074073.591 6 -11556534.03621        15.000           1.094
  20291655.371    -1636986.915 6  -1275576.98922        19.000           1.969
 91  5 20 19 43 14.9960000  0  5G18G16G11G 6G19
  22638260.106    11406930.086 5   8888486.42521        10.500           0.406
  22515081.223    -8332595.134 5  -6314805.51921        10.750           0.438
  22140433.809   -11204851.406 6  -8731037.94621        16.750           0.719
  21229554.395   -15116214.947 6 -11589371.42121        15.000           0.969
  20293292.707    -1628383.728 6  -1268873.23422        18.250           2.031
 91  5 20 19 43 29.9960000  0  5G18G16G11G 6G19
  22646085.551    11448050.456 5   8920528.10221        10.250           0.438
  22516232.613    -8326531.101 5  -6310080.37021        10.250           0.438
  22141709.973   -11198128.512 6  -8725799.35021        17.000           0.813
  21221541.098   -15158328.375 6 -11622187.04321        15.000           1.125
  20294942.816    -1619714.169 6  -1262117.76522        18.500           2.000
 91  5 20 19 43 44.9960000  0  5G18G16G11G 6G19
  22653915.277    11489202.643 5   8952594.57321        10.000           0.375
  22517406.746    -8320360.681 5  -6305272.33221         9.750           0.438
  22143015.332   -11191264.293 6  -8720450.60121        17.250           0.875
  21213532.488   -15200423.885 6 -11654988.70121        15.000           1.125
  20296606.066    -1610988.383 6  -1255318.47522        18.250           1.969
 91  5 20 19 43 59.9960000  0  5G18G16G11G 6G19
  22661756.684    11530386.025 5   8984685.31721        10.500           0.344
  22518603.207    -8314084.489 5  -6300381.86321        10.500           0.656
  22144349.356   -11184259.341 6  -8714992.21821        17.250           0.813
  21205524.106   -15242501.955 6 -11687776.77521        15.250           1.125
  20298277.082    -1602206.727 6  -1248475.65522        18.000           1.906
 91  5 20 19 44 14.9960000  0  5G18G16G11G 6G19
  22669600.066    11571612.284 5   9016809.52321         9.750           0.438
  22519820.496    -8307690.910 5  -6295399.92721        10.750           0.500
  22145713.363   -11177101.823 6  -8709414.94521        17.000           0.781
  21197522.512   -15284550.379 6 -11720541.74021        15.250           1.188
  20299960.426    -1593357.280 6  -1241580.00922        18.250           1.938
 91  5 20 19 44 29.9960000  0  5G18G16G11G 6G19
  22677452.488    11612869.174 5   9048957.53921        10.500           0.344
  22521054.074    -8301192.279 5  -6290336.13621         9.250           0.469
  22147104.856   -11169803.865 6  -8703728.24121        16.750           0.844
  21189523.738   -15326581.067 6 -11753292.89521        15.250           1.156
  20301652.176    -1584451.815 6  -1234640.71522        18.250           1.906
 91  5 20 19 44 44.9960000  0  5G18G16G11G 6G19
  22685310.887    11654168.865 5   9081138.95621        10.250           0.500
  22522312.309    -8294576.531 5  -6285181.09021         9.250           0.500
  22148522.379   -11162353.506 6  -8697922.80421        18.500           0.969
  21181532.520   -15368581.842 6 -11786020.72321        15.750           1.156
  20303361.168    -1575478.138 6  -1227648.25622        17.750           1.969
 91  5 20 19 44 59.9960000  0  5G18G16G11G 6G19
  22693175.691    11695507.009 5   9113350.30121        10.250           0.469
  22523596.004    -8287847.669 5  -6279937.89621         9.750           0.438
  22149962.731   -11154754.660 6  -8692001.65421        15.750           0.625
  21173543.723   -15410556.356 6 -11818728.10721        16.250           1.125
  20305081.043    -1566440.078 6  -1220605.64922        18.500           1.969
 91  5 20 19 45 14.9960000  0  5G18G16G11G 6G19
  22701052.707    11736881.509 5   9145589.99821        10.500           0.438
  22524899.113    -8281007.655 5  -6274608.07921        10.250           0.406
  22151435.715   -11147009.519 6  -8685966.49621        17.000           0.719
  21165560.332   -15452506.653 6 -11851416.60721        16.000           1.094
  20306814.082    -1557339.634 6  -1213514.42422        18.250           1.844
 91  5 20 19 45 29.9960000  0  5G18G16G11G 6G19
  22708933.332    11778295.440 5   9177860.41221        10.750           0.438
  22526221.160    -8274053.608 5  -6269189.41521        10.250           0.438
  22152941.176   -11139114.707 6  -8679814.70821        17.000           0.750
  21157583.004   -15494429.133 6 -11884083.44821        16.250           1.125
  20308557.684    -1548173.199 6  -1206371.77722        18.500           1.906
 91  5 20 19 45 44.9960000  0  5G18G16G11G 6G19
  22716817.707    11819745.043 5   9210158.59921        10.250           0.344
  22527567.160    -8266989.508 5  -6263684.99521        10.000           0.531
  22154474.191   -11131074.009 6  -8673549.24421        17.000           0.844
  21149611.231   -15536327.402 6 -11916731.41221        16.250           1.156
  20310314.996    -1538944.342 6  -1199180.48822        17.750           1.906
 91  5 20 19 45 59.9960000  0  5G18G16G11G 6G19
  22724712.293    11861233.035 5   9242486.74821         9.500           0.438
  22528929.316    -8259812.210 5  -6258092.36421         9.250           0.531
  22156029.551   -11122884.556 6  -8667167.85921        15.250           0.656
  21141643.215   -15578198.385 6 -11949358.11421        16.250           1.188
  20312083.348    -1529649.872 6  -1191938.06522        18.250           1.969
 91  5 20 19 46 14.9960000  0  5G18G16G11G 6G19
  22732615.277    11902752.617 5   9274839.47121        10.000           0.406
  22530318.098    -8252529.072 5  -6252417.28521        10.000           0.563
  22157611.316   -11114553.193 6  -8660675.90621        16.000           0.844
  21133679.832   -15620048.583 6 -11981968.61921        16.000           1.063
  20313863.613    -1520296.526 6  -1184649.77122        18.250           2.000
 91  5 20 19 46 29.9960000  0  5G18G16G11G 6G19
  22740522.801    11944314.047 5   9307224.82721         9.750           0.438
  22531725.621    -8245129.331 5  -6246651.33621         9.250           0.438
  22159232.801   -11106069.324 6  -8654065.14421        15.750           0.719
  21125719.629   -15661867.152 6 -12014554.48321        15.750           1.063
  20315653.996    -1510873.421 6  -1177307.11822        19.000           2.000
 91  5 20 19 46 44.9960000  0  5G18G16G11G 6G19
  22748438.004    11985908.974 5   9339636.27921        10.000           0.344
  22533153.246    -8237621.634 5  -6240801.25721         9.250           0.469
  22160871.840   -11097441.543 6  -8647342.24021        15.500           0.688
  21117766.176   -15703662.329 6 -12047122.11421        16.000           1.094
  20317461.160    -1501388.994 6  -1169916.68322        18.000           1.906
 91  5 20 19 46 59.9960000  0  5G18G16G11G 6G19
  22756358.793    12027531.636 5   9372069.35021         9.750           0.375
  22534599.152    -8230011.822 5  -6234871.62021         8.750           0.469
  22162538.981   -11088675.742 6  -8640511.79021        15.500           0.781
  21109818.793   -15745439.951 6 -12079676.06421        16.500           1.156
  20319275.020    -1491848.825 6  -1162482.81322        18.250           2.000
 91  5 20 19 47 14.9960000  0  5G18G16G11G 6G19
  22764285.676    12069182.483 5   9404524.36521         9.750           0.281
  22536071.137    -8222299.482 5  -6228862.11021         9.500           0.438
  22164233.356   -11079771.039 6  -8633573.08221        15.500           0.750
  21101871.871   -15787198.715 6 -12112215.32021        16.500           1.063
  20321102.566    -1482251.835 6  -1155004.66822        18.250           1.969
 91  5 20 19 47 29.9960000  0  5G18G16G11G 6G19
  22772219.129    12110867.641 5   9437006.10521        10.000           0.250
  22537561.582    -8214478.272 5  -6222767.71321        10.250           0.469
  22165954.809   -11070721.033 6  -8626521.17021        15.250           0.656
  21093927.371   -15828932.196 6 -12144734.88521        16.250           1.094
  20322939.504    -1472591.456 6  -1147477.13122        18.750           1.969
 91  5 20 19 47 44.9960000  0  5G18G16G11G 6G19
  22780156.762    12152585.974 5   9469513.71121         9.250           0.219
  22539065.277    -8206549.410 5  -6216589.44121         8.250           0.438
  22167705.840   -11061526.785 6  -8619356.84821        16.250           0.844
  21085992.426   -15870641.195 6 -12177235.37621        16.250           1.094
  20324791.090    -1462868.628 6  -1139900.92922        18.250           1.906
 91  5 20 19 47 59.9960000  0  5G18G16G11G 6G19
  22788105.504    12194336.918 5   9502046.72221        10.000           0.281
  22540592.856    -8198513.733 5  -6210327.98421         8.500           0.313
  22169482.121   -11052189.209 6  -8612080.82421        15.000           0.688
  21078059.238   -15912326.298 6 -12209717.23021        16.500           1.156
  20326653.231    -1453084.046 6  -1132276.61022        18.000           2.063
 91  5 20 19 48 14.9960000  0  5G18G16G11G 6G19
  22796054.066    12236120.887 5   9534605.46921         9.000           0.344
  22542146.441    -8190370.646 5  -6203982.78721         9.000           0.375
  22171289.816   -11042707.463 6  -8604692.49021        17.000           0.906
  21070132.106   -15953986.429 6 -12242179.62821        16.250           1.094
  20328525.652    -1443236.577 6  -1124603.29122        18.000           2.000
 91  5 20 19 48 29.9960000  0  5G18G16G11G 6G19
  22804010.863    12277937.540 5   9567189.67721         9.500           0.281
  22543712.941    -8182120.480 5  -6197554.17521         8.750           0.500
  22173118.441   -11033082.039 6  -8597192.26721        15.000           0.719
  21062207.934   -15995621.589 6 -12274622.58021        16.250           1.156
  20330411.973    -1433326.341 6  -1116881.05822        18.500           1.906
 91  5 20 19 48 44.9960000  0  5G18G16G11G 6G19
  22811975.731    12319789.849 5   9599801.65821         9.500           0.344
  22545305.816    -8173760.301 5  -6191039.83921         9.000           0.500
  22174977.301   -11023309.448 6  -8589577.26121        15.000           0.750
  21054292.598   -16037228.527 6 -12307043.52921        16.250           1.031
  20332312.316    -1423349.898 6  -1109107.22822        18.250           1.969
 91  5 20 19 48 59.9960000  0  5G18G16G11G 6G19
  22819947.715    12361678.909 5   9632442.30621         9.750           0.313
  22546918.863    -8165288.833 5  -6184438.76221         9.250           0.375
  22176865.316   -11013388.942 6                        16.000
  21046378.723   -16078805.988 6 -12339441.49421        16.750           1.156
  20334222.191    -1413306.102 6                        18.500
 91  5 20 19 49 14.9960000  0  5G18G16G11G 6G19
  22827924.184    12403594.674 5   9665103.76121         9.500           0.250
  22548551.770    -8156716.194 5  -6177758.88121         9.500           0.500
  22178777.988   -11003330.478 6                        15.000
  21038470.840   -16120363.612 6 -12371824.02821        16.500           1.094
  20336145.098    -1403204.692 6                        18.250
 91  5 20 19 49 29.9960000  0  5G18G16G11G 6G19
  22835905.020    12445541.160 5   9697789.13021         9.750           0.250
  22550200.168    -8148038.753 5  -6170997.31721         9.000           0.406
  22180719.809   -10993129.763 6                        15.000
  21030567.137   -16161896.841 6 -12404187.53821        16.500           1.031
  20338078.809    -1393041.188 6                        18.500
 91  5 20 19 49 44.9960000  0  5G18G16G11G 6G19
  22843892.848    12487516.672 5   9730497.13621         9.750           0.375
  22551872.598    -8139257.886 5  -6164155.17921         9.000           0.375
  22182689.184   -10982788.619 6  -8558002.73421        12.500           0.500
  21022668.152   -16203407.193 6 -12436533.23221        17.000           1.156
  20340024.012    -1382816.982 6  -1077523.24422        18.250           1.969
 91  5 20 19 49 59.9960000  0  5G18G16G11G 6G19
  22851886.473    12529519.642 5   9763226.54521         9.500           0.313
  22553562.684    -8130375.343 5  -6157233.79321         9.250           0.375
  22184682.277   -10972308.115 6  -8549836.02121        14.500           0.688
  21014773.129   -16244895.857 6 -12468862.02721        16.750           1.031
  20341980.715    -1372533.422 6  -1069510.11022        18.750           1.906
 91  5 20 19 50 14.9960000  0  5G18G16G11G 6G19
  22859882.160    12571541.459 5   9795970.61821        10.000           0.406
  22555270.965    -8121399.517 5  -6150239.72421         8.500           0.469
  22186703.160   -10961697.430 6  -8541568.00421        15.000           0.719
  21006881.379   -16286371.159 6 -12501180.39921        16.500           1.063
  20343948.660    -1362198.858 6  -1061457.23422        18.500           1.844
 91  5 20 19 50 29.9960000  0  5G18G16G11G 6G19
  22867883.012    12613592.264 5   9828737.30621         9.750           0.375
  22557000.113    -8112320.491 5  -6143165.25421         9.000           0.406
  22188749.918   -10950946.233 6  -8533190.51621        14.000           0.469
  20998993.293   -16327822.577 6 -12533480.17121        16.750           1.125
  20345926.441    -1351802.812 6  -1053356.44722        18.250           2.031
 91  5 20 19 50 44.9960000  0  5G18G16G11G 6G19
  22875891.207    12655670.921 5   9861525.66521        10.000           0.344
  22558746.926    -8103139.644 5  -6136011.42121         9.000           0.469
  22190820.754   -10940055.590 6  -8524704.33121        14.750           0.438
  20991110.020   -16369251.204 6 -12565762.18321        16.250           1.125
  20347917.957    -1341346.311 6  -1045208.55822        18.750           1.969
 91  5 20 19 50 59.9960000  0  5G18G16G11G 6G19
  22883905.262    12697778.863 5   9894336.86521         9.750           0.344
  22560514.746    -8093854.843 5  -6128776.60221         8.750           0.344
  22192920.223   -10929023.654 6  -8516108.09021        14.750           0.563
  20983230.512   -16410654.788 6 -12598024.67521        16.500           1.031
  20349915.816    -1330827.332 6  -1037011.98322        19.750           1.906
 91  5 20 19 51 14.9960000  0  5G18G16G11G 6G19
  22891925.621    12739915.537 5   9927170.44121        10.250           0.344
  22562299.418    -8084466.866 5  -6121461.38921         9.000           0.469
  22195047.316   -10917850.952 6  -8507402.10721        16.000           0.719
  20975356.246   -16452033.756 6 -12630267.98821        16.500           1.094
  20351932.324    -1320246.137 6  -1028766.92822        18.250           1.938
 91  5 20 19 51 29.9960000  0  5G18G16G11G 6G19
  22899949.191    12782087.224 5   9960031.28321        10.000           0.406
  22564105.332    -8074969.764 5  -6114061.13521         9.250           0.406
  22197200.606   -10906531.401 6  -8498581.73921        14.250           0.531
  20967487.590   -16493381.622 6 -12662487.07721        16.750           1.125
  20353959.777    -1309596.300 6  -1020468.38422        18.000           1.938
 91  5 20 19 51 44.9960000  0  5G18G16G11G 6G19
  22907980.840    12824285.636 5   9992912.97421        10.250           0.375
  22565931.746    -8065372.088 5  -6106582.49621         9.250           0.281
  22199383.074   -10895073.110 6  -8489653.18321        14.250           0.469
  20959624.371   -16534706.297 6 -12694688.08521        17.000           1.094
  20355996.856    -1298885.840 6  -1012122.59822        18.000           1.938
 91  5 20 19 51 59.9960000  0  5G18G16G11G 6G19
  22916017.957    12866518.352 5  10025821.39021         9.750           0.438
  22567779.590    -8055665.983 5  -6099019.38121         9.250           0.406
  22201589.004   -10883468.420 6  -8480610.61921        13.500           0.469
  20951766.059   -16575999.684 6 -12726864.71421        17.250           1.125
  20358048.301    -1288106.686 6  -1003723.29022        17.750           1.844
 91  5 20 19 52 14.9960000  0  5G18G16G11G 6G19
  22924060.535    12908782.516 5  10058754.28421         9.750           0.344
  22569646.504    -8045854.393 5  -6091374.08421         9.250           0.313
  22203824.606   -10871720.076 6  -8471456.00921        15.750           0.688
  20943913.582   -16617264.431 6 -12759019.03121        16.750           1.125
  20360112.637    -1277261.448 6   -995272.48422        18.250           1.813
 91  5 20 19 52 29.9960000  0  5G18G16G11G 6G19
  22932107.895    12951079.899 5  10091713.11221         9.500           0.438
  22571534.527    -8035935.542 5  -6083645.17321         9.250           0.344
  22206088.496   -10859826.555 6  -8462188.36121        14.000           0.469
  20936067.613   -16658498.313 6 -12791149.29421        17.000           1.219
  20362185.098    -1266348.054 6   -986768.57522        19.500           1.969
 91  5 20 19 52 44.9960000  0  5G18G16G11G 6G19
  22940165.426    12993412.767 5  10124699.54321        10.000           0.219
  22573442.934    -8025907.190 5  -6075830.97921         9.250           0.375
  22208377.402   -10847785.242 6  -8452805.49921        15.750           0.875
  20928226.715   -16699698.882 6 -12823253.59221        17.000           1.063
  20364279.527    -1255364.006 6   -978209.60622        18.500           1.906
 91  5 20 19 52 59.9960000  0  5G18G16G11G 6G19
  22948226.535    13035775.679 5  10157709.41021         8.500           0.188
  22575371.285    -8015775.170 5  -6067935.97721         9.250           0.375
  22210697.082   -10835601.968 6  -8443312.08021        15.750           0.750
  20920392.184   -16740871.438 6 -12855336.06921        17.250           1.156
  20366382.277    -1244314.675 6   -969599.76922        18.000           2.000
 91  5 20 19 53 14.9960000  0  5G18G16G11G 6G19
  22956292.988    13078165.400 5  10190740.15121         9.250           0.250
  22577321.379    -8005542.219 5  -6059962.33421         9.500           0.281
  22213044.371   -10823279.556 6  -8433710.24521        14.000           0.281
  20912563.832   -16782018.446 6 -12887398.63721        17.500           1.219
  20368495.426    -1233202.748 6   -960941.16122        18.500           1.906
 91  5 20 19 53 29.9960000  0  5G18G16G11G 6G19
  22964366.457    13120585.261 5  10223794.39421         8.750           0.313
  22579285.762    -7995205.294 5  -6051907.67721         9.250           0.250
  22215414.934   -10810814.604 6  -8423997.26521        16.500           0.625
  20904736.473   -16823136.389 6 -12919438.55421        16.500           1.156
  20370623.918    -1222024.658 6   -952230.99022        18.000           2.031
 91  5 20 19 53 44.9960000  0  5G18G16G11G 6G19
  22972446.348    13163041.041 5  10256876.62821         9.250           0.281
  22581274.324    -7984758.513 5  -6043767.41321         9.250           0.469
  22217815.277   -10798201.298 6  -8414168.75021        16.000           0.688
  20896921.184   -16864219.223 6 -12951451.11921        16.750           1.031
  20372764.488    -1210774.205 6   -943464.44022        18.250           1.938
 91  5 20 19 53 59.9960000  0  5G18G16G11G 6G19
  22980527.723    13205520.216 5  10289977.08121         8.250           0.219
  22583277.238    -7974214.272 5  -6035551.19521         9.000           0.375
  22220241.559   -10785452.147 6  -8404234.34121        17.250           0.625
  20889106.145   -16905278.933 6 -12983445.66021        17.000           1.125
  20374918.871    -1199463.713 6   -934651.10522        17.500           1.938
 91  5 20 19 54 14.9960000  0  5G18G16G11G 6G19
  22988616.387    13248025.321 5  10323097.73421         9.250           0.219
  22585307.660    -7963570.351 5  -6027257.32921         9.500           0.281
  22222693.809   -10772564.794 6  -8394192.26521        16.500           0.500
  20881297.207   -16946312.973 6 -13015420.20221        17.000           1.156
  20377080.449    -1188090.187 6   -925788.64722        17.750           1.844
 91  5 20 19 54 29.9950000  0  5G18G16G11G 6G19
  22996708.179    13290549.533 5  10356233.28121         9.000           0.281
  22587348.648    -7952831.423 5  -6018889.41121         9.250           0.438
  22225171.929   -10759543.668 6  -8384046.00521        16.250           0.656
  20873495.171   -16987321.829 6 -13047375.12921        17.000           1.094
  20379253.249    -1176657.986 6   -916880.47222        19.250           1.938
 91  5 20 19 54 44.9950000  0  5G18G16G11G 6G19
  23004807.390    13333098.204 5  10389387.89321        10.500           0.219
  22589413.921    -7941996.406 5  -6010446.62921         9.750           0.344
  22227676.007   -10746387.483 6  -8373794.47021        16.500           0.688
  20865693.741   -17028311.124 6 -13079314.80721        16.750           1.063
  20381441.679    -1165165.821 6   -907925.56922        17.750           1.875
 91  5 20 19 54 59.9950000  0  5G18G16G11G 6G19
  23012906.898    13375671.044 5  10422561.37221         9.250           0.219
  22591492.296    -7931063.712 5  -6001927.72121        10.000           0.313
  22230204.108   -10733094.660 6  -8363436.42521        15.250           0.500
  20857899.671   -17069275.509 6 -13111235.07321        17.250           1.063
  20383639.226    -1153611.950 6   -898922.58822        19.250           2.063
 91  5 20 19 55 14.9950000  0  5G18G16G11G 6G19
  23021013.843    13418263.140 5  10455749.77721        10.000           0.188
  22593591.312    -7920038.155 5  -5993336.47121         9.750           0.281
  22232761.804   -10719669.786 6  -8352975.47321        16.750           0.656
  20850108.038   -17110219.287 6 -13143139.28921        17.000           1.094
  20385850.765    -1142000.535 6   -889874.76722        18.000           1.969
 91  5 20 19 55 29.9950000  0  5G18G16G11G 6G19
  23029122.710    13460879.470 5  10488957.11621         9.750           0.250
  22595707.046    -7908914.512 5  -5984668.77821        10.000           0.375
  22235340.687   -10706107.889 6  -8342407.80921        16.000           0.594
  20842320.538   -17151137.040 6 -13175023.21821        17.000           1.000
  20388070.913    -1130326.197 6   -880777.91022        18.750           1.906
 91  5 20 19 55 44.9950000  0  5G18G16G11G 6G19
  23037241.851    13503521.084 5  10522184.17221        11.000           0.188
  22597840.858    -7897691.906 5  -5975923.97521         9.750           0.219
  22237946.905   -10692407.984 6  -8331732.56321        16.250           0.594
  20834538.804   -17192027.489 6 -13206885.87521        16.500           1.156
  20390307.405    -1118588.005 6   -871631.30322        18.250           2.000
 91  5 20 19 55 59.9950000  0  5G18G16G11G 6G19
  23045353.405    13546178.696 5  10555423.65821         9.000           0.281
  22599993.827    -7886379.691 5  -5967109.35621         9.500           0.375
  22240580.226   -10678579.381 6  -8320957.05021        15.750           0.594
  20826761.890   -17232899.655 6 -13238734.28121        16.500           1.094
  20392548.319    -1106794.794 6   -862441.82422        18.500           2.000
 91  5 20 19 56 14.9950000  0  5G18G16G11G 6G19
  23053476.210    13588849.753 5  10588673.63121         9.750           0.281
  22602166.202    -7874980.719 5  -5958227.13821         9.750           0.375
  22243235.218   -10664624.609 6  -8310083.20821        15.750           0.563
  20818986.421   -17273755.721 6 -13270570.13921        16.750           1.094
  20394804.741    -1094948.938 6   -853211.32422        18.000           2.031
 91  5 20 19 56 29.9950000  0  5G18G16G11G 6G19
  23061599.319    13631541.452 5  10621939.71621         9.000           0.344
  22604350.202    -7863487.840 5  -5949271.70021         9.000           0.406
  22245911.515   -10650536.490 6  -8299105.47521        14.500           0.563
  20811217.507   -17314588.143 6 -13302387.57021        16.750           1.125
  20397072.296    -1083042.949 6   -843933.96922        17.750           1.969
 91  5 20 19 56 44.9950000  0  5G18G16G11G 6G19
  23069724.476    13674246.167 5  10655215.88221         8.000           0.219
  22606554.015    -7851908.316 5  -5940248.79221         9.000           0.313
  22248620.241   -10636322.478 6  -8288029.65021        13.750           0.438
  20803450.124   -17355404.248 6 -13334192.29521        17.000           1.000
  20399346.780    -1071083.903 6   -834615.27122        18.000           1.938
 91  5 20 19 56 59.9950000  0  5G18G16G11G 6G19
  23077856.921    13716968.763 5  10688506.03921         9.000           0.250
  22608775.007    -7840237.188 5  -5931154.48021         9.000           0.438
  22251349.976   -10621977.391 6  -8276851.69021        14.750           0.625
  20795686.530   -17396198.535 6 -13365980.01721        17.250           1.094
  20401632.327    -1059066.370 6   -825250.99222        18.250           1.813
 91  5 20 19 57 14.9950000  0  5G18G16G11G 6G19
  23085989.405    13759712.801 5  10721812.87721         7.500           0.281
  22611014.483    -7828471.519 5  -5921986.52321         9.250           0.375
  22254104.905   -10607497.968 6  -8265569.02921        15.000           0.625
  20787928.507   -17436967.252 6 -13397747.81821        17.250           1.094
  20403931.624    -1046987.027 6   -815838.55722        18.000           1.844
 91  5 20 19 57 29.9950000  0  5G18G16G11G 6G19
  23094124.429    13802474.703 4  10755133.63021         7.000           0.250
  22613273.171    -7816614.625 5  -5912747.46621         9.250           0.375
  22256884.023   -10592887.663 6  -8254184.38321        16.000           0.688
  20780175.413   -17477713.628 6 -13429498.21121        17.250           1.094
  20406241.077    -1034848.870 6   -806380.29322        18.000           1.844
 91  5 20 19 57 44.9950000  0  5G18G16G11G 6G19
  23102263.265    13845248.794 4  10788463.87521         7.000           0.250
  22615546.640    -7804672.637 5  -5903442.11321         9.500           0.313
  22259688.882   -10578152.569 6  -8242702.53021        15.750           0.563
  20772424.046   -17518443.253 6 -13461235.55121        17.500           1.063
  20408561.288    -1022657.586 6   -796880.62522        17.750           1.906
 91  5 20 19 57 59.9950000  0  4G16G11G 6G19
  22617834.577    -7792646.727 5  -5894071.38021         9.500           0.375
  22262518.374   -10563293.820 6  -8231124.29621        16.250           0.594
  20764676.858   -17559157.014 6 -13492960.52721        17.250           0.938
  20410889.616    -1010414.267 6   -787340.40922        18.250           1.938
 91  5 20 19 58 14.9950000  0  4G16G11G 6G19
  22620131.890    -7780530.756 5  -5884630.41021         8.750           0.344
  22265371.249   -10548305.080 6  -8219444.77221        16.000           0.594
  20756933.327   -17599848.420 6 -13524668.08621        17.250           0.969
  20413233.241     -998112.435 6   -777754.60222        17.750           2.000
 91  5 20 19 58 29.9950000  0  4G16G11G 6G19
  22622456.155    -7768330.494 5  -5875123.81221         9.000           0.344
  22268245.265   -10533192.004 6  -8207668.35721        15.000           0.625
  20749193.124   -17640522.688 6 -13556362.28821        17.750           1.063
  20415583.101     -985757.398 6   -768127.33722        17.500           1.875
 91  5 20 19 58 44.9950000  0  4G16G11G 6G19
  22624798.421    -7756040.854 5  -5865547.56021        10.000           0.313
  22271144.757   -10517949.512 6  -8195791.12921        15.750           0.594
  20741457.913   -17681174.528 6 -13588039.01721        18.000           1.094
  20417946.991     -973343.684 6   -758454.35022        17.750           1.938
 91  5 20 19 58 59.9950000  0  4G16G11G 6G19
  22627155.062    -7743664.141 5                         9.500
  22274069.069   -10502579.865 6  -8183814.80521        15.500           0.563
  20733726.562   -17721805.622 6 -13619699.57221        17.750           1.031
  20420317.726     -960873.133 6                        18.500
 91  5 20 19 59 14.9950000  0  5G 2G16G11G 6G19
  19563172.296          -0.49217                        26.000
  22629528.265    -7731190.843 5                         9.750
  22277020.616   -10487073.551 6  -8171731.99521        15.500           0.625
  20725999.468   -17762406.118 6 -13651336.28321        17.750           1.094
  20422705.226     -948336.139 6                        17.500
 91  5 20 19 59 29.9950000  0  5G 2G16G11G 6G19
  19557859.608      -27920.050 7                        26.500
  22631916.858    -7718635.955 5                        10.000
  22279995.679   -10471445.503 6  -8159554.33421        15.000           0.531
  20718276.749   -17802990.815 6 -13682960.69121        18.000           0.969
  20425098.991     -935747.324 6                        17.750
 91  5 20 19 59 44.9950000  0  5G 2G16G11G 6G19
  19552562.858      -55758.720 7        -0.11633        27.000           3.156
  22634321.530    -7705991.424 5                         9.750
  22282993.655   -10455687.592 6  -8147275.46521        15.750           0.719
  20710558.257   -17843551.295 6 -13714566.21621        18.000           1.125
  20427507.702     -923098.298 6                        17.250
 91  5 20 19 59 59.9950000  0  5G 2G16G11G 6G19
  19547280.304      -83517.930 7    -21630.65223        27.000           3.344
  22636746.679    -7693259.292 5                        10.500
  22286016.765   -10439801.685 6  -8134896.88421        14.750           0.594
  20702843.812   -17884088.863 6 -13746153.90921        18.000           1.000
  20429926.343     -910390.577 6                        18.000
 91  5 20 20  0 14.9950000  0  5G 2G16G11G 6G19
  19542014.327     -111190.566 7    -43193.72423        26.750           3.125
  22639187.194    -7680432.738 5                        10.000
  22289065.577   -10423780.761 6  -8122413.08121        16.750           0.875
  20695135.608   -17924596.254 6 -13777718.07221        18.250           0.969
  20432355.319     -897617.113 6                        18.000
 91  5 20 20  0 29.9950000  0  5G 2G16G11G 6G19
  19536763.335     -138780.215 7    -64692.13323        27.000           3.281
  22641646.913    -7667515.515 5                         9.250
  22292138.421   -10407628.758 6  -8109827.15021        14.250           0.531
  20687432.421   -17965077.297 6 -13809261.70621        18.500           1.094
  20434799.405     -884781.628 6                        17.750
 91  5 20 20  0 44.9950000  0  4G16G11G 6G19
  22644117.515    -7654509.954 5  -5786433.73221         9.250           0.313
  22295237.101   -10391347.795 6  -8097140.71921        14.250           0.594
  20679734.226   -18005533.499 6 -13840785.99021        18.750           1.000
  20437250.374     -871885.731 6   -679396.49122        17.750           1.938
 91  5 20 20  0 59.9950000  0  4G16G11G 6G19
  22646608.671    -7641423.684 5  -5776236.73421         9.250           0.344
  22298359.358   -10374945.482 6  -8084359.72821        14.500           0.594
  20672038.874   -18045972.020 6 -13872296.49821        18.750           1.031
  20439716.718     -858936.815 6   -669306.46422        17.500           2.000
 91  5 20 20  1 14.9950000  0  4G16G11G 6G19
  22649114.866    -7628254.302 5  -5765974.94621         8.750           0.344
  22301502.101   -10358419.021 6  -8071481.96721        14.000           0.500
  20664346.913   -18086390.118 6 -13903791.08821        18.750           1.031
  20442189.749     -845931.973 6   -659172.85722        17.750           1.938
 91  5 20 20  1 29.9950000  0  4G16G11G 6G19
  22651638.952    -7614997.339 5  -5755644.93521         9.500           0.406
  22304671.398   -10341764.156 6  -8058504.15221        14.000           0.563
  20656661.812   -18126783.032 6 -13935266.05321        19.250           1.094
  20444676.780     -832866.428 6   -648991.95022        17.500           1.906
 91  5 20 20  1 44.9950000  0  4G16G11G 6G19
  22654180.405    -7601656.078 5  -5745249.23821        10.000           0.281
  22307866.882   -10324984.554 6  -8045429.20021        14.000           0.531
  20648979.624   -18167153.944 6 -13966723.87621        19.000           1.156
  20447171.882     -819743.491 6   -638766.32322        18.000           1.906
 91  5 20 20  1 59.9950000  0  4G16G11G 6G19
  22656732.616    -7588232.069 5  -5734789.06321         9.000           0.375
  22311082.007   -10308081.232 6  -8032257.80821        13.750           0.594
  20641301.671   -18207503.566 6 -13998165.10821        19.250           1.125
  20449681.343     -806563.988 6   -628496.61522        17.250           1.813
 91  5 20 20  2 14.9950000  0  4G16G11G 6G19
  22659299.351    -7574723.277 5  -5724262.80721         8.750           0.219
  22314323.843   -10291052.136 6  -8018988.42521        14.000           0.625
  20633626.866   -18247829.520 6 -14029587.89621        19.250           1.188
  20452200.218     -793325.536 6   -618180.97522        18.000           1.875
 91  5 20 20  2 29.9950000  0  4G16G11G 6G19
  22661890.788    -7561129.641 5  -5713670.43621         9.500           0.344
  22317586.827   -10273896.927 6  -8005620.77021        14.000           0.625
  20625958.241   -18288130.964 6 -14060991.58521        19.250           1.094
  20454732.288     -780027.421 6   -607818.84922        17.500           1.844
 91  5 20 20  2 44.9950000  0  4G16G11G 6G19
  22664493.476    -7547451.603 5  -5703012.33021         9.500           0.375
  22320876.515   -10256616.170 6  -7992155.27021        14.250           0.531
  20618293.202   -18328408.390 6 -14092376.56121        19.250           1.094
  20457272.390     -766670.107 6   -597410.58622        17.750           1.906
 91  5 20 20  2 59.9950000  0  4G16G11G 6G19
  22667111.624    -7533689.894 5  -5692289.01321         9.500           0.313
  22324187.452   -10239210.646 6  -7978592.56021        14.000           0.500
  20610633.507   -18368662.012 6 -14123742.98921        19.500           1.250
  20459828.038     -753254.238 6   -586956.69622        17.000           1.781
 91  5 20 20  3 14.9950000  0  4G16G11G 6G19
  22669746.937    -7519846.138 5  -5681501.74721         9.000           0.313
  22327524.468   -10221681.790 6  -7964933.74321        13.500           0.531
  20602977.741   -18408893.026 6 -14155091.80021        19.250           1.219
  20462388.507     -739780.924 6   -576458.05122        17.250           1.875
 91  5 20 20  3 29.9950000  0  4G16G11G 6G19
  22672394.999    -7505926.695 5  -5670655.52321         9.750           0.406
  22330882.483   -10204036.051 6  -7951183.85221        14.000           0.500
  20595325.999   -18449107.472 6 -14186427.70021        19.750           1.281
  20464962.585     -726256.119 6   -565919.27922        17.750           1.781
 91  5 20 20  3 44.9950000  0  4G16G11G 6G19
  22675057.968    -7491920.680 5  -5659741.83121         8.750           0.375
  22334264.444   -10186262.242 6  -7937334.14921        13.250           0.438
  20587678.023   -18489293.762 6 -14217741.66021        19.750           1.250
  20467549.898     -712668.415 6   -555331.50222        17.750           1.781
 91  5 20 20  3 59.9950000  0  4G16G11G 6G19
  22677741.390    -7477837.884 5  -5648768.32321         8.750           0.344
  22337669.515   -10168370.174 6  -7923392.30421        13.250           0.438
  20580033.530   -18529461.328 6 -14249041.03121        19.250           1.344
  20470148.460     -699027.309 6   -544702.10622        17.000           1.781
 91  5 20 20  4 14.9950000  0  4G16G11G 6G19
  22680434.921    -7463679.773 5  -5637736.13021         9.500           0.344
  22341095.687   -10150361.454 6  -7909359.52721        13.500           0.563
  20572394.210   -18569611.600 6 -14280326.92821        19.250           1.281
  20472751.023     -685334.251 6   -534032.22822        17.500           1.875
 91  5 20 20  4 29.9950000  0  4G16G11G 6G19
  22683140.968    -7449444.403 5  -5626643.71521         9.250           0.375
  22344545.749   -10132233.812 6  -7895234.12621        13.250           0.469
  20564757.249   -18609741.840 6 -14311597.21321        19.500           1.250
  20475369.952     -671586.528 6   -523319.75622        17.500           1.719
 91  5 20 20  4 44.9950000  0  4G16G11G 6G19
  22685869.343    -7435128.135 5  -5615488.28121         9.500           0.313
  22348019.952   -10113983.512 6  -7881013.12921        14.000           0.625
  20557125.874   -18649847.799 6 -14342848.58121        19.250           1.250
  20477994.507     -657780.133 6   -512561.56422        18.250           1.844
 91  5 20 20  4 59.9950000  0  4G16G11G 6G19
  22688610.101    -7420725.381 5  -5604265.44521        10.000           0.313
  22351517.819   -10095605.060 6  -7866692.31821        13.500           0.563
  20549498.655   -18689923.775 6 -14374076.58421        19.000           1.344
  20480633.515     -643909.228 6   -501753.11022        18.000           1.750
 91  5 20 20  5 14.9950000  0  4G16G11G 6G19
  22691364.241    -7406245.536 5  -5592982.53821        10.250           0.375
  22355036.882   -10077107.662 6  -7852278.79521        13.500           0.625
  20541876.148   -18729978.499 6 -14405288.01921        19.000           1.281
  20483283.882     -629982.762 6   -490901.35422        17.500           1.781
 91  5 20 20  5 29.9950000  0  4G16G11G 6G19
  22694137.890    -7391684.243 5  -5581636.16121         9.750           0.406
  22358579.140   -10058486.854 6  -7837769.08421        13.000           0.500
  20534259.062   -18770007.236 6 -14436479.21521        19.250           1.281
  20485946.358     -615995.988 6   -480002.60322        16.500           1.719
 91  5 20 20  5 44.9950000  0  4G16G11G 6G19
  22696920.898    -7377045.255 5  -5570229.25621         9.750           0.438
  22362145.905   -10039746.656 6  -7823166.34621        12.500           0.469
  20526647.327   -18810013.616 6 -14467652.99021        19.250           1.406
  20488618.038     -601952.804 6   -469059.89922        17.500           1.750
 91  5 20 20  5 59.9950000  0  4G16G11G 6G19
  22699719.952    -7362328.931 5  -5558762.09221         9.750           0.375
  22365736.491   -10020887.099 6  -7808470.60921        13.000           0.563
  20519036.819   -18849997.168 6 -14498808.97421        19.000           1.406
  20491304.327     -587852.841 6   -458072.94622        16.750           1.844
 91  5 20 20  6 14.9950000  0  4G16G11G 6G19
  22702536.921    -7347532.571 5  -5547232.54921         9.500           0.469
  22369346.257   -10001905.517 6  -7793679.82321        12.750           0.531
  20511433.226   -18889954.932 6 -14529944.86221        19.000           1.438
  20493995.569     -573692.983 6   -447039.33122        17.750           1.656
 91  5 20 20  6 29.9950000  0  4G16G11G 6G19
  22705368.358    -7332657.031 5  -5535641.31421         9.750           0.406
  22372981.835    -9982802.710 6  -7778794.54121        13.500           0.594
  20503835.124   -18929887.282 6 -14561060.94821        19.500           1.344
  20496705.538     -559473.787 6   -435959.46522        16.250           1.656
 91  5 20 20  6 44.9950000  0  4G16G11G 6G19
  22708216.694    -7317700.107 5  -5523986.65921         9.750           0.406
  22376639.288    -9963576.614 6  -7763813.20521        14.500           0.625
  20496241.523   -18969791.808 6 -14592155.35121        19.250           1.406
  20499419.413     -545193.003 6   -424831.62422        17.500           1.719
 91  5 20 20  6 59.9950000  0  4G16G11G 6G19
  22711075.210    -7302657.014 5  -5512264.86621         9.750           0.438
  22380323.327    -9944222.423 6  -7748732.04021        13.500           0.563
  20488653.866   -19009663.430 6 -14623224.11321        18.750           1.438
  20502149.132     -530845.516 6   -413651.79622        18.250           1.719
 91  5 20 20  7 14.9950000  0  4G16G11G 6G19
  22713954.874    -7287534.198 5  -5500480.95421        10.000           0.406
  22384028.765    -9924746.029 6  -7733555.67021        12.750           0.594
  20481072.601   -19049507.422 6 -14654271.34321        18.750           1.406
  20504890.687     -516436.826 6   -402424.28422        17.750           1.656
 91  5 20 20  7 29.9950000  0  4G16G11G 6G19
  22716848.312    -7272333.640 5  -5488636.45921        10.500           0.375
  22387757.733    -9905149.583 6  -7718285.74121        13.000           0.563
  20473494.655   -19089325.810 6 -14685298.62821        18.250           1.406
  20507643.491     -501969.007 6   -391150.69322        17.500           1.750
 91  5 20 20  7 44.9950000  0  4G16G11G 6G19
  22719756.226    -7257050.984 5  -5476727.99021        10.250           0.313
  22391511.788    -9885428.792 6  -7702918.92321        13.500           0.438
  20465922.163   -19129113.888 6 -14716302.29622        18.250           1.500
  20510409.671     -487437.331 6   -379827.34222        17.250           1.625
 91  5 20 20  7 59.9950000  0  4G16G11G 6G19
  22722679.007    -7241689.802 5  -5464758.30921         9.750           0.281
  22395287.554    -9865586.887 6  -7687457.71721        12.750           0.375
  20458355.890   -19168874.336 6 -14747284.43121        18.000           1.375
  20513187.632     -472844.563 6   -368456.39222        17.750           1.719
 91  5 20 20  8 14.9950000  0  4G16G11G 6G19
  22725617.749    -7226249.800 5  -5452727.25621         9.750           0.250
  22399085.671    -9845623.627 6  -7671901.97721        13.000           0.469
  20450795.194   -19208606.752 6 -14778244.72721        18.500           1.469
  20515974.780     -458190.419 6   -357037.61822        17.750           1.750
 91  5 20 20  8 29.9950000  0  4G16G11G 6G19
  22728572.124    -7210731.774 5  -5440635.39521         9.750           0.250
  22402908.148    -9825539.807 6  -7656252.25021        13.250           0.406
  20443240.608   -19248311.282 6 -14809183.28821        18.500           1.469
  20518775.452     -443475.248 6   -345571.29022        17.500           1.688
 91  5 20 20  8 44.9950000  0  4G16G11G 6G19
  22731538.171    -7195145.916 5  -5428490.65221         9.750           0.188
  22406749.077    -9805345.390 6  -7640516.36721        13.000           0.469
  20435688.796   -19287997.663 6 -14840107.71221        18.500           1.375
  20521585.601     -428708.749 6   -334064.96422        18.000           1.656
 91  5 20 20  8 59.9950000  0  4G16G11G 6G19
  22734516.077    -7179481.361 5  -5416284.59821         9.250           0.406
  22410619.179    -9785029.782 6  -7624686.05921        13.750           0.406
  20428143.132   -19327654.818 6 -14871009.36422        18.500           1.500
  20524410.194     -413879.930 6   -322510.07422        17.250           1.688
 91  5 20 20  9 14.9950000  0  4G16G11G 6G19
  22737513.421    -7163747.399 5  -5404024.47921        10.000           0.250
  22414501.374    -9764602.056 6  -7608768.36921        13.000           0.375
  20420598.069   -19367291.360 6 -14901894.94622        17.750           1.500
  20527238.671     -398997.582 6   -310913.48022        17.750           1.750
 91  5 20 20  9 29.9950000  0  4G16G11G 6G19
  22740518.991    -7147942.237 5  -5391708.86521         9.500           0.281
  22418413.085    -9744060.609 6  -7592762.08121        13.500           0.500
  20413059.702   -19406905.374 6 -14932762.97222        17.750           1.531
  20530082.983     -384059.946 6   -299273.80722        17.250           1.656
 91  5 20 20  9 44.9950000  0  4G16G11G 6G19
  22743540.382    -7132065.147 5  -5379337.18821         9.250           0.281
  22422343.921    -9723404.617 6  -7576666.55721        13.250           0.438
  20405527.132   -19446495.551 6 -14963612.42722        17.750           1.500
  20532934.624     -369065.637 6   -287589.96622        17.750           1.656
 91  5 20 20  9 59.9950000  0  4G16G11G 6G19
  22746578.679    -7116105.319 5  -5366901.07221         9.500           0.188
  22426297.280    -9702623.110 6  -7560473.19121        13.000           0.344
  20398000.273   -19486050.623 6 -14994434.52722        18.000           1.500
  20535801.515     -354003.522 6   -275853.28822        17.000           1.656
 91  5 20 20 10 14.9950000  0  4G16G11G 6G19
  22749630.210    -7100066.404 5  -5354403.31421         9.750           0.188
  22430276.812    -9681719.315 6  -7544184.55721        13.500           0.375
  20390477.249   -19525573.491 6 -15025231.53522        18.000           1.500
  20538681.015     -338876.607 6   -264066.11722        17.500           1.625
 91  5 20 20 10 29.9950000  0  4G16G11G 6G19
  22752697.562    -7083953.532 5  -5341847.90521         8.500           0.188
  22434276.358    -9660698.472 6  -7527804.68821        13.000           0.344
  20382964.108   -19565069.027 6 -15056007.24622        18.000           1.500
  20541570.437     -323689.688 6   -252232.19122        17.500           1.531
 91  5 20 20 10 44.9950000  0  5G 2G16G11G 6G19
  19334295.515          -0.27417                        27.750
  22755775.187    -7067765.799 5  -5329234.20121         8.250           0.125
  22438299.523    -9639559.735 6  -7511332.99421        13.500           0.375
  20375453.101   -19604535.871 6 -15086760.59821        18.250           1.469
  20544472.210     -308441.770 6   -240350.73422        17.500           1.656
 91  5 20 20 10 59.9950000  0  5G 2G16G11G 6G19
  19329671.812      -24299.610 7                        27.750
  22758870.640    -7051504.008 5  -5316562.75621         8.250           0.188
  22442343.460    -9618304.022 6  -7494770.11221        13.250           0.406
  20367947.890   -19643974.394 6 -15117491.88121        18.750           1.469
  20547386.788     -293133.392 6   -228422.17022        17.000           1.656
 91  5 20 20 11 14.9950000  0  4G16G11G 6G19
  22761978.304    -7035167.642 5                         8.250
  22446410.757    -9596930.798 6  -7478115.68921        13.000           0.438
  20360448.358   -19683383.883 6 -15148200.54921        18.500           1.375
  20550308.843     -277763.828 6   -216445.93422        17.750           1.625
 91  5 20 20 11 29.9950000  0  4G16G11G 6G19
  22765101.530    -7018762.547 5                         8.250
  22450499.030    -9575445.633 6  -7461374.02021        12.750           0.438
  20352953.812   -19722769.395 6 -15178890.53122        18.500           1.500
  20553244.132     -262338.258 6   -204426.04622        18.000           1.625
 91  5 20 20 11 44.9950000  0  3G11G 6G19
  22454609.804    -9553851.163 6  -7444547.19121        12.500           0.375
  20345461.593   -19762133.029 6 -15209563.46521        18.250           1.344
  20556190.351     -246858.854 6   -192364.22122        17.500           1.500
 91  5 20 20 11 59.9950000  0  3G11G 6G19
  22458741.273    -9532142.469 6  -7427631.35421        13.000           0.438
  20337976.663   -19801469.686 6 -15240215.38321        18.500           1.313
  20559147.601     -231320.496 6   -180256.44722        16.750           1.531
 91  5 20 20 12 14.9950000  0  3G11G 6G19
  22462893.444    -9510321.228 6  -7410627.84221        13.750           0.281
  20330496.890   -19840780.542 6 -15270847.19121        18.500           1.375
  20562115.148     -215724.479 6   -168103.75122        17.000           1.500
 91  5 20 20 12 29.9950000  0  3G11G 6G19
  22467067.546    -9488381.830 6  -7393532.24921        13.250           0.375
  20323022.343   -19880059.598 6 -15301454.22321        18.750           1.406
  20565095.562     -200064.963 6   -155901.57022        17.000           1.531
 91  5 20 20 12 44.9950000  0  3G11G 6G19
  22471265.483    -9466322.194 6  -7376342.94021        13.000           0.375
  20315553.726   -19919304.401 6 -15332034.55521        19.000           1.344
  20568089.030     -184339.617 6   -143648.09922        17.250           1.500
 91  5 20 20 12 59.9950000  0  3G11G 6G19
  22475484.257    -9444151.371 6  -7359067.00121        13.250           0.438
  20308090.194   -19958523.471 6 -15362594.84821        18.750           1.375
  20571093.937     -168557.027 6   -131350.00922        16.500           1.563
 91  5 20 20 13 14.9950000  0  3G11G 6G19
  22479725.312    -9421863.895 6  -7341700.17321        13.250           0.375
  20300633.757   -19997710.984 6 -15393130.54921        19.250           1.438
  20574107.171     -152711.395 6   -119002.80722        17.250           1.531
 91  5 20 20 13 29.9950000  0  3G11G 6G19
  22483985.944    -9399467.344 6  -7324248.34021        13.250           0.469
  20293182.171   -20036874.063 6 -15423647.20721        19.500           1.406
  20577133.812     -136810.199 6   -106612.31121        17.250           1.469
 91  5 20 20 13 44.9950000  0  3G11G 6G19
  22488272.937    -9376947.929 6  -7306700.75121        13.000           0.281
  20285737.304   -20075998.582 6 -15454133.81521        18.750           1.313
  20580172.046     -120839.432 6    -94167.60122        17.250           1.531
 91  5 20 20 13 59.9950000  0  3G11G 6G19
  22492581.648    -9354311.618 6  -7289062.09821        13.750           0.313
  20278297.585   -20115090.125 6 -15484594.73621        19.000           1.313
  20583223.679     -104804.682 6    -81673.03521        16.750           1.469
 91  5 20 20 14 14.9950000  0  3G11G 6G19
  22496909.398    -9331558.160 6  -7271332.16421        13.500           0.469
  20270865.335   -20154147.809 6 -15515029.27421        19.250           1.469
  20586287.460      -88705.247 6    -69128.06322        17.250           1.563
 91  5 20 20 14 29.9950000  0  3G11G 6G19
  22501262.194    -9308694.096 6  -7253516.03821        13.250           0.344
  20263438.163   -20193177.824 6 -15545442.25121        19.000           1.281
  20589363.054      -72547.293 6    -56537.49222        17.250           1.531
 91  5 20 20 14 44.9950000  0  3G11G 6G19
  22505633.866    -9285716.587 6  -7235611.51921        13.250           0.406
  20256016.663   -20232176.838 6 -15575831.07621        19.000           1.281
  20592448.765      -56327.441 6    -43898.68822        17.250           1.500
 91  5 20 20 14 59.9950000  0  3G11G 6G19
  22510027.483    -9262631.377 6  -7217623.07821        12.750           0.406
  20248599.687   -20271150.235 6 -15606199.93121        19.250           1.313
  20595545.249      -40051.267 6    -31216.00622        16.500           1.500
 91  5 20 20 15 14.9950000  0  3G11G 6G19
  22514439.952    -9239443.064 6  -7199554.29521        13.000           0.406
  20241188.030   -20310102.218 6 -15636552.10822        19.250           1.500
  20598651.741      -23723.286 6    -18492.95522        16.500           1.563
 91  5 20 20 15 29.9950000  0  3G11G 6G19
  22518871.030    -9216155.193 6  -7181407.92521        13.000           0.281
  20233779.710   -20349035.863 6 -15666889.99021        19.500           1.313
  20601770.616       -7346.561 6     -5731.91622        16.000           1.500
 91  5 20 20 15 44.9950000  0  3G11G 6G19
  22523325.124    -9192751.234 6  -7163171.11321        12.750           0.313
  20226377.312   -20387934.272 6 -15697200.41421        19.500           1.375
  20604898.429        9095.629 6      7080.13421        17.000           1.375
 91  5 20 20 15 59.9950000  0  3G11G 6G19
  22527798.616    -9169239.510 6  -7144850.32721        12.750           0.406
  20218980.413   -20426805.210 6 -15727489.43521        19.500           1.438
  20608036.007       25595.473 6     19937.11221        17.000           1.469
 91  5 20 20 16 14.9950000  0  3G11G 6G19
  22532294.601    -9145613.016 6  -7126440.08321        12.750           0.469
  20211589.030   -20465641.359 6 -15757751.34321        19.500           1.375
  20611189.179       42160.228 6     32844.66521        17.000           1.469
 91  5 20 20 16 29.9950000  0  3G11G 6G19
  22536812.327    -9121872.357 6  -7107940.91521        13.000           0.313
  20204206.726   -20504442.868 6 -15787986.26021        19.750           1.375
  20614357.148       58789.629 6     45802.60321        16.000           1.438
 91  5 20 20 16 44.9950000  0  3G11G 6G19
  22541350.054    -9098026.467 6  -7089359.73121        12.750           0.375
  20196827.007   -20543218.269 7 -15818200.83921        20.000           1.344
  20617529.241       75474.892 6     58804.05922        16.750           1.500
 91  5 20 20 16 59.9950000  0  3G11G 6G19
  22545908.538    -9074070.437 6  -7070692.72121        12.750           0.344
  20189454.273   -20581962.162 7 -15848390.86321        20.250           1.469
  20620718.905       92221.262 6     71853.13421        16.250           1.406
 91  5 20 20 17 14.9950000  0  3G11G 6G19
  22550489.538    -9049998.939 6  -7051935.74221        12.250           0.375
  20182089.866   -20620668.758 7 -15878551.82321        20.500           1.344
  20623914.905      109034.509 6     84954.31821        16.750           1.469
 91  5 20 20 17 29.9950000  0  3G11G 6G19
  22555089.976    -9025823.529 6  -7033097.77921        12.250           0.375
  20174728.351   -20659349.242 7 -15908692.44721        20.250           1.344
  20627125.726      125903.213 6     98098.71622        17.000           1.563
 91  5 20 20 17 44.9950000  0  3G11G 6G19
  22559711.241    -9001539.555 6  -7014175.23121        12.250           0.344
  20167373.757   -20697998.413 7 -15938808.64821        20.250           1.313
  20630347.437      142832.713 6    111290.48421        16.500           1.469
 91  5 20 20 17 59.9950000  0  3G11G 6G19
  22564352.452    -8977149.173 6  -6995169.78421        12.250           0.438
  20160025.468   -20736618.030 7 -15968901.84021        20.750           1.375
  20633583.038      159821.141 6    124528.17621        15.750           1.438
 91  5 20 20 18 14.9950000  0  3G11G 6G19
  22569012.577    -8952657.299 6  -6976085.24621        12.000           0.375
  20152680.327   -20775212.536 7 -15998975.45821        20.500           1.406
  20636823.382      176863.761 6    137808.10021        16.750           1.406
 91  5 20 20 18 29.9950000  0  3G11G 6G19
  22573694.319    -8928057.429 5  -6956916.54921        11.750           0.344
  20145341.062   -20813775.092 7 -16029024.17421        20.500           1.375
  20640082.741      193967.221 6    151135.42421        15.750           1.438
 91  5 20 20 18 44.9950000  0  3G11G 6G19
  22578394.913    -8903347.050 6  -6937661.71521        12.000           0.406
  20138010.890   -20852302.698 7 -16059045.66821        20.750           1.344
  20643345.405      211134.442 6    164512.42222        16.750           1.531
 91  5 20 20 18 59.9950000  0  3G11G 6G19
  22583118.382    -8878529.231 6  -6918323.20721        12.500           0.469
  20130686.155   -20890797.866 7 -16089041.87622        21.000           1.563
  20646627.366      228362.785 6    177937.06021        15.750           1.438
 91  5 20 20 19 14.9950000  0  3G11G 6G19
  22587861.163    -8853608.643 5  -6898904.57921        11.750           0.469
  20123366.468   -20929264.906 7 -16119016.17021        21.250           1.406
  20649912.890      245647.781 6    191405.83921        17.000           1.438
 91  5 20 20 19 29.9950000  0  3G11G 6G19
  22592621.827    -8828588.781 5  -6879408.61421        11.500           0.438
  20116049.616   -20967706.919 7 -16148970.95821        21.500           1.438
  20653212.062      262986.274 6    204916.29921        17.250           1.406
 91  5 20 20 19 44.9950000  0  3G11G 6G19
  22597402.069    -8803462.819 5  -6859829.98221        11.000           0.438
  20108740.405   -21006116.529 7 -16178900.49822        21.500           1.500
  20656523.124      280385.596 6    218474.16221        16.500           1.313
 91  5 20 20 19 59.9950000  0  3G11G 6G19
  22602204.187    -8778233.000 5  -6840170.42021        10.750           0.469
  20101436.890   -21044495.587 7 -16208806.23422        21.500           1.563
  20659844.773      297843.667 6    232077.81021        16.500           1.375
 91  5 20 20 20 14.9950000  0  3G11G 6G19
  22607026.679    -8752900.840 5  -6820431.12421        11.000           0.438
  20094139.085   -21082845.151 7 -16238688.99121        22.000           1.375
  20663178.108      315359.173 6    245726.20321        16.750           1.469
 91  5 20 20 20 29.9950000  0  3G11G 6G19
  22611865.437    -8727467.566 5  -6800613.02921        11.000           0.375
  20086847.265   -21121166.033 7 -16268549.39121        22.000           1.469
  20666522.843      332931.334 6    259418.74421        16.500           1.438
 91  5 20 20 20 44.9950000  0  3G11G 6G19
  22616725.398    -8701929.575 5  -6780713.33321        11.000           0.375
  20079561.468   -21159454.160 7 -16298384.26721        22.500           1.406
  20669878.687      350564.030 6    273158.45521        16.500           1.375
 91  5 20 20 20 59.9950000  0  3G11G 6G19
  22621601.288    -8676289.906 5  -6760734.40421        10.000           0.375
  20072280.874   -21197712.034 7 -16328195.57621        22.500           1.469
  20673244.976      368254.749 6    286943.38121        16.500           1.375
 91  5 20 20 21 14.9950000  0  3G11G 6G19
  22626503.319    -8650541.446 5  -6740670.71721        10.500           0.375
  20065008.343   -21235932.034 7 -16357977.36822        22.500           1.531
  20676623.444      386010.827 6    300779.23321        16.750           1.375
 91  5 20 20 21 29.9950000  0  3G11G 6G19
  22631425.515    -8624681.721 5  -6720520.31321        10.250           0.250
  20057742.140   -21274111.376 7 -16387727.48222        22.750           1.594
  20680017.108      403834.888 6    314668.06321        16.000           1.281
 91  5 20 20 21 44.9950000  0  3G11G 6G19
  22636368.460    -8598716.952 5  -6700288.05921        10.000           0.344
  20050485.483   -21312255.822 7 -16417450.39822        22.750           1.625
  20683418.812      421721.066 6    328605.29321        16.500           1.344
 91  5 20 20 21 59.9950000  0  3G11G 6G19
  22641325.585    -8572645.915 5  -6679972.97821        10.500           0.469
  20043232.530   -21350363.650 7 -16447144.78622        22.500           1.656
  20686834.843      439670.976 6    342592.18121        16.000           1.281
 91  5 20 20 22 14.9950000  0  3G11G 6G19
  22646307.304    -8546466.535 5  -6659573.51421        10.250           0.469
  20035987.968   -21388432.289 7 -16476808.63322        22.500           1.594
  20690264.351      457687.138 6    356630.69121        16.750           1.375
 91  5 20 20 22 29.9950000  0  3G11G 6G19
  22651308.562    -8520179.567 5  -6639090.21221         9.500           0.344
  20028750.796   -21426462.144 7 -16506442.26422        22.500           1.625
  20693706.499      475769.151 6    370720.52221        16.000           1.344
 91  5 20 20 22 44.9950000  0  3G11G 6G19
  22656333.358    -8493786.665 5  -6618524.31721        10.000           0.281
  20021521.757   -21464454.208 7 -16536046.44722        22.500           1.500
  20697157.093      493915.535 6    384860.49921        16.000           1.344
 91  5 20 20 22 59.9950000  0  3G11G 6G19
  22661374.171    -8467287.814 5  -6597875.89721        10.750           0.313
  20014301.351   -21502408.012 7 -16565620.81722        23.750           1.719
  20700623.624      512126.743 6    399051.00821        16.250           1.313
 91  5 20 20 23 14.9950000  0  3G11G 6G19
  22666439.366    -8440680.508 5  -6577142.96621        10.750           0.344
  20007084.491   -21540320.641 7 -16595163.10322        23.750           1.688
  20704101.874      530405.717 6    413294.31521        16.750           1.406
 91  5 20 20 23 29.9950000  0  3G11G 6G19
  22671522.140    -8413971.240 5  -6556330.58121        11.000           0.313
  19999876.718   -21578198.228 7 -16624678.08322        23.750           1.719
  20707595.187      548746.076 6    427585.45321        16.250           1.375
 91  5 20 20 23 44.9950000  0  3G11G 6G19
  22676621.437    -8387160.749 5  -6535439.31021        10.250           0.344
  19992677.171   -21616040.910 7 -16654165.86622        23.750           1.656
  20711093.499      567147.432 6    441924.10921        16.750           1.281
 91  5 20 20 23 59.9950000  0  3G11G 6G19
  22681744.913    -8360246.140 5  -6514466.92921        10.250           0.281
  19985480.327   -21653845.451 7 -16683623.92922        23.500           1.844
  20714607.007      585612.957 6    456312.78421        16.750           1.344
 91  5 20 20 24 14.9950000  0  3G11G 6G19
  22686886.499    -8333235.232 5  -6493419.52221        10.250           0.250
  19978295.054   -21691619.001 7 -16713057.84422        23.500           1.750
  20718132.085      604135.264 6    470745.69721        17.000           1.250
 91  5 20 20 24 29.9950000  0  3G11G 6G19
  22692044.663    -8306122.696 5  -6472292.91021        10.500           0.281
  19971112.116   -21729355.789 7 -16742463.10922        23.250           1.625
  20721669.843      622719.943 6    485227.21621        16.000           1.281
 91  5 20 20 24 44.9950000  0  3G11G 6G19
  22697222.140    -8278912.624 5  -6451090.29121        10.750           0.344
  19963938.483   -21767059.510 7 -16771842.60922        24.000           1.844
  20725215.796      641363.364 6    499754.50821        16.250           1.219
 91  5 20 20 24 59.9950000  0  3G11G 6G19
  22702418.296    -8251605.175 5  -6429811.78821        11.000           0.344
  19956768.546   -21804729.792 7 -16801196.05222        23.250           1.813
  20728775.874      660065.729 6    514327.72721        16.000           1.344
 91  5 20 20 25 14.9950000  0  3G11G 6G19
  22707631.858    -8224203.401 5  -6408459.79221        11.000           0.406
  19949607.569   -21842369.271 7 -16830525.49622        23.250           1.781
  20732345.030      678824.166 6    528944.63221        16.250           1.219
 91  5 20 20 25 29.9940000  0  3G11G 6G19
  22712866.322    -8196705.382 5  -6387032.81121        11.000           0.438
  19942450.557   -21879971.094 7 -16859825.59322        23.250           1.781
  20735928.596      697641.585 6    543607.51321        16.250           1.219
 91  5 20 20 25 44.9940000  0  3G11G 6G19
  22718116.213    -8169112.631 5  -6365532.00921        10.750           0.438
  19935301.760   -21917545.102 7 -16889104.01922        23.500           1.750
  20739518.143      716515.487 6    558314.38721        16.750           1.188
 91  5 20 20 25 59.9940000  0  3G11G 6G19
  22723386.330    -8141422.460 5  -6343955.28121        10.250           0.344
  19928156.104   -21955083.796 7 -16918354.92122        23.500           1.844
  20743119.377      735449.539 6    573068.14521        15.750           1.188
 91  5 20 20 26 14.9940000  0  3G11G 6G19
  22728673.322    -8113643.671 5  -6322309.51321        10.250           0.313
  19921020.049   -21992595.587 7 -16947584.86422        23.500           1.875
  20746731.729      754435.268 6    587862.15921        16.000           1.281
 91  5 20 20 26 29.9940000  0  3G11G 6G19
  22733976.846    -8085771.558 5  -6300591.00121        10.750           0.438
  19913887.432   -22030075.276 7 -16976789.79822        23.500           1.750
  20750358.565      773477.727 6    602700.38521        16.000           1.188
 91  5 20 20 26 44.9940000  0  3G11G 6G19
  22739298.947    -8057805.355 5  -6278799.20221        10.500           0.375
  19906759.541   -22067521.449 7 -17005968.61622        23.000           1.813
  20753992.479      792578.025 6    617583.67421        16.250           1.219
 91  5 20 20 26 59.9940000  0  3G11G 6G19
  22744639.236    -8029741.748 5  -6256931.49821        10.500           0.375
  19899644.455   -22104930.309 7 -17035118.36222        23.250           1.750
  20757639.088      811739.843 6    632514.90521        16.000           1.094
 91  5 20 20 27 14.9940000  0  3G11G 6G19
  22749997.611    -8001585.456 5  -6234991.56621        10.250           0.250
  19892532.002   -22142306.117 7 -17064242.34922        23.250           1.969
  20761295.127      830958.857 6    647490.70721        16.250           1.219
 91  5 20 20 27 29.9940000  0  3G11G 6G19
  22755370.908    -7973342.581 5  -6212984.18221        10.250           0.438
  19885423.369   -22179654.466 7 -17093344.93722        23.250           1.813
  20764963.955      850229.169 6    662506.47721        15.500           1.188
 91  5 20 20 27 44.9940000  0  3G11G 6G19
  22760764.979    -7944996.479 5  -6190896.33821        10.500           0.313
  19878324.799   -22216958.296 7 -17122412.83822        23.000           1.906
  20768641.893      869567.780 6    677575.46221        16.000           1.094
 91  5 20 20 27 59.9940000  0  3G11G 6G19
  22766177.580    -7916561.092 5  -6168738.94321        10.000           0.563
  19871232.315   -22254231.008 7 -17151456.48922        22.750           1.844
  20772336.049      888960.996 6    692687.00621        15.250           1.000
 91  5 20 20 28 14.9940000  0  3G11G 6G19
  22771605.190    -7888034.096 5  -6146510.15321         9.250           0.406
  19864146.955   -22291469.935 7 -17180473.81622        23.000           1.875
  20776033.424      908411.563 6    707843.22621        16.000           1.094
 91  5 20 20 28 29.9940000  0  3G11G 6G19
  22777050.135    -7859416.491 5  -6124210.77221         9.500           0.313
  19857065.986   -22328675.461 7 -17209465.12022        23.000           1.844
  20779746.877      927918.810 6    723043.62021        16.250           1.281
 91  5 20 20 28 44.9940000  0  3G11G 6G19
  22782511.338    -7830712.979 5  -6101844.44321         9.250           0.406
  19849989.666   -22365851.797 7 -17238433.66822        22.500           1.844
  20783469.088      947478.409 6    738284.80221        16.250           1.094
 91  5 20 20 28 59.9940000  0  3G11G 6G19
  22787990.635    -7801919.438 5  -6079407.95921        10.000           0.438
  19842921.252   -22402994.384 7 -17267375.93022        23.000           1.906
  20787203.900      967094.731 6    753570.19721        15.500           1.156
 91  5 20 20 29 14.9940000  0  3G11G 6G19
  22793489.244    -7773033.727 5  -6056899.66721        10.500           0.344
  19835860.119   -22440100.579 7 -17296289.82822        22.750           1.813
  20790945.900      986770.311 6    768901.76621        15.750           1.031
 91  5 20 20 29 29.9940000  0  3G11G 6G19
  22799000.822    -7744061.528 5  -6034323.96121        10.750           0.313
  19828805.502   -22477175.386 7 -17325179.26822        22.750           1.906
  20794701.549     1006500.120 6    784275.58121        14.750           1.063
 91  5 20 20 29 44.9940000  0  3G11G 6G19
  22804530.588    -7714997.047 5  -6011676.33921        10.500           0.313
  19821758.018   -22514212.741 7 -17354039.52622        22.250           1.969
  20798466.158     1026289.910 6    799696.14621        15.750           1.000
 91  5 20 20 29 59.9940000  0  3G11G 6G19
  22810077.393    -7685848.777 5  -5988963.43221        10.750           0.281
  19814715.502   -22551220.566 7 -17382876.77522        22.250           1.875
  20802240.705     1046131.509 6    815157.07021        16.250           1.000
 91  5 20 20 30 14.9940000  0  3G11G 6G19
  22815643.518    -7656615.943 5  -5966184.65521        10.500           0.313
  19807679.408   -22588197.526 7 -17411689.96722        22.250           1.969
  20806027.135     1066026.170 6    830659.34721        15.750           0.906
 91  5 20 20 30 29.9940000  0  3G11G 6G19
  22821224.346    -7627285.965 5  -5943330.17621        11.000           0.375
  19800650.830   -22625130.740 7 -17440469.07622        22.250           1.906
  20809828.768     1085986.586 6    846212.86721        15.000           1.031
 91  5 20 20 30 44.9940000  0  3G11G 6G19
  22826824.479    -7597862.228 5  -5920402.61221        11.000           0.281
  19793629.674   -22662022.890 7 -17469216.18122        22.000           1.844
  20813636.713     1106009.652 6    861815.20021        15.750           1.000
 91  5 20 20 30 59.9940000  0  3G11G 6G19
  22832440.721    -7568347.603 5  -5897404.26421        10.750           0.219
  19786617.197   -22698876.480 7 -17497933.24722        22.250           1.781
  20817461.604     1126092.826 6    877464.37521        14.250           1.000
 91  5 20 20 31 14.9940000  0  3G11G 6G19
  22838077.065    -7538737.908 5  -5874331.82221        11.000           0.375
  19779612.650   -22735686.748 7 -17526616.55322        22.250           1.875
  20821292.002     1146240.766 6    893164.00621        15.750           1.031
 91  5 20 20 31 29.9940000  0  3G11G 6G19
  22843727.682    -7509038.638 5  -5851189.58621        10.750           0.375
  19772615.572   -22772458.645 7 -17555269.96322        22.250           1.938
  20825140.783     1166448.369 6    908910.13021        14.750           1.063
 91  5 20 20 31 44.9940000  0  3G11G 6G19
  22849397.104    -7479242.251 5  -5827971.65121        11.000           0.250
  19765628.565   -22809184.165 7 -17583887.23422        22.500           1.938
  20828995.346     1186723.542 6    924708.91921        15.250           1.063
 91  5 20 20 31 59.9940000  0  3G11G 6G19
  22855084.986    -7449359.790 5  -5804686.66221        11.000           0.250
  19758646.830   -22845873.887 7 -17612476.60822        22.500           1.875
  20832863.143     1207055.557 6    940551.98621        15.750           1.063
 91  5 20 20 32 14.9940000  0  3G11G 6G19
  22860783.799    -7419390.975 5  -5781334.37521        10.500           0.344
  19751671.283   -22882527.023 7 -17641037.47422        22.500           1.844
  20836744.190     1227444.948 6    956439.76121        15.750           0.938
 91  5 20 20 32 29.9940000  0  3G11G 6G19
  22866503.697    -7389336.285 5  -5757915.14921        11.000           0.281
  19744701.666   -22919143.503 7 -17669569.77922        22.750           1.906
  20840635.783     1247891.693 6    972372.22621        15.750           0.938
 91  5 20 20 32 44.9940000  0  2G 6G19
  19737741.354   -22955720.124 7 -17698071.02622        22.500           1.938
  20844536.947     1268398.586 6    988351.56221        15.750           1.063
 91  5 20 20 32 59.9940000  0  2G 6G19
  19730790.900   -22992259.345 7 -17726543.12622        22.500           1.781
  20848451.846     1288963.267 6   1004375.93221        15.250           0.875
 91  5 20 20 33 14.9940000  0  2G 6G19
  19723842.783   -23028760.928 7 -17754985.89722        22.000           1.906
  20852376.588     1309585.619 6   1020445.22621        16.000           1.031
 91  5 20 20 33 29.9940000  0  2G 6G19
  19716902.565   -23065224.126 7 -17783398.76122        22.250           1.906
  20856310.268     1330266.203 6   1036559.90421        15.000           1.031
 91  5 20 20 33 44.9940000  0  2G 6G19
  19709974.893   -23101641.296 7 -17811775.76022        22.000           1.906
  20860258.705     1351012.520 6   1052725.79821        15.500           1.031
 91  5 20 20 33 59.9940000  0  2G 6G19
  19703052.518   -23138019.813 7 -17840122.64222        22.000           1.875
  20864221.697     1371817.033 6   1068937.05121        14.500           0.938
 91  5 20 20 34 14.9940000  0  2G 6G19
  19696135.900   -23174356.978 7 -17868437.29422        22.250           1.906
  20868188.736     1392682.209 6   1085195.56121        15.500           1.000
 91  5 20 20 34 29.9940000  0  2G 6G19
  19689232.877   -23210648.029 7 -17896716.02322        22.500           2.000
  20872172.744     1413612.593 6   1101504.88321        15.000           0.938
 91  5 20 20 34 44.9940000  0  2G 6G19
  19682333.955   -23246892.787 7 -17924958.67022        22.250           2.094
  20876167.400     1434608.313 6   1117865.11321        15.000           1.031
 91  5 20 20 34 59.9940000  0  2G 6G19
  19675444.549   -23283099.828 7 -17953171.92722        22.750           2.000
  20880173.455     1455660.535 6   1134269.38421        14.250           1.031
 91  5 20 20 35 14.9940000  0  2G 6G19
  19668562.565   -23319266.746 7 -17981353.92722        22.500           1.938
  20884190.299     1476771.547 6   1150719.44621        15.000           0.969
 91  5 20 20 35 29.9940000  0  2G 6G19
  19661687.361   -23355387.820 7 -18009500.19422        22.500           2.063
  20888222.174     1497946.859 6   1167219.63121        15.250           0.969
 91  5 20 20 35 44.9940000  0  2G 6G19
  19654823.619   -23391467.118 7 -18037613.91422        22.500           1.906
  20892263.815     1519182.233 6   1183766.60521        15.500           0.906
 91  5 20 20 35 59.9940000  0  2G 6G19
  19647964.768   -23427501.900 7 -18065692.94722        22.500           1.938
  20896317.127     1540480.122 6   1200362.28721        13.750           0.969
 91  5 20 20 36 14.9940000  0  2G 6G19
  19641116.205   -23463495.295 7 -18093739.73222        22.000           1.938
  20900378.822     1561837.353 6   1217004.20721        14.500           0.906
 91  5 20 20 36 29.9940000  0  2G 6G19
  19634273.815   -23499450.964 7 -18121757.12422        22.250           2.000
  20904452.666     1583249.988 6   1233689.31021        14.250           0.875
 91  5 20 20 36 44.9940000  0  3G 2G 6G19
  18930997.510      -16563.054 8                        29.000
  19627439.150   -23535361.159 7 -18149739.07622        22.000           2.156
  20908539.611     1604725.585 6   1250423.47421        14.750           0.969
 91  5 20 20 36 59.9940000  0  3G 2G 6G19
  18927860.916      -33047.957 8                        29.000
  19620616.658   -23571223.193 7 -18177683.50522        22.250           2.125
  20912639.580     1626266.793 6   1267208.76121        14.500           1.000
 91  5 20 20 37 14.9940000  0  3G 2G 6G19
  18924737.346      -49459.618 8        -0.26533        29.000           2.594
  19613798.486   -23607041.439 7 -18205593.81022        21.750           2.063
  20916749.416     1647869.030 6   1284041.60121        14.500           0.938
